GFSGL_850_thetae_000.txt.gz
Theta_e
326 327 327 329 330 330 322 317 319 320 321 323 320 321 323 325 322 319 318 322 324 325 326 327 326 327 328 328 328 328 328 324 325 322 323 321 320 321 321 317 317 318 318
330 333 329 330 336 339 325 319 319 318 318 319 319 321 322 324 322 322 321 322 325 328 330 330 326 327 325 327 328 326 324 324 326 325 322 322 323 323 322 318 319 319 318
340 340 341 338 340 340 333 324 319 318 317 320 321 320 320 321 322 319 321 323 325 326 326 325 324 323 322 322 322 322 321 321 323 324 323 322 322 321 320 319 319 319 318
342 341 343 344 341 345 336 328 324 319 320 320 320 320 321 322 321 319 320 323 326 327 326 323 324 321 321 322 323 323 323 320 321 322 322 321 322 321 320 319 319 318 316
346 342 341 343 346 347 337 332 325 322 322 322 320 321 323 324 323 322 323 324 325 326 326 324 322 322 320 320 321 322 322 321 321 321 321 320 321 320 320 319 319 318 317
345 345 345 348 349 345 336 335 332 327 324 323 323 323 325 326 323 324 325 325 325 326 326 324 324 323 320 320 320 320 320 320 322 321 321 321 320 320 320 320 319 318 318
345 346 348 349 348 345 339 333 338 326 323 322 323 326 325 326 323 327 328 328 328 328 326 326 326 324 321 321 320 320 320 321 322 321 321 321 321 321 320 320 319 319 318
342 346 348 349 348 345 337 333 338 328 322 323 327 327 324 327 325 329 331 330 329 329 326 326 325 325 322 322 321 320 321 321 320 321 321 321 319 318 317 319 320 318 316
344 346 347 348 347 345 340 331 336 338 331 330 331 330 329 326 328 329 328 330 327 328 327 326 325 323 322 322 321 321 319 317 320 321 321 319 316 317 319 318 316 316 316
346 348 348 348 346 342 339 333 336 336 337 335 333 333 331 331 332 330 330 327 325 326 326 324 324 323 321 319 317 317 318 320 319 318 317 314 317 319 319 317 317 316 315
345 350 348 347 346 341 337 338 338 337 336 331 330 326 327 326 327 329 329 325 325 326 325 325 323 320 316 315 316 318 319 318 318 317 314 317 318 318 318 318 316 314 316
347 349 346 344 343 340 337 337 337 335 333 330 330 327 327 325 329 328 324 322 325 326 324 322 320 318 314 313 315 317 318 317 315 315 316 317 317 318 319 318 315 315 317
348 346 343 341 341 338 336 334 333 330 328 329 324 327 327 328 329 323 320 322 325 323 322 320 320 318 314 312 315 318 317 315 314 315 316 317 317 318 317 317 315 316 318
342 341 340 337 336 332 328 327 329 329 329 326 324 327 327 328 325 323 323 324 322 320 320 320 318 317 314 314 317 318 315 313 314 314 314 314 314 314 315 315 316 319 318
338 338 339 338 336 333 331 330 328 327 324 324 327 326 327 327 325 324 323 322 320 319 318 318 316 314 315 316 317 314 312 313 312 310 309 309 310 310 312 315 316 318 318
333 331 330 335 332 329 330 331 328 325 323 325 325 327 326 325 324 323 322 320 319 317 317 315 313 313 315 315 313 312 312 311 309 309 308 307 307 307 309 314 317 319 318
331 328 327 327 328 327 327 327 325 324 326 326 327 325 324 323 321 320 318 317 315 314 314 311 311 312 312 311 310 310 310 309 307 307 305 305 304 305 308 314 317 319 318
326 323 325 325 326 325 325 322 321 328 327 324 322 322 321 320 318 316 316 314 313 313 312 311 311 311 310 309 309 309 306 305 301 301 302 302 302 302 305 313 316 319 317
327 326 323 325 329 330 329 328 326 327 325 323 322 321 320 317 315 314 313 312 311 311 311 310 310 310 308 308 308 306 306 301 297 300 300 300 300 300 302 310 315 318 319
329 326 328 328 327 327 326 325 324 323 323 323 321 320 318 314 314 312 310 308 306 306 308 309 308 307 306 306 305 304 298 295 298 299 299 299 299 299 300 306 312 316 317
327 325 322 321 322 322 322 322 323 321 321 320 319 317 315 316 315 312 310 309 306 306 307 307 306 305 303 301 299 295 296 297 298 298 298 298 298 298 299 301 308 313 316
322 321 323 324 325 325 323 322 322 321 320 320 319 316 317 317 315 313 310 308 306 306 306 305 304 302 298 296 294 294 296 297 297 297 297 297 298 298 298 299 301 308 312
324 323 322 323 322 322 323 323 322 321 320 319 318 317 318 317 315 312 310 307 306 306 306 304 303 298 294 292 293 294 295 296 296 296 296 296 296 297 297 298 299 300 305
320 320 320 320 321 322 321 321 320 318 317 318 318 318 318 317 314 311 309 306 304 303 304 303 301 295 293 292 293 293 294 295 295 295 295 295 295 296 296 296 297 298 300
320 319 318 317 316 315 315 317 316 316 316 317 315 315 316 315 312 311 308 306 304 302 301 299 296 294 294 293 292 293 293 293 294 294 295 295 295 295 295 296 296 297 298
313 312 313 312 312 312 310 310 311 311 311 310 310 311 312 311 311 310 308 306 304 302 300 297 295 294 294 294 294 294 295 294 293 294 294 294 294 294 295 295 295 296 297

GFSGL_850_thetae_003.txt.gz
Theta_e
332 330 331 330 326 327 327 319 318 318 317 319 321 324 323 322 322 320 319 318 317 322 323 324 325 326 327 327 325 325 328 328 328 325 326 327 321 320 319 321 321 319 319
337 329 329 329 327 324 323 341 319 317 321 318 321 322 320 322 323 322 322 325 323 322 325 326 325 324 323 322 321 322 323 325 325 327 323 326 327 323 321 320 320 320 319
348 341 331 330 330 329 329 335 326 319 324 323 324 320 320 320 321 322 320 322 324 325 324 325 324 325 324 322 322 322 326 323 326 325 325 324 325 326 325 324 325 324 322
348 348 344 335 334 341 341 345 327 324 323 324 320 319 320 321 321 321 320 322 323 323 324 326 327 324 323 322 320 320 321 322 326 326 326 325 325 325 325 325 324 323 323
348 348 349 347 346 346 348 344 330 328 328 328 324 321 323 322 322 322 324 326 325 323 322 324 326 325 324 323 321 321 320 322 326 325 325 325 324 324 323 323 324 323 322
346 348 349 349 349 347 348 346 341 334 330 329 326 331 328 325 323 325 328 328 325 325 324 326 327 326 325 325 324 321 321 321 321 323 324 325 325 325 324 325 323 322 321
343 345 347 347 347 348 347 346 338 337 333 332 329 335 329 328 324 326 327 328 328 326 327 328 328 326 325 326 325 323 322 322 321 321 322 322 323 324 322 321 320 320 320
341 343 345 346 347 347 346 343 340 338 335 331 331 332 333 333 329 328 330 329 331 330 330 329 329 327 326 325 324 323 322 321 321 320 321 321 321 321 319 316 317 319 319
340 343 344 345 346 347 346 343 337 338 334 332 329 332 332 332 331 328 326 326 329 329 329 328 328 328 325 324 324 321 320 318 318 319 320 319 320 317 316 318 319 319 320
338 342 346 347 347 346 346 343 341 335 334 334 335 333 333 332 330 328 326 327 329 329 329 327 328 325 325 324 321 317 316 316 317 318 319 315 314 318 318 318 319 319 318
338 342 349 348 346 345 344 341 337 332 333 335 334 335 333 328 327 327 326 326 326 329 327 328 326 325 324 320 317 314 313 314 317 317 313 316 317 318 318 318 318 317 317
341 344 347 347 345 344 343 340 336 335 335 336 335 334 329 326 326 327 326 327 327 325 328 326 325 323 321 319 317 313 313 317 317 313 315 315 315 315 316 315 314 315 316
340 344 344 343 342 341 341 340 336 336 336 336 334 329 327 325 325 327 326 325 322 326 325 323 322 320 321 319 316 313 316 316 314 313 313 313 312 311 312 311 310 314 316
344 343 339 338 338 338 339 337 334 330 329 328 327 325 325 325 326 328 324 323 324 324 322 320 319 319 318 316 314 316 315 314 312 312 312 311 311 310 310 307 309 315 318
336 336 335 336 336 337 336 333 329 328 329 329 327 325 327 326 326 326 324 324 323 321 320 318 317 316 314 314 315 315 312 311 311 310 309 309 308 307 307 305 312 315 318
339 337 335 334 334 335 333 329 327 328 326 325 325 325 324 326 326 324 323 322 320 319 317 315 315 312 313 313 312 311 309 310 309 308 305 305 305 304 304 304 311 315 317
334 332 333 333 334 333 332 331 329 327 324 325 326 325 326 326 323 320 319 319 317 316 313 312 312 311 311 311 310 309 308 308 307 304 301 302 302 302 302 305 311 314 319
331 327 327 328 325 326 326 327 327 325 325 326 325 325 322 321 319 318 316 315 315 313 313 312 310 310 309 308 308 308 308 307 305 299 300 301 301 301 302 304 309 314 317
321 322 323 324 325 325 326 325 325 322 327 325 322 321 320 319 318 315 313 313 312 310 309 310 310 309 309 308 308 307 306 302 297 298 300 300 300 301 302 303 306 312 315
325 327 328 327 327 327 326 325 326 326 325 323 322 320 319 318 315 314 314 312 310 307 306 307 308 308 307 306 305 302 298 296 298 299 299 299 299 300 301 302 305 308 311
328 327 325 323 322 321 322 322 322 322 322 322 322 319 319 316 315 316 313 311 309 307 306 306 306 306 304 302 300 296 295 297 297 298 298 299 298 300 300 301 302 306 309
325 322 321 323 324 325 324 323 323 322 322 321 320 319 318 316 317 316 313 311 309 307 306 306 305 304 303 298 295 293 295 296 297 297 297 297 298 299 299 300 301 302 305
323 323 324 323 322 322 323 322 322 323 322 321 320 319 317 317 318 317 313 310 308 306 306 306 305 304 299 294 293 294 295 296 296 296 295 295 298 297 299 299 300 301 302
324 321 319 319 319 320 322 322 322 322 322 321 319 318 317 318 318 316 312 310 307 305 303 304 304 302 296 293 293 293 294 294 295 295 295 295 297 297 298 299 299 300 300
319 318 318 318 318 320 321 321 320 319 318 318 318 317 317 316 318 316 312 310 307 305 303 302 300 297 295 294 293 293 293 294 294 294 295 295 295 296 297 298 299 299 300
314 313 314 315 315 315 314 314 314 314 313 313 312 311 312 314 314 313 312 310 307 305 304 301 299 296 294 294 294 294 295 295 294 294 294 295 296 297 297 297 297 298 299

GFSGL_850_thetae_006.txt.gz
Theta_e
350 341 337 344 348 338 343 334 338 337 331 327 328 326 329 321 332 333 332 331 331 330 329 332 334 334 331 329 329 328 328 328 328 327 327 327 328 329 329 329 328 328 327
343 339 339 347 345 342 333 330 322 331 323 318 321 324 328 327 334 336 334 331 331 330 331 333 334 332 333 333 331 331 329 329 328 327 327 328 327 327 328 329 328 327 326
354 354 347 340 341 350 335 329 332 333 320 319 326 323 325 331 333 335 335 334 332 331 332 333 333 333 333 331 330 328 328 327 327 327 328 328 326 326 326 325 328 325 326
354 356 356 351 353 352 344 334 333 336 321 320 326 329 329 330 329 332 335 335 330 330 333 334 334 334 333 332 331 331 331 330 328 328 327 327 326 326 325 325 325 324 323
356 356 358 358 358 354 347 337 341 339 328 324 325 326 329 327 323 327 333 333 330 327 333 334 334 334 330 327 328 327 326 327 326 327 326 326 324 325 326 325 324 324 324
357 357 357 359 357 353 349 346 345 346 339 332 328 327 331 326 323 329 329 333 333 335 336 336 331 327 329 328 327 326 326 325 324 325 325 324 325 327 326 325 325 323 324
356 357 357 357 352 350 349 348 347 347 342 336 330 332 331 327 327 328 325 328 334 335 335 327 327 329 330 331 330 328 326 325 324 324 326 326 325 326 325 324 324 324 322
349 352 354 350 348 346 347 346 347 346 344 336 333 335 332 331 328 334 333 330 330 333 329 328 328 329 329 329 328 329 325 325 327 327 325 324 324 322 320 319 319 319 319
344 347 344 345 346 345 346 346 345 345 342 339 337 337 336 336 333 335 332 333 333 328 327 325 327 325 328 328 326 325 325 325 324 323 321 317 317 317 315 315 319 321 321
333 336 337 341 345 346 347 346 345 342 340 340 339 337 336 336 329 329 332 331 329 327 326 327 327 328 327 327 325 325 324 324 324 320 319 321 318 319 318 319 320 319 319
333 335 336 341 347 348 347 345 344 342 339 338 338 338 336 334 330 333 331 329 329 327 327 327 330 325 327 326 324 321 321 318 314 316 319 318 316 317 317 319 320 319 317
336 340 341 346 346 345 345 345 345 342 340 338 336 338 336 337 335 330 326 329 328 327 328 330 329 325 324 322 320 320 318 315 317 319 318 315 316 316 316 316 316 315 314
335 340 345 347 346 344 344 345 343 344 340 339 338 338 337 338 331 328 328 327 328 328 330 324 324 323 321 320 319 318 316 317 319 317 314 314 315 314 314 314 314 311 311
337 341 343 342 344 344 344 342 341 340 339 338 339 337 335 330 329 326 327 327 326 323 322 321 321 320 318 318 318 317 317 317 315 313 313 313 313 313 312 311 309 309 314
344 344 346 346 343 341 343 340 340 337 337 335 334 328 329 331 333 330 328 327 325 324 323 322 321 320 320 320 319 318 316 314 313 312 312 312 311 310 309 308 307 310 316
347 344 342 342 341 341 338 338 335 334 329 328 328 328 326 327 326 326 326 324 323 322 320 320 319 319 319 318 317 315 313 312 311 310 309 309 308 307 306 306 307 311 315
343 338 339 339 337 338 337 334 331 328 328 328 325 326 324 324 326 325 323 321 319 318 317 318 318 317 317 315 314 312 311 310 308 308 308 307 306 305 305 305 306 310 314
341 336 337 337 336 335 333 333 333 332 329 324 326 325 325 326 324 321 318 317 316 316 317 317 316 315 313 312 311 310 309 308 306 305 305 305 305 305 304 305 306 309 312
333 333 334 333 332 331 330 330 331 330 329 328 326 325 324 322 319 317 317 316 318 317 315 314 312 311 310 310 310 308 306 304 302 303 304 304 304 304 304 304 305 307 311
331 330 330 331 332 331 332 331 330 329 329 328 324 323 321 320 318 317 316 317 316 315 313 312 310 309 309 309 307 305 303 302 303 303 303 303 303 303 303 303 304 305 310
331 330 331 331 330 329 328 327 327 327 326 325 325 324 321 320 320 319 318 316 315 314 312 311 311 309 308 305 303 302 301 302 302 302 302 302 302 302 302 303 303 304 305
331 329 328 327 328 327 327 327 327 326 325 324 324 323 321 319 319 320 318 316 315 313 312 311 309 307 304 303 300 300 301 301 301 301 301 301 301 302 302 302 302 303 304
328 328 328 329 329 328 327 326 326 325 325 324 324 323 320 319 319 320 318 316 314 312 311 309 307 305 302 299 297 299 300 301 300 300 300 300 301 301 301 302 302 303 303
328 328 327 326 325 324 324 325 325 325 324 324 323 322 321 319 319 318 316 314 313 312 310 308 306 304 301 298 297 298 298 298 297 299 298 300 301 301 302 302 302 302 302
325 324 324 324 324 323 323 322 322 322 322 321 320 320 319 318 318 317 315 314 313 312 309 307 305 303 299 296 296 296 296 294 295 295 296 300 300 301 301 301 301 302 302
320 319 319 318 318 318 318 318 318 318 317 317 317 317 317 317 317 317 315 314 313 311 309 307 305 302 299 296 296 295 295 295 295 295 295 299 300 301 299 300 300 301 301

GFSGL_850_thetae_009.txt.gz
Theta_e
356 357 357 356 357 354 349 351 352 348 348 344 337 329 324 331 322 318 333 334 336 335 333 329 332 334 333 332 330 331 329 329 329 327 328 329 328 329 328 329 330 329 329
356 356 354 351 353 355 351 352 350 347 347 338 323 319 324 324 329 323 320 333 334 334 332 331 334 334 334 334 332 332 332 329 330 329 329 329 329 328 329 327 328 328 328
355 356 357 353 350 350 353 351 346 348 346 332 325 317 322 321 323 320 322 325 336 334 333 333 334 334 333 333 332 330 330 329 330 328 327 327 327 328 326 328 326 327 326
353 354 355 355 352 353 353 352 347 351 346 327 326 317 318 322 325 327 328 322 334 337 334 333 335 335 334 334 334 334 332 332 330 328 327 329 328 326 327 327 326 326 326
352 354 354 356 356 355 354 354 355 353 346 332 328 322 317 323 329 329 329 322 326 337 334 333 334 334 334 334 333 330 331 329 330 329 327 326 326 326 327 326 327 327 326
354 355 357 359 359 358 356 357 356 354 351 344 338 325 320 324 334 333 331 321 335 336 335 335 334 336 335 332 327 327 329 328 327 327 328 327 326 327 327 327 327 326 324
355 358 358 360 359 360 359 358 356 353 349 346 343 329 322 329 333 328 328 328 335 336 335 334 335 336 331 326 327 328 326 326 328 328 327 327 326 324 324 324 324 324 323
358 358 359 359 361 361 359 357 354 351 349 347 344 330 334 336 333 331 328 328 332 332 334 335 336 335 333 329 328 327 325 328 329 328 328 326 326 325 320 318 318 318 319
361 360 360 361 363 360 356 353 349 349 348 345 341 336 337 340 339 336 331 333 333 335 333 336 337 330 329 327 327 326 325 327 327 326 325 324 323 318 318 318 320 319 319
359 359 359 359 357 357 353 349 349 348 347 344 341 340 342 342 339 337 335 332 335 334 335 335 329 327 326 327 326 326 327 328 327 326 326 323 320 321 318 318 319 321 320
353 352 353 355 353 353 350 350 350 348 346 343 342 341 342 341 339 338 331 331 334 336 336 335 331 330 328 324 325 327 325 324 322 320 321 321 322 320 318 318 320 320 319
351 355 354 353 353 353 353 349 348 346 343 343 342 342 343 340 340 334 332 330 334 334 334 332 331 331 327 326 324 322 320 320 320 319 321 321 320 316 316 317 316 315 315
355 356 353 349 353 351 350 347 346 343 342 342 341 342 342 338 338 337 331 332 330 329 329 327 331 328 325 322 320 319 319 318 319 321 321 317 315 316 315 315 315 313 312
350 343 345 351 352 347 348 345 343 342 341 343 342 339 338 338 337 334 331 328 327 327 328 328 326 323 320 319 319 319 319 319 320 318 315 316 314 314 314 313 312 310 309
350 352 354 351 347 345 344 342 341 343 341 341 340 339 338 333 329 328 327 327 328 329 327 326 325 324 323 323 322 321 320 319 318 316 315 314 312 312 311 310 309 308 309
350 349 344 343 343 343 341 340 340 339 338 337 332 331 332 329 330 328 328 328 328 327 325 323 323 322 321 321 321 321 319 317 316 315 313 311 311 310 309 308 308 308 309
347 346 343 344 343 343 340 340 337 335 330 328 328 327 325 325 326 327 327 326 324 321 318 320 320 321 320 320 319 317 316 315 313 311 310 309 308 308 307 307 308 308 310
345 343 341 340 339 339 338 336 334 333 330 329 328 326 326 324 325 326 324 320 317 318 319 319 320 319 318 317 315 314 313 312 310 308 307 307 307 307 307 307 307 307 307
343 339 339 338 337 336 334 333 333 333 331 330 326 326 326 325 325 322 318 317 320 321 320 318 317 316 315 314 313 313 311 309 306 304 306 306 306 306 306 306 306 306 306
336 336 337 335 334 332 332 331 331 331 329 330 327 324 325 324 321 319 318 319 320 319 318 317 315 314 314 313 312 310 308 306 305 306 305 305 305 305 305 305 305 305 306
333 332 333 333 333 331 331 331 330 329 328 328 327 326 325 323 322 322 322 321 320 318 317 316 315 314 313 312 310 307 305 304 305 305 304 304 304 304 304 304 305 305 306
333 333 331 331 331 330 329 328 328 327 326 326 325 325 325 324 322 322 322 321 319 318 318 316 315 313 311 309 307 305 303 303 304 304 303 303 303 304 304 304 304 305 305
332 330 329 329 330 329 329 328 328 327 327 325 325 324 324 324 322 322 321 320 319 318 317 315 313 311 309 306 303 301 302 303 303 302 302 303 303 304 304 305 304 305 305
330 329 330 329 329 329 327 326 326 326 326 326 325 324 324 323 321 321 320 320 319 317 316 314 312 310 308 305 301 300 301 301 301 301 302 302 303 304 304 304 304 304 304
327 328 327 327 326 325 324 324 325 325 324 324 323 322 321 320 321 320 319 318 317 316 314 313 311 309 307 304 301 299 299 298 296 295 296 301 303 303 304 303 303 303 304
324 324 323 323 322 322 322 322 322 322 323 322 322 321 321 319 318 317 318 317 316 315 314 313 310 308 306 303 300 298 297 295 295 295 296 297 302 303 302 301 302 303 303

GFSGL_850_thetae_012.txt.gz
Theta_e
359 355 353 352 344 345 349 352 351 350 351 346 345 343 340 327 329 327 326 330 330 328 323 328 331 331 329 331 332 332 331 329 329 329 326 325 327 327 327 328 329 328 327
360 356 351 346 347 342 345 347 352 353 352 349 344 341 341 330 324 324 324 328 333 329 324 323 323 326 327 332 330 328 331 332 331 328 330 328 328 329 327 327 327 329 329
361 356 353 349 348 341 336 338 348 351 349 350 345 344 338 330 325 324 327 321 325 325 326 326 323 327 333 333 334 333 331 329 329 331 328 327 327 328 327 325 326 327 328
360 358 356 352 345 337 338 341 341 343 347 349 347 342 339 330 327 324 327 324 325 325 331 330 329 333 334 329 329 328 328 329 331 332 332 331 329 326 326 328 329 328 327
356 358 358 354 350 350 350 349 345 349 350 349 352 349 345 336 331 328 331 329 330 329 335 332 331 332 334 330 330 330 332 328 328 328 328 328 328 328 327 325 325 324 324
351 355 355 357 356 356 356 355 358 356 357 356 355 354 349 342 333 325 329 334 334 334 329 335 333 333 332 334 332 331 332 328 327 328 326 325 327 327 325 325 325 326 323
349 353 352 354 356 357 357 358 357 358 357 357 356 355 352 346 335 332 336 336 334 333 335 337 333 331 333 333 333 331 328 328 328 327 325 323 326 325 325 324 323 321 320
349 352 353 354 357 357 358 358 358 358 358 358 357 354 351 346 336 330 334 332 331 334 335 334 333 332 334 334 331 329 329 328 327 326 325 326 326 325 325 325 321 317 317
353 356 357 360 361 362 361 362 361 360 359 357 353 349 348 342 333 330 330 334 332 331 334 333 330 327 329 328 327 330 328 327 325 326 327 327 327 326 324 320 318 318 318
357 357 362 363 366 365 363 362 362 359 356 351 349 347 345 342 338 339 341 338 335 332 329 332 331 331 330 327 328 327 327 327 327 328 326 325 325 322 321 321 319 320 319
361 363 362 363 363 363 362 360 355 352 351 348 346 343 342 341 341 342 340 338 336 334 330 331 334 333 331 330 329 326 325 326 326 324 322 319 319 321 323 321 318 319 319
363 362 361 361 360 360 358 354 354 349 348 347 344 343 342 342 342 341 339 338 334 332 334 336 336 333 330 327 328 326 325 322 320 319 318 320 322 319 317 316 316 316 314
358 358 359 357 355 355 353 350 349 348 345 344 343 342 342 342 342 339 339 334 332 330 332 332 329 329 326 327 327 322 319 319 318 318 320 321 319 316 315 314 314 313 312
357 356 353 352 351 351 350 350 348 345 344 342 343 342 342 340 338 337 336 335 332 331 329 327 328 327 327 323 322 322 321 320 319 320 320 317 316 315 313 312 311 310 309
354 353 353 351 348 350 348 346 344 343 343 343 341 340 340 338 338 331 328 327 327 327 326 327 326 325 325 324 324 323 321 320 319 320 318 316 315 312 311 310 309 308 309
348 346 350 347 346 347 345 343 343 342 342 340 340 338 336 335 331 327 324 326 327 328 328 329 326 325 324 323 322 321 321 321 318 317 316 315 311 310 309 308 308 308 308
349 349 348 345 344 343 342 340 339 339 338 337 337 330 329 328 326 324 325 326 327 328 327 323 321 321 322 321 321 320 318 317 315 314 311 310 309 308 308 307 307 307 307
348 346 345 345 342 341 342 340 338 337 337 330 328 329 327 325 323 324 325 326 325 320 319 320 320 321 320 319 318 316 315 314 313 311 309 307 307 307 307 307 306 306 306
346 343 343 342 343 342 340 339 337 335 332 330 328 327 326 325 324 325 325 321 321 322 322 321 319 318 317 316 315 314 314 312 309 306 306 307 307 306 306 306 306 305 305
343 341 341 339 339 337 336 335 334 334 334 332 329 327 325 325 325 324 322 319 317 321 320 319 318 317 316 315 314 313 311 308 306 306 306 306 305 305 305 305 305 305 305
337 337 338 337 335 334 333 332 332 331 332 330 329 327 323 323 322 322 322 322 321 321 320 319 317 317 316 314 312 309 308 305 305 305 305 305 305 304 304 305 305 305 305
333 332 334 334 334 332 332 331 330 329 329 329 330 328 327 325 325 324 323 322 322 320 319 318 318 317 315 312 310 308 307 304 304 305 305 304 304 304 305 305 305 305 305
333 332 329 332 332 331 330 330 329 328 327 327 326 325 325 325 325 324 322 323 321 320 319 318 317 315 312 310 308 305 302 303 304 304 303 303 304 304 304 305 305 305 305
331 330 330 330 330 330 329 329 328 327 328 326 325 325 325 325 324 323 321 321 321 319 318 317 316 314 311 309 307 303 301 302 302 302 300 300 303 304 304 304 304 304 304
330 329 329 329 328 327 327 326 326 326 326 325 325 326 325 323 321 319 320 320 320 319 318 317 315 313 310 309 306 302 300 300 300 299 296 296 300 304 304 303 303 303 304
325 325 326 325 325 325 324 324 324 324 324 324 323 323 323 324 322 321 320 319 318 316 316 314 313 312 310 308 305 303 301 299 296 295 295 296 302 304 303 302 303 303 303

GFSGL_850_thetae_015.txt.gz
Theta_e
353 354 354 349 348 349 345 346 347 354 352 349 346 347 346 345 342 322 320 323 326 329 329 326 328 329 332 333 330 331 333 330 328 329 328 328 326 325 324 325 325 327 327
354 354 354 353 345 349 347 345 344 347 352 352 349 346 346 344 342 329 320 323 324 327 331 331 328 330 326 322 330 331 331 329 330 330 330 328 329 327 327 326 327 325 326
354 354 354 353 348 342 343 343 343 341 347 350 351 350 348 345 343 339 326 324 323 328 332 333 329 326 325 319 329 327 327 329 330 331 326 329 328 330 330 328 326 327 327
353 353 354 353 347 337 335 336 342 340 348 350 350 350 349 347 345 342 339 325 327 326 330 328 330 329 320 323 329 328 328 326 326 327 328 328 329 329 329 328 327 326 324
352 353 352 350 350 342 340 339 336 343 346 352 354 353 352 349 347 345 343 334 327 327 328 330 332 333 329 329 329 328 328 327 328 329 327 327 328 327 326 326 327 323 320
351 351 352 353 353 349 346 343 344 344 346 349 353 355 353 352 351 349 346 339 330 328 329 330 333 334 333 331 331 330 331 330 329 328 329 328 327 326 322 325 326 324 322
349 351 350 352 353 352 352 353 353 352 354 356 355 355 355 355 353 351 348 341 334 328 331 333 335 335 335 333 334 333 330 329 330 330 328 327 326 325 326 326 324 324 323
350 349 349 351 350 354 355 356 357 357 357 358 356 355 356 357 357 353 348 338 333 335 336 336 334 331 336 332 331 327 329 329 330 328 328 326 324 326 326 325 325 323 319
350 348 349 348 350 353 356 357 358 359 359 358 357 356 356 355 353 350 345 336 334 336 333 334 334 333 332 333 329 328 328 326 328 327 327 325 326 326 325 325 323 322 321
350 348 348 349 350 353 356 357 359 360 358 357 358 357 355 352 347 345 343 338 336 334 337 334 335 332 331 330 328 329 327 329 327 324 324 326 326 325 323 323 321 322 322
350 349 349 350 352 354 357 359 360 359 356 359 356 352 348 346 344 342 339 339 340 339 338 334 332 330 331 327 328 329 329 327 324 324 323 323 320 319 321 321 319 317 316
354 353 355 358 361 363 363 360 359 358 358 353 349 346 344 342 342 340 341 342 340 338 337 335 331 331 332 330 330 327 327 326 320 319 318 317 320 321 316 315 315 314 314
355 362 364 366 367 367 363 357 358 356 350 348 346 344 343 342 341 342 342 340 338 336 334 332 330 330 329 329 327 326 324 320 320 319 319 320 320 318 316 316 315 313 312
362 364 364 364 364 361 359 357 354 348 347 345 343 343 342 342 341 341 339 338 338 335 330 331 331 329 327 326 323 322 322 321 319 318 318 318 317 316 316 314 311 310 309
363 362 361 360 359 355 350 347 348 346 344 342 342 342 341 339 338 336 334 331 334 335 333 330 327 326 324 324 325 323 323 321 320 319 320 319 316 316 313 310 308 307 307
357 357 357 355 352 349 347 348 346 344 342 342 341 340 337 336 333 328 326 324 326 327 326 327 327 325 323 324 323 321 321 321 321 320 318 315 313 311 309 307 307 307 307
350 351 349 348 344 346 346 346 343 341 341 342 340 338 336 335 331 328 323 323 326 327 327 327 327 321 322 321 321 319 317 316 316 314 313 312 311 309 307 307 306 306 306
345 344 343 344 344 345 341 338 338 340 341 338 337 336 331 328 326 324 323 324 326 326 324 320 319 321 321 320 319 318 318 316 314 314 313 309 306 307 306 306 306 305 305
345 344 342 340 338 337 339 339 336 332 336 334 331 330 328 327 323 322 323 324 324 320 322 321 321 320 319 318 317 315 315 314 314 310 306 306 306 305 305 305 305 305 305
346 345 345 345 344 340 340 340 339 336 334 330 328 327 325 323 323 323 323 323 320 320 321 320 319 318 317 316 316 314 313 312 309 305 306 305 305 305 304 304 305 305 305
343 342 341 339 340 341 341 339 337 335 334 332 330 328 326 323 324 323 322 321 320 319 320 319 319 318 317 316 315 313 310 307 305 305 305 305 305 304 304 304 304 305 305
335 335 338 337 337 335 334 332 332 333 334 334 331 328 325 324 323 323 323 323 322 321 320 319 318 318 317 315 313 311 309 307 304 304 304 305 304 304 304 304 305 305 304
335 332 336 334 334 333 332 331 330 329 330 330 329 328 327 325 325 325 324 323 322 321 321 319 318 317 317 315 312 310 309 303 303 304 304 304 301 304 304 304 304 303 304
332 332 330 331 332 331 330 330 329 328 328 327 327 326 325 325 324 325 324 323 322 321 320 319 317 317 316 314 311 309 308 302 302 302 302 299 297 302 304 304 304 303 303
330 329 330 330 330 329 329 328 327 325 327 327 326 325 325 324 324 324 322 320 319 320 318 318 317 316 315 313 311 309 307 301 300 300 300 298 296 303 304 303 303 303 303
327 328 326 326 327 325 324 325 325 325 326 326 325 325 324 324 324 322 319 317 317 319 318 316 316 316 314 312 312 310 305 302 300 297 296 296 297 303 303 302 302 303 302

GFSGL_850_thetae_018.txt.gz
Theta_e
350 350 350 351 351 346 344 345 344 351 352 351 351 348 344 345 345 345 342 321 320 324 323 324 322 319 332 332 332 331 330 330 331 330 329 328 328 328 326 324 325 326 327
349 350 351 351 352 349 345 343 344 348 350 352 350 348 347 346 346 345 343 335 320 322 323 323 327 326 326 329 332 332 332 332 331 330 329 329 327 327 327 326 328 329 327
350 351 351 351 352 351 344 344 341 344 348 351 352 351 350 347 346 346 344 342 328 321 323 324 327 329 326 327 327 325 329 331 331 329 328 327 326 328 329 329 330 328 328
349 351 351 351 350 350 348 341 340 340 344 348 350 351 351 350 349 347 346 344 341 329 322 324 326 331 330 327 327 326 327 330 328 331 326 326 327 326 327 328 327 326 326
349 350 351 350 350 350 349 344 339 341 343 345 347 349 351 350 350 349 348 346 344 342 329 324 323 325 329 329 330 322 328 331 329 329 327 328 327 328 327 327 325 324 325
350 349 350 350 350 350 349 348 342 339 344 344 346 345 348 349 350 351 351 349 346 343 337 329 325 327 327 330 331 331 330 332 331 329 328 329 328 329 327 326 325 326 325
350 350 350 350 350 348 348 349 348 342 342 345 348 350 352 355 353 352 352 351 348 346 343 335 329 329 331 332 335 334 332 329 329 326 327 328 328 328 326 325 326 326 325
350 351 350 349 349 348 347 348 350 348 346 347 350 350 349 351 351 353 353 352 351 348 343 339 332 330 333 332 330 334 333 331 327 327 328 327 329 327 325 326 327 325 323
352 351 350 350 350 350 348 346 349 351 351 351 351 354 353 334 353 355 357 355 351 347 340 333 334 336 336 335 331 333 332 327 326 327 327 328 327 326 326 326 324 324 324
349 348 349 349 350 350 349 349 350 353 352 353 356 357 354 353 353 355 356 349 345 341 336 335 337 335 331 333 330 331 331 327 327 327 329 327 325 325 324 322 319 320 322
346 349 352 351 349 349 351 352 352 353 355 358 359 359 356 355 355 351 345 344 341 338 336 336 336 336 334 335 330 329 329 328 328 327 325 320 318 318 318 320 318 316 315
349 351 353 352 351 351 353 354 354 355 357 358 355 351 356 353 346 344 343 339 339 339 338 338 337 335 333 331 330 329 328 326 327 322 319 318 317 320 319 317 316 315 314
350 352 353 353 352 352 354 355 356 357 358 355 351 352 351 344 343 341 341 340 340 341 339 335 334 331 329 328 327 327 327 326 320 319 318 318 318 318 317 317 316 315 312
350 351 351 352 353 355 356 356 356 357 356 355 353 347 343 343 342 341 341 341 340 339 338 334 330 330 329 329 328 325 322 321 321 320 319 318 318 318 317 316 315 310 308
353 354 356 359 359 361 362 361 356 355 352 350 343 343 342 341 341 341 340 337 336 337 337 334 331 331 326 324 323 323 323 322 321 320 319 318 319 319 316 312 308 307 307
355 356 357 361 363 362 357 352 350 347 343 342 341 339 341 339 337 336 334 329 328 331 333 333 328 325 323 323 323 325 323 322 321 320 320 320 315 313 311 309 307 306 306
357 359 358 356 352 349 344 345 345 342 342 340 340 339 337 332 332 328 326 322 323 325 325 326 326 325 322 321 321 321 320 320 319 318 319 318 313 311 309 307 306 306 305
354 354 354 351 342 335 339 345 341 342 338 341 341 339 334 332 328 327 322 322 323 325 326 325 324 324 320 321 320 319 317 317 316 314 313 312 308 306 306 306 305 305 304
347 349 349 347 346 345 344 345 342 339 339 339 339 337 333 329 328 327 323 322 323 324 322 320 320 319 320 320 318 317 315 314 314 313 312 306 306 305 305 305 304 304 304
341 344 344 344 343 344 339 336 336 337 337 338 336 335 331 328 327 325 322 322 324 321 320 321 320 321 318 317 317 316 316 312 308 308 305 305 305 305 304 304 304 304 305
343 343 342 339 338 337 338 337 334 333 332 331 329 327 326 323 322 322 323 322 322 320 320 320 319 319 318 318 317 316 314 312 310 306 304 305 305 304 304 303 304 305 304
341 339 340 342 342 339 336 334 336 334 334 332 329 328 326 323 323 323 323 321 320 319 319 319 319 319 318 318 317 315 313 311 310 306 304 304 304 304 303 303 304 304 304
334 336 337 338 339 339 337 335 335 334 334 332 331 329 327 324 324 324 323 323 322 321 321 320 320 319 317 317 316 315 314 312 309 304 303 304 303 301 302 303 304 304 303
333 335 335 335 334 334 334 331 330 331 331 331 329 329 328 326 325 324 324 324 323 323 321 321 320 318 317 316 315 314 311 310 308 302 302 301 300 297 301 303 303 303 302
322 326 331 330 332 331 331 330 329 327 327 327 327 327 325 325 325 325 324 324 322 322 322 321 319 317 316 316 314 313 310 308 305 302 301 300 299 297 299 303 303 302 302
328 329 329 329 329 328 327 326 326 326 326 326 326 325 324 324 325 324 324 324 321 319 320 319 317 317 317 316 314 311 309 305 302 301 299 297 296 296 301 302 301 302 302

GFSGL_850_thetae_021.txt.gz
Theta_e
346 347 347 348 348 349 350 346 340 344 347 346 345 349 348 348 343 344 344 340 324 320 323 322 321 320 322 333 334 332 331 330 330 329 329 331 329 328 329 328 326 326 327
346 346 347 347 348 349 350 350 338 344 345 344 348 350 349 349 344 344 344 345 343 332 320 324 322 323 322 320 328 332 332 331 331 331 330 329 329 328 327 328 328 328 329
345 347 347 348 348 349 350 350 342 340 344 342 348 350 350 350 348 346 345 345 345 343 330 321 323 323 325 326 326 327 332 330 329 331 331 330 329 329 326 325 326 327 327
345 347 347 348 348 348 349 350 346 340 341 343 345 348 350 350 349 348 348 346 346 345 342 331 322 323 325 327 330 328 329 329 326 329 330 328 330 328 329 328 327 327 326
345 346 346 347 347 348 349 350 349 342 341 340 343 346 348 350 352 351 350 349 348 347 344 340 331 324 324 325 328 332 331 328 326 331 332 330 328 326 328 328 328 327 325
347 346 346 347 347 348 349 350 350 350 343 342 342 341 344 345 347 349 349 350 350 349 347 344 341 337 327 325 327 330 332 333 330 330 332 331 328 326 328 327 328 326 324
347 347 347 347 347 348 350 350 350 350 349 345 342 343 342 340 340 340 346 349 351 351 349 346 344 343 334 327 328 331 334 333 334 329 330 330 327 328 327 328 328 326 326
347 348 350 348 346 348 350 350 350 350 348 348 343 340 341 338 336 342 346 353 354 352 349 349 347 344 339 333 330 333 332 330 334 328 331 327 327 327 328 327 326 325 325
348 348 347 348 348 349 349 349 351 352 350 347 347 341 338 339 343 347 352 356 354 353 353 346 346 339 337 335 334 336 333 331 333 332 328 327 327 328 327 326 325 326 323
346 347 347 348 349 349 348 349 351 353 351 350 348 345 344 349 352 353 351 353 356 355 348 344 341 335 335 336 337 333 334 330 330 329 328 327 327 325 321 320 320 319 319
346 346 350 350 350 350 350 351 350 352 353 352 351 348 351 354 350 335 345 353 355 346 343 340 336 335 337 337 335 334 333 328 329 328 327 326 319 317 317 318 318 316 316
347 348 349 350 351 353 353 355 354 356 354 352 355 354 356 352 346 351 343 352 346 343 339 337 336 336 336 335 334 333 331 329 328 326 325 319 318 317 319 319 318 316 316
349 349 350 351 352 356 354 355 356 355 355 356 355 357 355 351 352 352 349 343 341 338 337 337 338 336 335 333 329 328 330 330 327 325 320 319 318 318 317 317 317 316 314
346 345 347 351 354 352 354 356 356 355 356 355 355 356 354 343 348 347 342 339 339 339 339 339 337 333 329 328 328 328 327 326 324 320 320 319 318 318 317 317 317 314 309
347 347 350 352 354 355 357 359 359 355 352 351 352 351 349 348 345 339 337 339 340 340 338 338 335 330 329 330 329 327 323 322 322 321 321 320 319 318 318 316 312 309 307
348 348 351 352 354 355 357 359 356 353 350 349 348 345 344 344 338 338 340 340 338 336 337 337 335 331 329 325 323 323 323 324 322 322 321 320 320 319 314 311 309 307 306
353 355 355 354 356 357 357 352 346 342 343 334 332 336 341 340 339 340 338 335 330 332 334 333 332 329 324 322 322 321 321 320 320 319 319 319 317 314 312 309 306 305 305
357 355 354 352 350 354 348 343 336 332 329 335 340 340 340 336 335 335 330 325 324 325 325 325 325 325 324 320 320 321 319 317 316 315 314 314 313 312 306 306 305 304 304
345 345 346 342 342 342 339 339 334 334 335 342 341 340 334 331 329 327 324 321 321 322 323 323 323 321 320 319 320 319 317 316 315 314 313 312 308 306 305 304 304 304 304
328 337 338 336 333 334 338 337 339 342 341 339 340 336 332 330 328 327 325 322 322 322 322 320 320 320 319 319 319 317 316 315 312 308 307 306 305 305 305 304 304 303 304
329 341 341 341 340 344 343 343 340 338 340 339 337 334 330 326 326 327 326 322 321 320 320 320 320 321 320 319 318 317 315 314 313 311 308 306 304 304 304 304 303 303 304
340 341 339 340 339 340 338 338 337 335 335 333 332 329 329 326 325 325 323 323 321 321 320 319 318 319 319 318 318 317 315 314 313 312 309 305 304 304 304 303 302 303 304
338 339 340 339 338 336 334 333 331 331 330 330 329 329 328 325 324 323 322 322 321 321 320 320 319 319 318 318 317 316 315 314 312 310 308 303 303 304 302 300 301 303 303
335 335 333 334 337 337 336 334 335 334 333 334 332 329 327 324 323 323 323 322 321 322 321 320 320 320 318 317 316 315 314 313 311 308 304 302 301 301 300 297 300 303 302
326 330 331 333 334 334 335 334 332 332 331 331 330 330 329 328 326 325 324 323 323 323 323 322 321 321 318 316 316 314 313 311 306 306 304 302 301 301 300 298 298 302 302
325 328 328 330 329 330 330 330 329 327 328 327 327 327 328 327 325 325 324 324 324 323 321 321 321 320 317 316 316 314 312 310 310 306 302 301 299 296 296 297 301 301 301

GFSGL_850_thetae_024.txt.gz
Theta_e
345 345 346 346 347 347 347 347 348 347 344 343 340 346 344 344 347 348 345 338 337 322 322 323 322 320 318 321 326 332 333 332 331 330 330 329 330 329 329 329 327 328 328
344 345 345 346 346 347 347 347 348 349 346 343 341 346 345 344 348 348 344 343 343 342 335 323 322 323 321 321 320 326 330 332 332 331 331 331 330 329 329 328 326 327 327
344 344 345 345 346 346 346 347 347 348 349 342 342 344 343 344 348 348 346 343 344 344 344 342 330 323 324 324 324 323 327 328 331 332 329 330 331 330 329 327 327 328 327
344 344 344 344 344 345 345 346 347 348 349 346 341 343 343 345 348 347 348 347 346 346 345 345 343 330 324 326 328 328 328 329 330 330 329 327 330 331 330 328 326 327 327
343 344 344 344 344 344 345 346 347 347 348 348 341 342 343 342 346 346 347 348 348 348 347 346 345 343 335 327 326 330 332 333 332 330 328 327 331 331 330 327 326 327 327
342 343 344 345 345 344 345 346 347 347 348 349 347 341 342 341 342 346 347 349 350 350 350 349 347 345 342 341 332 328 333 335 334 334 332 329 330 332 329 328 327 327 328
342 343 344 345 345 344 345 346 346 347 347 348 349 345 341 341 343 344 346 347 348 349 349 349 349 347 345 343 341 331 330 332 333 334 333 333 331 329 329 328 327 327 327
342 344 344 345 345 346 347 346 346 347 347 347 347 347 344 342 343 342 342 344 347 347 348 351 350 348 347 345 343 336 332 332 333 332 330 332 329 329 327 327 328 327 325
342 344 346 346 346 347 347 346 346 347 347 347 347 348 347 343 340 340 344 344 347 346 350 353 352 350 347 345 343 338 334 333 335 333 332 332 331 327 327 327 325 324 324
341 341 342 345 346 347 347 347 347 348 348 348 348 347 347 346 343 337 342 344 345 349 351 355 352 347 344 340 338 335 335 335 334 332 329 330 329 328 325 319 318 318 318
340 343 345 346 346 346 348 350 351 351 350 349 349 349 349 349 344 338 342 345 348 348 351 354 349 344 341 336 335 335 336 335 332 328 329 328 327 322 318 316 318 318 317
343 344 345 347 348 349 350 352 349 352 352 351 352 351 350 348 346 341 348 352 354 353 353 349 343 339 335 335 334 334 334 334 330 329 328 326 322 318 317 316 317 316 316
346 347 348 351 353 353 353 351 352 351 355 355 354 360 352 350 346 349 354 349 351 354 348 342 337 335 335 336 336 334 332 331 330 329 327 322 319 319 318 317 317 317 316
346 348 349 350 352 355 356 357 356 352 354 345 347 357 356 350 350 356 356 352 349 345 341 337 336 337 337 334 331 330 328 328 329 327 324 320 319 319 318 318 317 317 314
347 345 345 349 352 354 357 357 357 356 356 354 357 356 356 351 353 350 347 347 345 340 337 336 336 338 332 328 328 328 328 327 326 323 321 320 321 319 318 319 317 313 311
340 345 350 347 350 353 355 356 358 358 358 358 355 354 349 342 342 340 337 342 340 338 338 337 335 335 330 329 329 329 328 323 322 322 322 322 321 319 319 317 313 310 306
332 332 345 350 348 350 355 355 356 355 359 357 346 344 340 334 332 331 337 339 340 339 339 335 335 335 329 330 327 324 323 322 322 320 318 318 318 316 315 312 308 306 305
333 337 338 347 349 352 353 354 351 352 345 333 333 333 333 333 333 332 339 340 340 338 332 333 334 334 331 325 323 321 320 320 318 317 315 314 314 313 312 307 305 304 303
340 346 348 351 350 351 350 344 338 332 330 332 331 331 330 330 334 335 339 339 335 329 331 331 330 328 326 323 320 320 319 318 317 316 315 313 312 311 306 305 304 303 303
341 338 333 336 336 341 339 337 332 331 333 335 331 336 337 338 339 339 337 331 325 323 323 323 323 324 323 320 319 319 318 317 315 314 311 308 307 305 305 304 303 302 302
332 333 331 330 333 331 333 330 329 329 331 333 332 339 339 336 333 332 326 322 321 321 320 321 321 320 320 319 319 318 317 316 314 313 311 308 305 304 304 304 303 302 302
333 333 333 332 330 332 333 330 327 328 332 335 338 338 333 329 328 326 325 321 321 320 320 320 319 320 320 320 318 317 317 315 314 313 312 309 305 304 304 304 303 301 302
336 336 337 337 337 338 338 337 337 336 337 337 337 335 331 328 327 327 326 322 321 321 320 319 318 319 319 318 317 317 316 315 314 313 311 309 304 303 303 303 299 299 301
334 335 336 335 332 333 335 334 333 333 333 332 332 330 327 328 328 327 324 322 321 321 320 319 319 319 318 318 317 316 316 313 312 311 309 306 303 302 301 300 298 298 300
328 330 331 332 332 333 333 332 331 330 330 329 329 330 331 330 327 325 323 322 322 321 321 320 319 320 320 318 317 315 315 313 311 306 306 304 302 301 301 300 300 297 300
326 326 329 330 331 331 330 331 331 332 330 330 330 330 329 328 325 324 324 323 323 321 321 322 322 320 320 318 316 315 314 312 310 309 306 302 301 301 298 297 296 298 300

GFSGL_850_thetae_027.txt.gz
Theta_e
341 342 344 345 345 346 347 347 346 347 348 348 346 343 342 346 346 345 347 347 340 329 323 321 323 323 320 321 320 324 327 332 333 333 330 330 330 330 329 329 328 326 328
341 342 343 343 344 345 345 346 346 346 347 348 347 345 342 343 344 344 346 347 343 331 331 325 321 322 323 322 320 320 320 328 333 332 334 330 331 330 329 329 329 327 326
343 342 343 343 344 344 344 345 346 346 346 347 348 346 343 340 344 342 345 347 345 340 341 342 342 336 325 323 324 323 323 322 326 332 333 331 329 330 330 330 329 327 327
343 343 343 343 343 344 344 345 345 346 346 347 348 348 340 340 342 341 342 347 346 342 343 343 344 344 342 332 324 326 327 327 328 329 333 333 329 330 330 332 332 329 327
343 343 342 343 343 344 344 344 345 346 346 346 347 348 345 339 341 341 341 347 346 346 345 345 346 345 345 343 331 327 328 330 332 333 335 333 333 328 327 332 330 330 327
341 341 342 343 343 343 343 343 344 345 346 346 347 348 348 339 338 340 341 345 347 347 347 347 347 347 346 345 344 340 328 328 332 335 336 335 333 330 328 331 331 330 329
341 341 342 343 343 343 344 344 343 344 345 345 346 347 348 346 336 338 339 340 345 346 347 349 349 349 349 347 346 344 337 331 330 333 335 333 333 333 332 329 329 327 328
341 341 342 343 342 343 345 345 344 344 344 345 346 346 347 346 340 337 338 341 341 344 346 347 349 350 349 349 347 346 341 338 332 331 332 333 331 332 331 329 327 327 328
340 341 342 342 343 344 345 345 345 345 344 344 346 346 345 344 342 342 340 340 342 342 344 346 348 348 349 348 347 346 343 341 334 332 334 333 332 332 331 328 327 327 327
341 341 342 342 343 343 343 345 346 347 345 345 345 346 346 344 343 343 344 342 344 345 345 344 347 349 352 352 348 346 345 341 335 333 335 333 331 330 330 328 327 324 322
341 342 343 343 344 346 348 350 350 350 352 346 346 345 346 346 346 345 346 348 344 343 345 344 346 349 354 350 347 345 341 338 335 335 333 330 329 329 328 320 316 318 320
339 340 341 342 344 346 348 347 340 351 354 354 354 350 346 347 347 347 347 347 349 346 341 344 347 353 353 349 344 338 335 336 336 334 330 328 328 327 320 318 317 316 316
341 342 343 344 345 347 349 350 351 353 353 352 356 355 354 352 348 349 349 350 351 349 348 348 351 352 350 344 337 335 336 335 335 332 329 328 327 323 319 318 317 317 317
339 340 342 345 347 349 352 355 353 352 340 334 354 356 355 352 352 351 352 351 351 348 352 351 351 347 341 336 335 336 335 334 333 331 329 328 325 320 319 318 318 318 318
343 346 345 344 345 348 349 350 352 350 344 341 351 351 356 352 352 354 355 353 352 350 350 349 344 337 335 336 336 335 333 330 328 328 328 327 321 320 320 319 318 319 315
332 332 334 341 350 353 351 349 352 353 351 352 350 355 353 346 352 350 354 345 335 331 338 341 337 336 337 337 334 332 329 327 327 326 325 322 320 320 321 319 318 315 313
334 333 338 337 349 354 350 351 354 356 355 356 347 345 349 354 351 349 347 337 334 336 339 336 337 336 337 334 330 328 328 328 326 322 322 322 322 321 319 317 314 312 309
334 334 334 348 349 349 349 352 354 355 357 356 356 354 355 349 342 336 333 331 333 332 330 336 337 337 337 331 328 329 328 324 322 323 321 318 317 316 315 313 312 309 308
338 338 340 341 344 346 347 347 348 353 353 352 346 344 342 341 336 334 334 333 330 329 336 337 339 338 336 330 328 326 323 321 321 318 317 316 315 314 313 311 308 306 305
330 330 334 336 334 337 337 335 333 333 337 345 338 336 334 334 333 332 331 331 332 334 337 339 337 336 334 330 325 322 321 320 318 317 316 314 312 310 310 308 307 306 306
333 334 333 332 331 329 329 330 331 330 332 331 329 332 332 332 333 333 337 338 337 337 336 333 332 331 328 325 323 320 320 319 317 316 314 312 311 307 307 307 306 306 305
336 335 334 332 331 331 332 330 330 330 331 331 331 331 331 338 338 339 337 337 335 332 326 323 322 322 322 321 320 319 319 317 316 315 313 312 311 307 307 306 306 306 305
336 336 336 335 334 333 329 331 333 333 333 331 333 334 334 334 335 336 334 328 324 321 320 320 320 321 320 319 319 319 317 317 316 315 313 312 311 308 306 306 306 305 304
333 333 334 334 336 336 336 336 336 335 336 336 336 336 336 335 334 328 323 321 321 320 321 320 319 319 320 320 318 317 317 316 316 314 313 311 309 307 306 305 304 302 303
331 330 331 331 332 332 331 331 331 330 332 335 334 333 332 329 327 326 324 322 321 320 320 319 319 318 318 318 318 317 316 316 315 314 312 308 307 304 304 303 302 302 302
328 329 330 331 329 329 329 330 330 330 330 331 330 330 328 330 330 330 328 324 323 322 321 319 319 319 319 318 318 317 316 315 314 313 309 304 304 304 303 302 301 301 302

GFSGL_850_thetae_030.txt.gz
Theta_e
340 340 343 344 345 345 345 346 347 347 348 347 348 345 348 349 341 342 346 351 344 341 335 332 323 325 335 335 336 336 336 335 334 334 335 334 330 329 334 331 333 333 332
343 339 339 340 341 343 344 345 345 347 347 347 348 348 345 351 347 343 344 349 345 345 341 335 326 324 324 329 336 334 335 335 333 335 335 337 334 334 331 330 333 333 333
353 347 342 339 340 341 341 342 344 345 346 346 347 348 347 346 347 341 343 344 344 344 345 338 331 328 323 332 326 334 335 335 335 334 334 337 336 336 336 333 336 335 334
354 355 349 342 340 340 341 341 342 343 345 346 346 347 348 347 345 342 340 342 342 344 345 345 340 341 341 340 335 326 328 333 335 335 334 334 336 336 335 333 335 335 333
352 355 353 344 343 342 341 342 342 343 344 345 346 346 347 348 351 340 337 339 341 341 344 345 343 343 343 344 343 343 335 332 334 335 336 335 335 335 336 335 333 330 333
351 350 352 349 345 343 343 342 343 343 344 344 345 346 346 347 350 346 336 337 338 339 341 346 346 345 345 345 346 344 343 338 337 336 337 336 337 337 337 335 334 334 331
347 350 350 350 345 343 345 346 344 344 345 344 344 345 346 346 347 345 338 337 338 338 338 347 348 349 346 347 347 347 343 343 340 337 337 336 337 338 336 336 336 335 334
346 345 346 348 347 349 349 346 344 345 346 346 344 345 346 346 346 346 346 341 339 341 342 343 346 347 349 347 349 349 348 346 344 338 334 338 337 338 333 334 335 333 332
344 342 341 343 352 356 349 343 346 350 351 355 356 353 347 346 346 346 347 348 344 341 342 343 346 346 350 348 349 350 348 348 345 343 337 333 334 334 334 335 335 333 332
341 341 343 341 344 346 344 349 351 356 356 357 356 355 354 349 349 348 347 347 349 348 347 347 342 342 345 346 348 350 349 347 346 344 340 332 333 334 333 332 333 332 330
352 352 346 342 341 343 343 344 346 349 356 355 355 351 352 354 349 350 348 347 348 350 349 352 351 345 344 344 348 350 350 348 346 343 341 335 335 334 331 331 331 327 324
348 349 349 348 347 355 348 347 348 349 349 349 349 351 345 346 347 346 346 346 347 350 351 348 351 345 340 343 348 350 349 346 344 341 341 338 337 335 334 330 323 319 322
347 346 347 347 346 347 351 354 358 357 356 356 355 358 355 347 345 345 346 348 349 350 353 352 350 345 342 347 350 351 348 345 342 340 338 337 335 333 329 325 319 318 318
340 341 344 356 357 359 358 360 358 358 358 356 355 356 354 354 349 347 349 351 352 351 352 353 351 348 348 351 351 347 343 339 338 338 337 335 333 329 326 324 323 322 321
354 357 358 358 358 360 359 359 359 358 359 359 358 358 358 357 354 349 350 349 349 351 351 351 349 350 349 347 345 342 338 337 335 336 335 333 330 328 325 324 323 322 321
353 353 353 353 355 357 358 359 358 358 359 356 357 356 353 352 354 354 352 353 352 352 350 348 348 346 339 341 342 337 336 336 336 336 334 331 329 326 324 324 323 322 319
337 339 346 347 348 349 352 356 357 360 353 353 352 352 350 347 352 353 354 354 354 354 347 341 338 333 334 336 338 335 335 335 334 332 331 329 326 325 324 324 322 319 317
337 336 343 342 347 350 353 354 356 353 355 351 354 355 355 355 354 356 356 354 353 349 335 335 335 336 334 336 336 335 334 332 331 330 329 326 325 325 325 322 319 317 315
339 341 341 340 337 339 343 345 347 348 348 350 351 351 355 355 357 356 352 352 350 340 336 335 336 335 335 336 336 335 333 330 329 328 326 326 325 323 321 318 317 314 312
337 334 337 339 336 337 337 338 340 342 342 337 334 331 335 331 329 352 349 347 338 334 335 337 337 335 334 335 335 333 331 330 328 327 325 324 322 320 318 316 314 312 309
339 340 336 338 338 336 334 334 336 336 334 332 331 331 330 327 328 328 335 335 335 336 337 336 335 333 336 335 333 330 329 327 326 325 322 321 319 317 315 314 312 310 309
340 338 338 337 337 335 336 335 335 334 333 329 327 329 330 329 328 332 333 333 333 333 334 334 334 335 334 333 332 329 326 325 323 321 320 318 317 315 313 311 310 310 309
337 336 336 337 338 335 334 333 333 332 332 331 331 330 331 331 331 331 332 333 333 331 332 334 336 333 332 331 329 325 323 321 320 319 318 317 315 314 312 311 310 309 309
338 339 337 335 334 334 334 334 334 334 332 331 332 331 332 333 332 333 333 334 335 335 334 332 330 328 327 326 324 322 321 320 320 318 317 316 314 313 312 310 309 309 308
330 331 333 336 336 333 331 330 330 331 335 333 333 333 332 331 331 330 329 329 328 328 328 327 325 324 322 322 322 321 320 319 318 317 316 315 314 313 311 310 308 308 306
322 323 324 326 328 329 330 330 330 330 330 331 331 331 329 329 328 327 326 327 327 326 325 324 323 323 323 322 321 320 319 318 316 316 315 314 312 310 309 308 307 306 306

GFSGL_850_thetae_033.txt.gz
Theta_e
338 338 341 343 344 345 345 349 351 353 355 351 355 353 349 347 350 351 350 353 352 346 343 342 333 330 338 338 338 338 338 337 336 335 337 337 335 331 336 335 335 336 334
346 340 340 342 343 345 345 346 347 348 348 352 350 353 350 346 350 352 349 350 354 354 349 343 337 329 324 334 339 338 338 337 338 335 336 339 338 338 330 335 334 334 335
357 355 351 344 343 343 344 343 345 346 346 347 351 351 349 348 347 347 348 339 349 353 348 347 340 337 329 328 329 337 338 337 338 338 337 337 338 339 340 338 337 337 334
357 358 357 354 342 341 342 341 341 342 343 344 348 349 349 347 348 345 339 341 339 347 350 346 346 345 334 326 328 331 334 337 338 338 338 336 337 338 339 338 337 338 338
356 357 358 357 356 353 348 341 337 340 340 341 343 346 347 348 353 349 345 342 337 339 349 348 348 350 346 333 338 339 340 335 336 338 339 339 337 337 338 338 337 336 336
355 356 358 359 359 359 356 348 342 339 339 338 340 343 345 351 354 354 352 348 345 342 346 351 344 350 350 344 339 343 344 344 344 344 341 339 339 338 339 338 338 336 336
353 356 356 358 360 360 359 357 348 342 343 341 341 343 344 345 346 349 352 353 350 346 345 348 349 351 350 350 343 342 345 345 345 345 344 341 340 340 339 338 338 336 337
353 354 356 357 359 360 359 359 358 355 352 349 346 346 344 343 344 345 347 350 352 350 346 347 351 347 350 349 346 344 345 346 347 347 344 342 341 339 339 338 334 337 336
351 353 353 358 359 360 352 351 355 358 357 352 352 351 348 345 345 344 346 347 350 350 349 352 354 351 348 347 349 347 345 347 348 349 346 344 343 340 338 337 338 337 336
342 350 354 357 359 359 352 351 355 357 351 357 356 353 350 346 344 343 344 347 349 350 349 351 353 352 351 345 348 350 348 346 349 348 347 345 341 341 336 332 336 336 335
354 354 356 355 358 357 355 350 351 356 360 358 357 355 352 346 344 343 343 344 346 348 351 353 351 350 349 349 346 347 346 348 348 349 348 343 341 339 335 332 333 335 335
350 354 356 358 359 360 356 356 360 361 361 358 359 356 355 350 346 347 345 343 344 347 352 353 355 355 353 352 352 352 350 348 350 349 347 344 341 339 337 337 333 332 331
351 353 356 358 358 357 360 360 362 361 362 361 361 362 359 358 361 358 353 352 351 347 347 354 355 354 354 353 352 353 352 349 349 348 346 343 341 339 338 335 334 330 326
355 355 357 360 360 361 360 363 362 362 362 360 361 361 360 362 360 361 361 361 358 357 356 352 354 355 353 353 353 351 351 349 348 346 345 343 340 339 336 334 331 329 321
359 360 360 360 360 362 362 360 362 361 361 361 361 360 360 359 358 359 361 362 360 359 358 356 353 354 354 353 351 346 347 347 345 343 340 338 338 336 333 330 329 325 325
361 361 359 358 360 361 361 363 360 360 361 360 358 360 361 361 359 359 360 359 360 358 354 356 354 353 354 353 351 346 345 341 339 340 339 338 337 334 331 329 326 324 325
355 354 354 352 352 353 356 358 357 358 359 357 357 359 359 359 358 359 355 356 357 356 356 354 354 352 353 353 347 341 339 336 335 338 338 337 335 332 330 327 326 326 325
339 338 348 349 350 352 353 354 355 355 356 359 359 357 355 353 356 358 357 357 356 357 354 353 353 351 350 350 347 343 338 338 339 338 337 336 333 331 328 326 326 325 323
346 345 344 344 342 342 340 339 341 344 345 346 346 347 347 346 346 348 349 351 354 355 355 354 348 346 345 344 343 340 339 338 337 336 335 333 331 329 327 326 326 324 321
339 339 343 342 340 340 340 342 341 339 338 337 336 334 334 334 334 333 338 346 343 341 350 350 344 344 344 340 339 337 337 337 335 335 333 331 329 327 327 326 323 320 318
342 342 340 340 339 339 339 339 338 338 338 336 334 330 330 330 331 330 329 331 337 337 339 342 341 343 337 334 337 337 336 335 333 332 330 328 327 327 324 322 320 318 316
340 340 340 340 338 337 338 337 338 337 336 334 334 332 331 329 331 333 332 332 332 335 333 336 336 336 337 336 336 336 335 333 332 330 328 327 325 323 321 319 317 315 314
338 339 340 340 339 337 337 337 334 333 332 331 332 331 331 331 332 332 332 333 334 334 337 336 337 337 336 335 335 334 332 330 329 328 325 323 321 320 319 317 315 314 313
338 338 337 337 336 337 337 336 331 333 332 333 332 333 333 333 332 332 332 332 333 333 334 336 334 334 336 334 333 331 330 328 326 323 322 321 320 318 317 315 314 313 312
330 333 333 334 335 331 329 330 329 331 333 333 332 333 332 332 332 331 332 334 334 333 332 334 334 333 333 331 331 327 324 322 322 322 321 319 318 317 316 315 314 312 311
325 325 327 328 328 328 328 328 328 329 329 330 330 329 330 329 329 330 330 330 331 331 331 330 330 329 329 327 325 323 322 321 321 320 319 318 317 316 315 314 313 312 311

GFSGL_850_thetae_036.txt.gz
Theta_e
347 337 335 336 334 333 338 345 350 353 357 349 356 352 350 350 347 350 349 348 348 350 345 334 329 327 328 338 339 338 338 337 336 333 336 337 337 336 335 333 335 333 334
351 349 342 338 334 334 337 340 346 351 351 357 351 357 353 352 345 346 345 343 352 351 349 342 334 330 329 330 338 338 338 338 338 337 336 339 339 338 338 335 329 332 336
359 355 351 341 338 337 338 340 343 345 348 349 353 352 354 352 350 344 341 339 340 352 351 349 341 338 332 327 327 335 338 338 338 338 337 335 337 337 339 338 337 334 332
359 360 357 353 346 340 340 340 340 342 343 345 347 350 353 352 350 349 347 344 342 344 355 352 345 341 337 334 330 325 330 337 337 336 334 336 336 338 338 338 338 336 337
357 359 359 357 355 352 352 347 345 342 340 341 343 347 352 354 350 349 349 349 347 340 340 353 351 342 340 336 337 332 325 329 338 337 337 338 338 337 338 337 339 337 336
357 357 359 358 358 359 357 356 354 351 347 346 345 343 345 347 345 344 345 350 351 349 345 341 345 345 344 340 338 338 333 334 337 335 336 339 339 340 338 338 338 338 337
356 357 358 359 358 359 359 359 359 355 353 350 347 342 339 340 341 342 343 346 349 351 349 347 346 345 348 347 348 345 345 340 341 342 343 344 342 340 339 339 339 338 337
356 357 358 359 359 359 359 359 359 359 356 353 353 347 342 336 337 340 342 344 346 347 348 347 347 347 349 347 346 349 345 344 341 342 344 345 345 344 341 340 339 339 338
354 354 355 358 359 360 360 359 361 361 360 357 354 353 345 342 340 339 341 345 349 348 349 350 350 349 348 349 351 349 348 342 344 344 344 345 346 346 343 340 340 339 336
344 344 352 356 356 359 360 362 362 361 360 361 358 355 353 347 345 345 349 353 350 349 353 353 352 351 350 349 353 353 352 349 345 343 345 346 346 342 343 342 341 336 336
343 347 347 348 351 357 360 364 365 364 365 364 363 362 357 349 347 349 350 356 352 350 350 354 353 351 350 354 354 352 350 347 345 346 346 347 347 346 344 342 339 336 335
344 349 351 351 354 357 362 363 366 365 365 363 363 362 356 352 354 356 357 359 359 362 359 357 357 356 355 355 356 356 353 353 352 350 349 348 348 347 346 342 337 335 334
344 348 351 354 357 359 362 364 365 364 363 363 363 363 363 362 364 364 363 363 362 362 362 360 359 358 357 357 356 356 356 357 356 354 352 348 348 347 344 341 339 336 334
352 355 354 356 358 360 358 364 363 364 363 364 366 366 364 365 366 365 364 365 365 364 362 360 360 358 357 357 357 357 357 356 355 354 353 349 348 345 341 340 338 336 333
350 358 360 360 362 363 363 361 366 363 364 365 365 363 362 364 365 362 363 364 362 361 363 362 361 360 357 356 356 357 357 356 357 354 352 349 347 343 338 338 337 335 332
360 361 361 362 362 362 365 362 360 363 364 362 362 362 362 362 361 361 361 361 360 361 362 362 361 361 359 357 356 355 354 355 354 352 349 347 344 336 335 337 336 335 333
362 362 361 360 361 361 360 364 364 361 359 360 361 361 360 359 358 358 358 359 359 359 358 358 359 360 359 358 356 355 353 352 352 351 350 342 331 333 337 336 334 330 329
356 355 351 352 352 354 357 358 357 358 359 360 359 359 358 358 358 358 357 356 354 354 356 358 357 355 355 356 353 352 350 350 347 349 346 338 335 337 337 334 330 330 326
347 347 347 346 349 350 350 352 351 351 350 349 348 346 347 342 338 336 336 338 338 338 345 347 350 354 353 353 352 351 350 349 347 346 340 340 338 338 335 332 330 327 326
343 345 344 342 342 342 342 343 343 341 341 340 337 333 331 330 331 331 332 332 332 336 337 337 340 342 345 347 347 347 346 345 345 342 339 337 337 335 333 331 329 327 327
341 342 342 340 341 341 341 341 340 340 339 338 337 335 332 331 333 334 334 333 333 333 334 334 339 338 337 340 343 343 343 342 341 340 338 338 336 334 330 330 327 326 326
343 342 342 339 338 339 339 338 338 337 335 334 335 333 332 334 334 334 333 333 333 334 335 334 334 336 336 335 338 340 341 339 338 338 338 335 333 331 329 327 327 325 321
340 341 341 340 338 338 336 333 332 332 333 335 334 334 333 332 333 333 333 333 333 334 334 337 336 336 335 336 337 337 336 336 337 336 334 332 330 329 327 326 323 321 319
337 337 337 336 336 335 335 331 332 332 332 331 332 332 333 332 331 332 333 333 334 334 333 336 336 337 336 336 336 336 336 335 334 333 331 329 328 327 325 322 321 318 316
331 332 332 331 331 329 329 329 329 329 330 330 330 331 331 332 331 331 332 332 331 333 332 334 333 334 334 334 333 334 332 332 331 331 328 327 325 323 321 320 318 316 314
325 326 326 326 327 324 325 326 325 325 325 326 327 328 328 329 329 329 329 330 331 331 331 331 331 332 333 332 331 329 330 329 329 327 323 322 321 319 318 317 316 314 314

GFSGL_850_thetae_039.txt.gz
Theta_e
349 347 345 339 337 339 339 337 343 347 347 349 353 353 350 349 349 349 345 343 343 343 343 341 333 325 338 338 340 339 337 335 333 333 335 338 337 335 336 335 335 335 333
347 347 349 346 340 338 338 335 336 340 347 348 349 350 355 352 350 350 344 340 344 342 338 343 340 333 328 328 335 336 337 335 335 333 334 335 337 337 336 336 337 336 330
348 348 347 348 347 340 337 335 333 334 338 348 354 353 352 354 354 352 351 338 335 336 338 343 342 345 336 329 329 334 336 336 334 336 335 336 338 337 337 338 338 337 334
349 349 348 346 347 343 335 333 333 332 334 339 348 355 353 351 352 354 352 349 343 337 337 333 335 341 337 335 331 329 334 337 336 334 333 335 336 337 337 338 338 337 336
351 351 350 349 346 342 339 334 332 333 336 338 340 344 349 352 352 351 350 350 349 347 344 338 336 334 334 334 337 334 332 331 333 332 333 334 334 335 335 337 338 337 337
353 353 353 354 353 352 343 339 335 333 336 339 340 341 343 345 347 348 348 348 347 347 345 345 343 338 336 337 337 337 338 337 331 328 327 331 335 337 339 338 337 338 338
354 354 354 355 355 355 354 353 345 339 339 339 342 342 342 343 345 347 347 347 346 344 344 342 341 343 343 341 339 341 343 341 340 339 328 330 336 338 339 339 338 339 338
356 356 356 356 356 356 356 356 356 354 350 348 347 345 343 342 342 344 347 349 349 347 345 344 343 342 342 343 344 345 348 348 346 345 341 333 336 340 341 341 339 339 338
355 357 356 357 357 357 357 357 357 358 357 356 355 353 351 347 345 343 348 351 353 351 350 349 347 345 345 346 349 349 348 348 347 347 347 345 341 342 343 343 342 340 339
354 353 356 357 357 357 358 358 358 358 358 358 358 357 355 353 353 354 355 355 354 353 356 356 354 352 353 352 353 352 352 349 348 347 349 349 346 343 343 344 344 342 341
349 353 355 354 355 356 358 359 360 359 360 360 359 359 359 357 359 361 361 360 358 358 358 356 357 357 358 359 358 358 355 353 352 352 350 349 350 348 345 344 343 343 342
344 346 343 343 345 351 355 358 360 362 362 362 362 362 362 362 362 363 364 364 363 363 361 361 360 359 358 357 357 357 358 359 357 356 354 352 351 350 347 345 345 344 341
347 349 349 349 349 350 350 354 360 363 365 365 365 365 364 364 363 363 364 364 364 363 361 360 359 359 360 359 357 357 357 358 359 357 355 354 354 352 349 347 343 340 339
346 343 341 346 353 355 356 358 360 363 364 366 366 364 363 363 362 361 361 361 363 364 365 365 364 363 362 360 360 358 357 358 358 359 357 355 353 352 352 349 345 342 339
342 348 352 354 353 354 356 359 361 363 363 362 361 361 360 361 362 364 364 365 366 366 366 365 364 363 363 363 362 361 359 358 358 358 357 356 354 353 352 348 343 340 335
359 354 354 356 357 357 359 361 362 363 365 363 362 363 366 364 364 364 363 362 361 360 359 359 359 359 361 362 362 359 357 357 358 357 355 354 353 350 349 346 339 333 333
361 360 362 362 361 357 360 361 362 361 361 362 365 365 364 362 361 360 360 359 359 358 358 358 357 355 355 357 358 358 356 356 355 354 353 353 352 348 348 342 334 334 335
359 360 362 361 360 361 363 364 366 365 362 359 360 360 359 360 359 359 358 358 357 355 352 346 343 345 350 353 355 353 354 353 353 353 352 352 349 346 347 337 332 333 335
350 350 352 355 355 360 360 359 359 360 358 356 355 353 352 350 346 343 339 336 332 331 331 334 335 336 337 337 342 346 346 349 351 349 348 350 346 345 341 335 333 334 335
345 345 344 343 345 343 342 343 341 340 340 339 337 334 332 331 330 330 331 331 333 334 333 331 332 333 336 339 337 336 339 339 341 347 348 345 342 336 335 335 333 335 331
344 343 342 341 341 340 340 340 340 340 339 337 335 333 332 332 332 332 331 331 332 332 332 333 334 333 334 335 334 340 340 340 341 340 343 339 336 337 337 335 335 334 331
341 341 340 340 339 340 339 339 339 338 335 334 333 333 332 333 333 333 333 333 333 333 333 333 335 335 336 335 336 336 340 340 340 337 338 335 330 335 336 334 331 328 329
341 339 338 338 338 338 337 336 334 332 333 333 332 332 333 333 332 332 331 331 333 333 333 334 336 335 336 336 336 336 336 336 337 337 337 337 336 335 334 333 331 329 327
340 339 338 337 337 335 331 332 330 330 329 329 330 331 332 331 331 331 331 331 332 333 333 334 333 334 335 335 337 335 335 335 334 335 334 333 333 334 332 330 328 327 326
332 333 332 332 332 329 328 327 327 327 327 328 328 329 329 328 328 329 330 330 330 332 333 333 333 333 333 334 334 334 333 332 332 333 333 333 332 331 330 327 324 322 322
326 325 324 323 325 324 323 323 322 323 323 323 324 326 327 327 327 327 327 327 328 330 330 331 331 331 332 333 331 329 331 332 332 331 330 329 328 328 326 323 322 320 318

GFSGL_850_thetae_042.txt.gz
Theta_e
346 346 346 347 347 345 344 340 342 341 344 346 347 348 350 350 350 349 348 346 341 341 342 340 328 327 329 331 334 337 337 335 334 333 336 337 337 337 336 335 335 335 335
345 345 346 347 348 347 343 341 339 341 342 346 346 349 352 353 351 349 349 348 346 340 338 338 339 337 328 326 332 334 336 338 337 334 333 333 334 337 337 335 336 336 337
346 347 347 347 348 347 343 339 338 338 341 344 350 347 349 350 352 351 350 349 349 339 335 336 330 334 339 335 327 330 333 336 337 336 334 335 334 333 337 336 336 336 337
348 347 347 347 346 344 342 338 335 334 337 338 341 346 346 348 349 350 352 351 349 347 339 334 334 333 333 337 340 336 329 330 333 337 336 336 335 336 337 337 337 337 337
348 348 347 345 344 344 340 339 337 335 334 335 336 339 345 348 350 350 350 348 348 346 346 345 342 337 332 331 333 336 342 339 332 333 337 337 336 336 336 336 336 335 336
349 349 349 348 346 345 343 338 336 336 334 334 334 333 337 343 349 350 349 350 349 349 348 346 346 346 345 342 338 336 335 338 342 339 333 335 333 333 333 335 336 335 337
350 350 350 350 349 349 348 348 345 339 335 333 332 332 334 335 337 340 344 347 349 348 348 348 348 346 344 343 341 341 342 338 337 337 339 340 338 335 330 328 335 336 339
350 351 351 351 352 352 353 353 351 351 347 339 335 333 333 335 337 339 341 344 347 348 347 347 348 346 344 344 344 343 342 341 341 342 341 337 338 339 340 334 330 335 339
351 351 352 352 352 353 354 355 355 355 355 354 354 351 347 344 343 345 348 350 351 352 352 351 348 347 347 348 350 350 349 347 347 346 345 345 346 345 345 345 334 336 338
353 352 353 353 353 353 353 354 354 355 355 356 356 356 356 356 356 356 357 358 357 357 356 354 354 353 355 356 356 356 355 349 354 353 352 351 350 350 350 350 347 338 337
353 353 353 353 354 355 355 356 356 356 356 357 357 357 357 358 358 359 360 360 360 361 360 359 359 358 358 358 359 359 357 356 356 357 357 357 356 355 353 352 350 346 341
355 354 353 353 353 356 357 357 357 358 358 358 359 359 359 360 361 361 362 362 362 363 362 361 361 361 360 359 359 359 358 358 357 358 358 357 354 354 355 355 352 350 346
353 357 356 354 355 356 356 356 357 358 360 360 360 360 361 361 362 363 363 363 363 363 360 360 360 360 360 361 360 359 359 359 358 358 358 358 358 357 355 353 354 351 348
342 341 349 351 352 353 353 351 352 354 357 361 362 363 362 362 363 361 360 360 362 363 363 363 363 364 365 364 363 363 363 363 362 361 359 358 357 358 357 356 354 351 348
347 340 339 338 340 341 349 354 354 355 355 357 359 360 362 361 360 362 360 361 363 362 363 364 363 362 361 361 362 362 362 361 362 362 361 360 358 356 356 354 353 352 344
357 357 351 343 347 354 355 358 359 359 360 361 360 361 361 361 361 360 360 362 362 361 360 359 358 357 356 356 355 355 355 356 355 356 356 356 356 355 355 354 350 346 345
348 358 359 356 358 357 358 359 358 359 361 363 363 361 362 361 364 363 361 360 360 360 359 358 357 354 350 345 342 344 349 349 352 352 347 354 353 350 353 353 348 343 342
351 356 358 361 364 364 360 357 359 361 361 361 359 360 363 365 363 361 360 358 356 354 352 349 343 335 332 333 336 338 338 336 336 338 340 345 344 350 347 349 345 342 340
349 350 351 355 360 360 361 362 365 363 362 359 357 356 356 356 355 354 350 341 336 333 332 332 332 332 333 333 336 335 333 335 338 339 340 339 340 341 344 344 344 340 337
345 347 348 350 355 357 359 362 363 361 354 348 342 338 337 335 333 332 331 331 331 331 332 332 332 332 334 333 332 332 333 338 338 337 338 340 341 343 338 337 334 331 329
343 342 342 343 344 343 345 344 343 340 338 336 334 332 332 332 332 332 332 331 330 330 331 332 333 334 335 335 334 334 336 337 338 338 338 337 341 340 336 333 334 333 332
342 341 341 340 340 340 340 339 338 337 336 333 332 332 332 333 333 333 333 333 333 333 333 333 334 335 333 335 335 335 336 336 336 338 337 335 334 333 332 331 331 332 332
343 340 340 340 339 338 338 337 335 334 333 333 332 332 332 332 332 332 331 330 331 333 333 333 333 333 334 333 335 337 336 336 336 336 336 336 334 335 334 331 329 326 325
341 340 340 338 338 336 334 332 331 330 329 330 330 331 330 330 330 330 331 330 330 332 332 334 333 333 333 335 335 336 334 335 334 335 332 328 332 331 328 327 327 325 326
338 337 336 335 333 331 329 328 328 328 328 328 327 327 328 328 328 327 327 328 330 330 331 331 330 331 332 334 335 332 332 332 332 332 333 333 333 333 333 332 331 329 328
332 332 330 329 331 329 327 326 325 325 325 325 324 325 324 324 324 324 324 324 324 325 327 329 329 330 330 330 331 329 331 332 331 331 331 330 330 330 330 328 327 327 327

GFSGL_850_thetae_045.txt.gz
Theta_e
348 347 346 346 346 346 344 341 339 339 342 343 343 345 346 346 348 349 346 346 344 340 341 338 330 333 335 336 337 338 337 337 336 332 333 334 336 337 337 336 336 335 335
347 347 346 346 346 346 345 343 340 339 341 341 344 344 346 347 349 349 349 348 347 346 342 340 338 336 327 328 333 334 334 335 336 334 334 334 333 333 333 336 337 336 335
347 347 347 347 346 346 345 345 342 340 341 343 342 344 344 346 348 350 351 350 349 348 347 344 337 337 336 334 330 328 328 334 337 337 335 335 335 335 334 333 333 336 336
347 347 347 347 346 345 345 346 344 339 339 339 342 341 344 345 346 350 351 351 350 349 348 348 341 335 333 332 332 335 338 335 330 333 332 330 333 334 335 335 334 334 336
347 347 347 346 345 345 345 345 344 340 336 336 337 339 339 346 347 346 347 348 348 348 347 345 344 342 339 337 334 332 332 334 339 342 339 335 331 330 331 330 333 332 334
347 347 347 346 346 344 344 345 343 339 337 334 334 334 336 337 339 343 345 347 346 346 344 343 343 344 344 344 344 344 343 340 337 337 338 341 337 336 333 331 332 335 336
348 348 348 347 347 346 343 343 343 341 337 336 334 333 332 333 332 333 336 342 345 345 344 344 345 345 345 346 347 348 348 347 345 344 343 341 338 336 337 338 337 335 334
348 348 348 348 348 349 348 347 345 345 344 340 336 334 334 332 332 332 332 335 340 341 342 343 344 344 345 346 348 349 348 347 348 348 347 344 344 344 344 343 342 346 344
349 349 349 349 349 349 349 349 349 349 349 349 347 346 342 337 334 333 334 336 337 339 340 343 344 345 347 350 352 352 350 345 347 348 347 349 350 351 351 352 352 351 349
349 349 349 349 350 350 351 351 351 352 353 354 354 353 353 354 354 354 351 348 348 349 350 352 353 354 355 356 357 357 357 355 357 356 355 355 356 356 356 355 354 349 351
350 350 350 350 350 350 351 352 352 353 353 354 355 355 355 356 356 357 357 358 358 358 358 358 358 359 359 360 360 358 358 358 356 356 356 356 355 355 355 354 354 354 351
353 353 353 353 352 352 353 353 354 354 355 355 356 356 356 357 358 358 359 359 359 360 360 361 360 358 358 358 358 358 358 358 359 359 358 357 357 357 354 353 353 353 354
354 355 355 355 355 355 355 355 355 355 356 356 357 357 358 358 359 359 360 360 361 362 361 360 361 362 361 362 360 359 360 362 362 360 360 359 358 357 359 359 359 357 357
347 353 355 357 357 357 357 357 357 358 357 357 356 356 357 357 359 360 361 361 360 360 360 359 361 361 362 360 361 361 361 362 361 361 361 358 357 359 358 358 357 357 357
343 342 343 347 352 354 356 356 356 355 356 356 354 354 355 357 358 361 362 363 363 361 361 363 360 360 360 360 360 358 357 356 355 354 352 353 351 348 347 349 353 352 350
349 345 342 341 342 344 349 349 348 349 352 356 357 357 359 361 361 363 363 361 359 361 362 359 358 357 357 356 357 355 351 345 343 340 342 343 341 339 344 346 346 347 350
342 345 348 347 349 351 349 351 353 352 355 359 359 360 360 358 361 361 360 362 364 363 361 357 355 355 355 350 343 335 334 336 336 333 335 337 337 337 338 341 344 348 345
342 344 346 348 355 356 358 359 358 358 360 358 359 361 361 359 361 361 362 361 358 356 354 349 345 341 335 332 332 333 333 333 333 334 336 336 336 337 338 340 341 342 341
346 349 350 351 353 359 359 360 361 359 357 355 355 357 357 355 358 357 356 353 347 342 338 334 332 332 332 332 333 333 332 332 333 336 335 336 336 337 340 342 340 339 340
345 345 346 348 349 352 355 356 357 360 358 356 353 349 348 347 346 345 343 338 334 332 331 331 331 331 332 333 334 333 332 333 335 333 334 336 336 338 337 335 333 334 333
342 343 344 344 345 349 352 358 360 357 349 347 345 342 338 336 334 332 332 331 331 330 330 331 332 332 334 333 334 334 334 334 335 335 334 336 333 334 332 331 331 332 331
343 342 342 342 342 344 349 353 350 346 342 340 336 334 333 332 332 332 332 332 332 333 333 333 333 334 333 333 333 334 334 334 334 334 334 336 335 332 332 330 331 331 331
342 342 341 341 341 340 341 340 339 337 335 333 332 332 332 332 332 331 330 330 331 332 332 332 332 332 332 333 336 335 334 334 333 334 330 332 334 334 334 333 331 331 331
341 341 341 340 340 339 339 338 337 335 333 332 331 330 329 329 330 330 330 330 330 330 330 331 331 330 330 331 332 332 332 332 332 333 333 331 332 330 326 325 326 326 327
340 339 339 339 338 337 335 334 332 330 328 329 328 327 328 327 326 326 326 326 327 328 328 328 329 329 330 330 328 330 330 331 329 330 331 333 333 332 329 327 326 325 325
335 335 335 334 334 332 331 329 328 328 326 325 325 324 324 323 323 323 322 322 322 322 323 323 324 325 327 327 327 327 329 329 331 330 330 330 330 331 330 330 329 329 328

GFSGL_850_thetae_048.txt.gz
Theta_e
346 345 345 345 344 345 344 344 345 342 337 336 340 342 344 344 345 345 348 345 344 341 340 341 341 335 336 338 338 339 339 338 337 332 333 332 331 330 330 332 335 336 336
348 347 347 347 346 344 345 345 345 344 340 337 338 341 342 344 345 346 347 348 346 345 342 340 338 340 336 332 333 334 335 336 336 334 331 331 331 333 333 333 331 331 333
348 348 348 348 347 346 346 345 345 345 342 338 338 338 339 341 344 346 348 349 349 349 348 346 344 342 338 337 337 335 331 329 329 330 328 327 328 330 330 331 331 332 331
348 348 347 347 347 346 346 345 346 345 345 341 337 336 336 338 342 345 346 348 349 349 349 349 348 347 343 336 333 333 335 335 336 338 338 335 335 333 333 331 330 330 332
347 347 347 347 346 346 346 346 346 345 345 344 338 335 336 336 337 339 342 345 348 349 349 346 343 342 340 341 340 334 334 334 335 333 333 334 332 333 334 335 337 337 335
347 347 347 347 347 346 346 346 345 345 345 345 342 336 334 334 333 333 337 338 339 340 342 343 343 342 341 341 342 344 345 346 346 347 346 346 344 342 341 340 340 339 339
347 347 347 347 347 346 346 346 344 344 344 344 342 339 334 332 331 331 332 334 335 335 337 339 340 340 341 342 343 343 345 347 349 350 350 350 348 348 348 347 347 346 346
347 347 347 347 347 347 346 346 344 344 343 342 341 338 336 332 331 331 331 332 333 333 334 335 337 337 338 340 341 342 342 345 347 349 352 350 352 351 354 354 354 353 353
347 346 347 347 347 347 347 346 346 345 343 342 341 341 339 335 333 333 333 333 333 333 332 332 333 334 335 338 341 344 346 348 351 351 351 351 353 354 356 356 355 352 351
347 346 347 348 348 348 348 348 348 348 348 348 347 347 347 347 346 345 342 340 339 337 335 335 336 338 342 347 351 354 356 356 358 357 356 356 355 355 355 355 354 355 355
347 347 347 348 348 348 349 349 349 349 350 351 351 352 353 354 354 354 354 355 355 355 354 354 354 356 357 358 359 360 359 357 357 356 356 356 356 356 357 356 355 355 355
347 348 348 348 349 349 349 350 350 351 352 353 353 354 354 354 355 355 356 357 357 358 358 358 359 359 360 360 359 357 356 358 358 360 360 357 358 358 358 359 358 359 360
349 349 350 351 351 351 351 351 352 352 353 353 354 354 355 355 355 356 356 357 358 359 360 360 360 360 360 359 358 358 359 361 361 361 360 359 357 356 355 354 354 353 351
352 353 353 353 354 354 354 354 354 354 354 355 355 355 355 355 354 354 355 357 359 360 360 357 357 358 360 361 361 361 363 364 360 357 357 356 353 350 340 339 341 340 340
349 351 353 355 355 356 356 356 356 356 356 356 356 356 356 355 354 356 358 360 362 361 362 362 362 360 360 361 361 360 357 356 356 355 349 338 334 335 336 336 337 338 341
348 347 344 343 342 347 352 354 356 355 355 356 358 356 358 358 358 358 359 360 361 360 363 360 358 359 361 358 355 354 355 353 344 334 335 334 334 335 334 333 333 335 339
338 341 345 348 349 348 343 343 347 350 351 355 359 359 359 358 359 358 359 358 360 361 358 359 363 360 355 353 354 352 344 332 332 332 332 333 334 334 334 334 338 340 339
338 338 337 338 344 350 351 350 350 350 354 355 356 359 360 361 361 358 357 356 356 359 360 356 353 353 352 348 340 332 331 332 332 332 332 332 333 334 334 334 335 334 335
342 347 347 350 350 352 357 361 361 360 359 359 359 359 361 360 358 356 360 359 357 354 351 350 349 341 334 332 332 332 333 333 332 333 332 332 333 334 333 334 332 332 334
339 343 344 347 349 351 357 359 357 355 354 355 350 350 350 350 351 350 349 347 345 344 341 335 332 331 331 331 333 333 334 334 333 333 333 333 333 334 333 332 331 331 332
338 341 342 341 344 348 352 357 355 350 353 351 349 348 347 345 343 342 340 337 335 332 331 331 331 332 334 334 335 334 334 333 333 333 333 333 334 334 333 332 332 330 331
337 339 342 342 341 342 346 352 355 353 352 351 349 343 340 339 336 334 333 332 332 331 331 334 334 334 334 334 334 336 334 332 333 333 333 331 332 333 333 333 332 331 331
335 336 342 342 341 341 344 348 350 349 346 343 340 337 335 333 332 332 332 331 331 332 332 331 333 332 332 332 332 331 331 331 331 332 333 331 329 329 327 327 327 331 330
339 339 340 341 340 340 341 343 342 340 339 337 334 332 332 331 331 330 330 330 330 330 329 330 330 329 329 329 329 328 328 330 329 330 332 333 332 331 327 327 323 327 328
334 335 339 340 339 339 339 338 335 334 332 331 331 330 329 328 328 327 326 326 326 326 326 326 326 327 327 327 327 327 328 330 329 330 330 330 331 332 331 329 327 325 324
331 334 336 338 337 336 334 331 330 330 329 328 327 326 326 325 323 323 322 321 321 321 321 321 321 321 321 323 324 324 324 325 328 329 330 330 330 330 331 331 330 330 329

GFSGL_850_thetae_051.txt.gz
Theta_e
342 342 343 343 343 344 344 344 343 343 344 341 334 335 339 341 343 344 344 346 348 345 343 343 342 341 338 337 338 338 338 338 339 339 333 330 330 331 332 332 331 330 331
343 343 343 343 343 344 344 344 345 344 344 345 340 334 337 340 342 343 344 345 346 347 342 342 341 340 340 340 335 332 333 333 332 328 328 327 327 327 328 329 331 331 331
346 346 345 345 344 344 345 345 344 345 344 345 343 337 335 337 340 343 345 346 346 347 347 347 345 345 344 343 339 338 336 338 337 335 332 335 332 332 332 332 332 333 332
346 346 347 347 346 346 346 346 346 345 345 345 345 339 336 335 336 339 343 346 346 347 347 347 348 348 347 346 345 342 338 336 336 336 334 338 337 331 331 331 332 333 333
347 347 347 347 347 347 347 346 345 345 345 345 345 343 338 336 335 334 339 342 344 346 346 345 345 344 342 342 344 342 344 344 342 346 348 347 347 348 347 346 345 344 344
346 346 346 347 347 347 347 346 346 344 345 345 345 345 343 337 333 332 332 336 338 341 343 343 343 343 340 339 339 340 344 345 344 346 350 351 349 348 349 348 351 350 349
344 345 346 346 347 346 347 347 346 346 345 345 345 345 344 341 335 333 332 332 333 333 334 334 334 335 334 336 336 337 340 343 346 348 348 348 347 348 351 352 353 354 354
344 345 346 346 346 347 347 347 346 346 346 344 344 345 344 342 337 333 332 333 334 331 330 330 331 331 333 332 333 336 337 338 339 340 342 343 346 350 354 356 357 356 356
345 345 346 345 346 346 347 346 346 346 345 344 343 343 343 341 337 334 334 335 334 332 331 330 330 330 330 331 332 334 334 336 338 341 347 353 356 357 356 356 356 355 355
344 345 346 346 345 345 345 346 346 346 345 344 343 341 340 339 337 336 336 338 337 333 332 331 331 331 331 333 334 336 337 342 349 356 359 357 356 356 356 356 356 357 357
345 346 346 346 346 346 346 346 346 347 346 346 346 345 344 344 345 345 346 346 343 342 340 339 339 342 345 348 350 353 356 358 359 355 355 355 355 356 356 357 358 358 357
346 346 346 347 346 347 348 348 348 348 348 348 348 349 350 350 351 352 353 352 353 353 354 355 356 356 357 358 359 360 360 358 358 358 356 356 357 359 358 357 356 355 353
346 347 346 347 347 348 348 349 349 350 350 350 351 351 352 353 353 354 354 355 355 356 357 357 358 359 360 360 359 358 357 359 360 359 361 359 358 357 356 355 344 336 336
346 347 347 348 348 349 349 349 350 351 351 353 354 354 353 353 354 354 354 355 356 357 358 358 359 360 359 358 358 359 361 361 362 361 358 357 357 355 343 339 337 341 341
349 349 349 351 351 351 351 355 352 352 354 353 353 356 355 354 353 354 354 353 353 355 359 360 360 359 357 358 360 362 362 361 358 355 355 355 345 333 333 334 335 337 337
355 354 354 353 353 353 355 354 354 355 355 355 355 355 357 356 356 357 356 355 356 359 361 361 358 358 360 362 361 361 358 355 354 353 348 334 332 332 333 333 333 334 333
342 347 352 346 343 347 354 354 355 355 356 356 356 357 357 358 357 357 358 358 359 361 361 361 362 360 360 360 361 355 353 352 350 334 331 332 332 332 333 333 333 333 333
345 335 345 344 351 352 352 349 348 349 353 354 355 357 358 357 357 359 360 359 362 362 358 359 357 356 360 355 352 351 348 338 331 332 332 332 333 333 334 333 335 333 332
342 345 346 349 349 346 346 350 353 354 354 352 354 355 355 359 360 361 361 359 357 357 358 359 359 355 350 349 346 338 332 332 332 333 333 333 334 333 334 334 334 333 332
338 340 342 343 348 350 351 356 361 361 360 359 358 359 359 360 359 358 358 359 357 355 352 349 347 344 342 337 332 331 332 333 333 333 334 334 335 334 333 334 334 333 333
338 338 340 342 343 346 350 356 360 355 356 356 356 353 351 351 349 350 351 350 349 347 345 343 341 336 332 331 332 333 334 333 332 332 333 333 333 332 332 332 332 332 332
338 338 337 341 342 341 342 348 353 354 351 350 348 346 343 343 343 343 343 343 342 340 336 333 331 330 331 334 333 332 332 332 332 331 331 333 331 328 329 328 327 327 329
321 330 336 338 342 341 340 342 346 351 349 346 343 342 338 336 337 336 335 334 332 331 331 332 333 334 334 331 330 330 330 329 330 330 330 332 333 332 330 326 328 327 330
323 334 335 337 341 341 340 340 340 344 346 343 340 337 335 334 333 332 331 330 330 331 331 330 330 329 329 329 328 328 328 328 330 329 329 330 331 333 333 330 330 328 328
331 336 336 338 339 340 340 341 341 342 342 339 336 334 332 330 329 329 328 327 327 327 327 327 326 326 325 326 326 326 326 326 327 329 330 330 330 330 331 332 332 329 328
326 329 332 333 334 335 335 337 337 337 336 335 333 332 330 328 326 325 324 324 323 323 322 322 322 322 321 321 322 322 322 322 324 325 327 328 330 329 329 330 331 330 330

GFSGL_850_thetae_054.txt.gz
Theta_e
346 347 347 347 343 341 343 343 344 345 346 343 343 336 345 351 346 341 347 352 354 354 353 353 351 350 349 347 346 345 344 343 342 340 340 341 339 330 328 331 329 329 333
348 345 344 345 344 349 342 342 343 344 344 343 344 342 336 349 352 341 342 351 353 354 354 353 351 351 341 342 348 346 344 343 343 341 340 340 340 341 335 332 331 334 339
350 350 349 347 348 348 343 341 343 344 344 344 344 344 342 347 351 349 342 344 352 353 354 354 353 353 343 346 350 349 348 351 350 349 347 346 345 346 347 347 345 344 343
350 350 349 344 343 345 342 342 343 344 344 345 345 344 344 342 347 348 348 343 350 352 353 354 355 355 354 344 345 350 349 351 350 350 349 347 346 345 346 348 349 349 348
350 351 349 342 341 341 342 343 344 344 345 345 345 345 345 347 347 346 348 350 349 348 352 353 353 353 348 347 355 353 354 354 351 349 348 347 347 347 348 349 351 351 351
351 350 351 347 344 343 343 344 345 345 346 346 345 345 345 348 347 342 340 348 349 348 351 350 347 350 342 342 344 345 347 351 353 353 350 349 351 352 352 353 352 352 353
352 351 350 347 345 345 345 346 346 346 346 345 344 345 345 345 343 339 334 335 346 348 345 346 347 349 347 342 340 339 339 340 343 343 345 346 347 350 350 352 353 355 358
353 351 348 347 347 347 346 346 346 346 346 345 344 344 344 344 342 340 337 336 335 338 346 348 342 337 342 348 349 348 346 345 339 334 334 335 337 345 351 356 358 357 356
353 350 347 346 346 347 347 347 347 347 347 346 345 344 344 343 342 339 339 341 339 334 333 334 336 332 329 329 330 331 331 333 344 344 341 340 347 353 358 357 356 354 357
352 349 351 351 346 347 347 347 347 347 346 346 346 345 343 341 340 338 338 341 344 341 335 332 331 330 329 329 330 330 331 335 344 347 353 358 361 361 357 356 356 357 358
355 355 355 351 346 347 347 347 347 347 348 346 348 346 342 340 338 336 337 340 344 348 348 347 348 344 332 330 331 333 336 343 350 357 361 359 361 360 358 359 359 360 358
355 355 354 349 350 355 348 348 351 349 348 350 347 348 351 342 338 337 336 338 340 344 347 348 351 352 352 350 354 356 356 358 360 360 357 358 357 358 359 357 357 357 356
356 356 357 355 351 355 352 352 356 355 358 357 358 357 357 357 350 347 347 347 347 348 350 355 357 359 359 357 358 358 359 360 359 358 358 358 360 359 357 356 354 347 345
358 358 359 358 358 357 358 359 358 359 359 358 359 359 359 359 360 361 352 352 353 354 354 355 356 357 357 358 359 359 359 358 358 359 358 358 360 355 354 351 343 342 341
359 359 360 359 358 359 359 360 360 359 359 360 359 360 360 361 361 362 362 360 355 355 355 356 357 357 357 357 358 359 358 358 361 361 362 357 354 353 345 341 341 340 341
357 356 357 357 360 359 360 359 359 359 359 359 360 360 361 362 362 362 360 361 360 356 354 358 357 358 360 361 361 360 361 362 361 359 353 350 347 343 341 340 338 334 337
356 359 359 357 358 359 358 356 347 347 354 358 357 359 361 363 359 359 357 357 356 357 357 356 359 362 362 361 362 362 361 360 356 352 347 345 341 340 337 335 333 339 340
344 350 356 353 342 341 337 337 336 340 349 356 354 355 355 356 357 358 358 358 358 359 359 359 361 362 361 360 360 360 356 349 347 345 342 339 339 339 334 333 338 340 339
347 348 350 346 334 335 336 335 337 337 353 357 356 355 356 357 357 358 359 361 361 361 360 359 360 361 360 359 356 349 347 345 343 339 339 337 336 334 333 334 338 337 336
342 342 347 351 347 332 335 332 341 349 355 356 352 352 353 356 358 359 362 362 361 359 361 360 357 358 356 353 349 344 341 339 336 333 334 333 333 333 334 337 337 337 335
335 341 343 346 349 350 351 347 349 353 354 356 354 356 357 357 359 359 360 360 356 357 356 355 354 352 349 343 341 339 335 335 334 334 333 334 333 333 337 335 332 333 333
327 334 340 343 346 343 345 354 351 350 352 353 354 356 355 355 353 353 350 351 353 351 347 343 341 340 338 335 333 332 332 332 333 333 333 332 331 333 333 332 333 332 333
325 328 333 339 344 343 341 340 347 347 344 350 349 344 342 344 343 343 343 343 343 341 339 337 334 333 331 331 332 332 330 328 328 329 330 330 331 334 336 333 335 334 333
324 329 333 336 339 340 341 339 338 343 344 345 344 343 343 344 344 342 341 339 337 334 332 331 331 332 332 331 331 329 330 329 328 329 329 329 329 332 332 335 335 334 333
324 327 330 335 336 337 337 336 337 339 338 339 339 340 340 340 338 337 334 332 331 330 331 330 329 328 328 328 328 327 326 326 326 327 328 329 328 329 330 332 333 334 333
321 322 327 331 335 335 336 334 333 336 336 334 332 332 332 331 330 328 328 328 328 327 326 326 326 325 324 324 324 324 323 322 322 322 324 324 325 326 327 328 330 332 333

GFSGL_850_thetae_057.txt.gz
Theta_e
351 351 346 344 344 335 345 346 350 350 351 346 350 351 351 352 352 352 349 352 353 352 353 354 355 351 353 350 347 346 346 345 344 344 343 342 342 343 339 337 338 340 346
353 353 349 347 347 345 333 348 349 349 349 351 347 351 350 349 352 353 354 350 355 354 353 353 354 353 352 346 350 348 347 347 347 345 345 345 346 346 346 346 347 350 349
354 354 352 349 345 344 346 341 345 345 344 347 348 347 349 349 349 353 352 353 353 353 353 354 354 355 354 352 353 350 349 350 352 353 352 350 349 349 349 349 348 349 350
352 353 353 352 351 348 349 344 343 342 341 342 343 344 345 350 350 350 354 354 354 353 353 354 354 354 354 353 350 348 349 347 351 351 351 351 350 348 347 348 350 349 349
351 352 351 352 353 353 350 350 344 343 339 340 343 345 346 352 353 350 351 353 354 353 353 354 354 353 354 354 356 356 355 356 355 354 352 350 348 347 351 350 350 353 353
352 351 351 353 354 352 352 350 349 344 340 341 343 344 346 353 351 350 348 350 352 352 352 352 352 353 353 351 349 345 345 351 352 353 351 350 348 349 352 353 353 352 355
353 353 352 353 352 350 351 350 346 339 339 342 343 344 345 345 349 349 348 345 350 349 349 348 351 351 351 351 351 347 344 342 345 343 343 341 341 340 341 344 352 352 356
355 355 354 355 354 350 351 347 344 340 341 342 344 345 345 345 344 345 347 345 345 343 348 346 341 340 345 352 354 354 353 344 335 337 343 344 344 343 350 354 353 357 358
357 355 357 355 357 356 351 348 346 343 343 344 345 345 346 345 345 341 344 346 346 343 340 337 341 341 331 330 335 338 340 341 345 346 346 346 348 349 351 357 360 360 359
357 357 357 357 358 358 355 354 348 345 345 346 346 345 345 343 341 342 342 344 350 347 342 336 333 331 331 331 333 334 337 335 335 340 343 347 352 358 359 360 360 360 359
358 359 359 359 359 359 359 358 357 350 357 351 355 351 347 347 345 342 341 342 348 350 350 347 348 344 338 337 337 339 339 339 342 347 351 357 361 362 361 361 360 359 359
357 359 360 360 359 361 359 359 360 359 357 359 357 359 360 351 347 345 342 341 340 344 346 345 346 346 346 346 347 347 348 351 353 354 357 358 361 362 361 359 358 358 356
356 359 360 360 360 360 360 359 361 360 360 360 361 360 359 358 359 355 344 338 337 339 340 349 347 347 350 353 355 357 358 357 357 357 358 362 359 357 358 358 357 355 352
358 359 359 360 360 360 362 363 362 361 361 360 360 359 357 355 352 355 354 342 338 340 341 342 346 350 353 357 359 360 359 358 358 359 360 356 359 361 360 356 355 348 344
359 359 359 360 361 360 361 361 361 360 360 359 357 355 353 354 356 357 360 362 359 350 349 349 350 351 355 359 360 360 360 360 361 359 358 359 362 358 356 353 347 344 343
359 359 361 360 361 361 361 360 361 361 360 359 359 359 361 361 360 361 360 362 365 364 359 357 359 360 361 361 361 362 359 360 360 359 361 362 357 355 351 347 344 343 342
359 360 361 361 362 361 361 360 360 360 359 360 359 359 359 360 361 361 361 362 362 364 363 361 361 362 362 360 358 361 363 362 361 362 360 356 353 350 345 343 343 341 343
359 359 360 359 361 361 361 360 360 359 356 352 350 351 354 356 357 357 358 359 361 360 363 361 363 360 362 360 359 360 360 357 357 354 352 350 348 345 343 343 341 341 343
351 354 357 359 361 361 357 343 344 343 341 338 339 343 347 351 355 355 356 357 361 362 358 359 361 362 360 359 359 360 358 354 350 350 348 346 344 342 342 341 340 339 339
343 349 352 349 347 345 346 345 344 337 335 336 337 341 343 346 351 355 356 356 358 363 360 357 359 359 358 357 355 354 353 349 348 345 343 342 340 337 339 339 339 339 338
338 343 347 351 347 341 345 336 338 336 343 339 335 343 340 353 351 354 356 358 361 358 357 357 357 357 356 354 352 347 344 344 343 342 335 338 338 335 338 340 340 338 334
328 334 340 345 346 350 350 342 337 343 350 353 350 356 353 353 351 355 356 357 355 353 355 354 352 352 351 350 346 341 339 338 339 338 337 337 337 336 336 335 334 337 337
319 329 333 341 342 345 346 347 346 346 349 350 353 353 352 348 342 346 351 351 349 349 349 347 343 340 339 338 336 334 331 331 332 331 330 330 332 334 334 334 335 336 336
325 325 333 338 340 341 343 340 339 344 344 345 342 340 338 336 333 338 342 342 342 341 341 339 337 335 333 331 331 326 331 331 330 329 328 328 329 331 333 334 334 335 336
327 330 328 334 334 334 336 340 338 337 336 335 336 335 333 333 338 333 330 330 332 331 330 329 328 329 329 330 330 330 330 328 327 327 327 327 327 329 330 331 331 332 333
322 324 323 327 332 333 334 336 337 336 338 338 329 326 330 328 330 331 331 329 327 327 325 321 317 316 323 326 326 326 326 325 325 325 324 324 325 326 326 326 326 327 328

GFSGL_850_thetae_060.txt.gz
Theta_e
351 348 342 331 329 328 334 338 344 348 348 345 352 349 349 347 351 349 346 353 351 347 353 353 353 351 348 351 350 347 346 346 345 344 344 344 343 343 342 343 347 347 347
354 353 349 343 334 331 329 335 341 343 350 348 346 351 350 349 348 350 347 347 353 354 348 352 355 354 348 345 350 350 351 349 348 346 341 337 344 348 348 348 348 347 348
356 355 354 352 348 338 331 330 337 339 343 349 346 342 346 345 344 343 346 346 349 353 355 351 350 349 350 350 346 347 346 349 352 352 354 354 352 349 350 349 348 349 352
356 356 355 355 351 346 340 333 342 343 337 342 343 343 342 343 343 340 341 348 345 349 352 350 350 351 350 350 345 342 347 346 346 348 347 348 353 352 351 353 352 351 348
353 355 356 356 355 354 350 341 337 338 336 335 338 340 343 345 343 344 341 343 347 346 348 352 352 351 350 351 352 347 349 353 355 356 357 358 355 350 346 345 345 348 341
353 354 355 356 357 355 354 351 346 340 337 336 337 338 341 344 345 350 348 345 348 348 346 346 353 354 354 352 349 352 349 348 353 354 350 346 341 339 340 341 342 339 345
353 354 354 355 356 356 355 354 354 354 347 341 337 337 339 341 344 350 351 350 348 346 346 347 348 347 350 349 348 348 349 348 344 343 344 339 340 340 347 343 345 347 349
355 354 354 354 354 355 356 356 356 356 355 352 346 339 337 338 342 344 349 350 350 348 345 344 347 342 345 352 353 354 354 352 349 350 350 351 351 344 346 348 350 351 355
356 355 355 355 354 354 354 354 356 357 356 355 349 341 337 338 341 343 345 348 350 349 346 345 345 348 337 334 339 347 351 351 345 340 342 345 347 349 346 347 352 358 360
357 356 357 357 355 355 355 353 354 356 353 352 347 342 339 339 341 343 344 347 348 348 346 343 342 340 339 338 340 336 335 330 330 331 335 337 344 341 348 354 359 360 361
358 356 359 359 358 357 358 356 355 355 357 355 354 351 350 343 343 344 345 346 347 349 345 342 339 336 335 337 338 339 338 340 344 346 347 347 347 353 355 360 362 362 358
359 359 357 360 360 359 360 360 359 358 358 360 357 358 357 353 349 348 345 345 344 346 348 348 346 345 345 345 345 346 346 347 349 350 352 354 355 357 361 362 359 357 358
353 359 359 361 361 362 361 362 361 360 360 360 361 360 361 361 356 352 351 350 348 347 345 346 346 350 350 349 348 348 349 351 354 356 358 357 357 361 361 357 359 357 355
351 360 359 361 363 362 361 363 361 361 361 363 362 363 362 361 363 362 358 355 349 350 347 343 342 343 344 342 344 346 347 351 355 359 358 358 359 360 357 360 357 355 352
352 361 361 362 363 362 360 364 362 362 362 361 363 360 363 362 358 359 360 356 352 353 346 344 341 340 342 346 348 350 352 354 358 359 359 360 360 357 360 357 355 352 347
364 364 363 363 363 363 360 365 364 362 363 362 359 362 360 361 359 356 352 352 354 359 362 361 358 352 349 349 349 352 357 360 359 359 360 360 360 360 358 355 351 349 345
361 362 362 361 362 362 362 363 364 365 363 362 361 360 360 357 353 355 359 358 359 361 363 362 362 358 359 360 361 363 363 362 359 359 359 359 362 357 353 352 348 344 341
358 359 360 361 360 362 361 364 362 362 362 361 360 360 359 358 360 361 360 360 360 362 362 362 363 363 362 364 363 362 358 356 358 357 355 355 355 352 350 346 344 344 341
350 356 357 359 361 360 358 362 361 361 360 359 359 359 358 357 357 356 357 357 357 360 361 360 362 361 363 362 360 359 358 357 356 356 353 352 350 348 345 343 343 341 340
345 348 349 353 356 357 358 358 361 361 359 356 348 342 342 342 342 341 340 347 354 356 359 361 359 359 359 360 360 359 358 356 355 352 350 349 347 345 345 342 341 340 339
330 343 347 348 346 346 349 346 347 347 347 344 338 339 338 337 343 352 350 345 351 355 356 357 359 359 358 355 353 354 353 352 350 348 349 347 345 341 334 335 338 339 340
332 333 343 346 348 346 344 345 346 342 342 344 344 341 337 335 344 347 349 349 354 356 357 357 355 350 350 349 349 350 348 345 344 343 341 339 337 337 336 334 332 332 334
326 331 338 342 344 345 347 347 348 345 343 349 347 351 350 351 349 348 349 349 352 351 350 350 344 344 344 343 339 341 340 340 339 337 337 335 335 335 336 335 333 332 336
327 326 328 338 339 341 339 341 342 343 341 345 344 343 338 337 338 338 338 345 346 343 340 338 335 337 337 337 338 339 336 333 333 334 335 332 330 331 332 333 334 335 334
328 329 329 323 333 337 338 339 338 337 336 336 335 337 338 339 341 337 337 340 328 334 330 331 334 332 332 330 330 331 330 330 329 329 329 328 328 328 329 330 331 331 331
323 325 326 326 325 325 327 332 334 335 335 335 333 332 331 330 333 331 330 327 326 327 327 324 324 329 328 328 327 326 327 326 325 325 324 324 325 326 327 328 328 327 327

GFSGL_850_thetae_063.txt.gz
Theta_e
347 344 332 332 332 331 343 345 347 344 347 346 351 350 348 347 340 339 343 345 349 348 346 342 343 343 339 346 348 347 345 345 345 338 340 341 342 343 342 341 348 348 348
347 347 345 331 328 328 328 343 343 346 343 345 347 351 350 348 347 341 343 343 353 353 351 350 352 352 352 344 350 352 349 348 347 347 347 345 351 346 346 349 350 352 352
349 348 348 348 336 328 326 326 339 338 342 347 354 349 350 349 346 339 339 338 345 350 352 353 347 352 352 348 343 347 350 350 350 347 348 348 344 343 353 353 353 350 347
351 351 350 350 348 341 330 328 327 327 334 341 349 348 347 346 346 340 340 336 336 344 344 346 347 347 347 348 347 346 344 344 344 346 346 343 346 352 355 351 341 333 334
354 353 352 351 350 350 345 336 331 328 328 329 336 348 343 344 342 340 342 341 336 335 338 342 342 345 346 347 348 349 351 350 348 350 353 354 353 357 351 338 338 337 336
353 355 355 354 353 352 351 347 340 336 331 330 331 332 340 340 339 339 341 342 342 339 334 336 336 339 340 344 349 350 349 350 351 350 348 348 341 338 337 341 340 342 346
353 354 355 355 355 354 353 353 349 345 340 336 335 336 333 337 337 336 337 341 344 344 340 337 337 339 338 339 342 345 347 348 348 349 349 344 344 342 348 339 343 346 346
354 353 354 354 353 354 354 354 353 351 348 343 342 339 334 333 335 336 337 340 344 345 345 343 341 338 336 338 337 347 351 351 350 350 351 351 351 345 346 345 346 344 349
356 354 353 353 353 354 354 354 354 353 351 349 347 344 341 339 337 339 340 341 345 347 346 347 346 343 338 339 341 341 343 343 341 342 347 351 349 341 338 346 343 351 356
356 357 354 354 354 353 353 353 354 354 353 352 352 351 350 347 345 343 341 341 344 345 346 347 347 347 345 343 344 342 340 333 333 336 337 338 342 343 344 348 354 358 359
357 358 356 355 354 354 354 353 353 354 354 355 353 353 353 350 345 342 340 342 342 343 345 345 345 344 343 343 344 343 340 337 343 345 346 346 345 349 354 355 357 360 360
349 359 358 357 357 356 355 354 354 354 354 354 355 355 353 350 345 341 340 343 342 345 346 345 344 342 341 342 341 343 344 346 347 347 348 348 351 355 356 358 360 362 361
357 352 358 358 357 358 358 357 355 356 355 355 356 356 354 351 350 345 341 342 345 349 349 346 346 345 345 349 351 350 348 348 348 348 348 350 354 357 357 359 360 359 358
358 358 352 361 359 359 359 359 358 357 357 358 357 357 357 357 356 353 348 349 349 351 352 351 351 351 351 351 352 351 348 347 347 348 350 353 356 358 359 360 359 355 355
358 359 360 353 362 359 360 361 360 359 358 359 358 358 360 360 354 352 351 350 349 349 352 355 356 354 352 349 347 347 346 344 343 345 350 357 358 358 359 358 358 355 354
358 357 359 358 359 361 360 361 362 362 361 360 359 359 360 360 359 357 357 356 355 355 355 354 355 353 348 342 341 342 342 342 343 349 358 358 359 359 360 359 356 352 351
356 362 365 365 364 364 363 362 362 364 361 363 363 362 362 361 360 363 360 356 354 357 359 354 357 360 360 357 355 351 350 352 357 360 360 355 356 357 356 356 352 350 351
351 356 360 364 365 364 362 362 361 360 361 365 363 363 361 362 362 360 361 358 358 357 355 356 359 360 360 360 358 359 361 362 362 362 359 355 355 355 354 352 350 349 345
344 351 355 360 360 360 360 360 359 360 359 359 362 361 364 361 360 358 359 359 359 359 356 357 359 359 359 362 360 362 363 363 362 357 355 356 356 352 350 349 349 346 344
338 342 348 353 357 360 357 356 356 361 361 360 363 359 359 358 358 358 357 356 356 356 357 355 354 356 362 362 363 361 358 357 356 356 356 353 351 349 349 348 346 345 344
334 340 346 350 352 355 356 354 357 358 360 360 359 356 354 352 347 341 340 343 347 350 352 353 350 345 348 354 356 356 353 356 357 356 353 351 350 348 347 347 343 339 339
333 337 343 346 348 349 348 348 349 352 352 352 346 342 340 338 339 343 343 344 347 349 350 347 346 339 337 346 351 353 351 351 350 349 348 347 345 344 341 337 335 333 332
330 335 338 342 344 346 348 347 345 344 343 344 343 344 344 344 341 341 344 346 347 349 350 350 350 346 348 351 351 349 347 346 345 345 344 343 340 338 336 335 334 334 333
327 330 333 338 341 340 341 343 344 343 342 343 344 343 345 345 345 344 344 344 342 343 343 343 343 344 345 345 346 341 342 341 341 340 338 337 336 335 335 333 332 332 333
325 327 326 331 332 333 337 338 340 340 338 341 341 340 341 338 338 341 342 341 341 340 339 338 337 337 338 339 335 336 335 336 334 333 332 331 330 328 329 330 331 331 330
319 322 322 322 324 326 328 331 333 333 333 332 332 330 329 329 331 327 330 328 331 332 333 331 328 330 331 330 329 330 329 331 330 328 327 325 325 326 327 327 328 328 328

GFSGL_850_thetae_066.txt.gz
Theta_e
344 343 342 333 335 341 343 347 348 347 352 348 350 349 350 347 347 340 341 340 342 345 346 342 333 339 340 344 346 346 346 345 344 342 341 339 340 339 340 342 348 350 351
344 344 344 341 330 334 338 345 347 351 350 349 349 348 350 349 348 345 336 341 342 344 344 344 337 333 333 340 343 347 348 347 346 346 344 341 341 345 341 349 351 350 352
345 345 344 345 341 329 333 338 344 347 349 347 346 346 349 350 348 346 342 336 341 343 348 349 347 346 347 346 339 343 348 351 351 350 349 348 341 341 340 350 349 348 343
347 346 346 345 346 344 330 330 334 344 345 347 346 344 345 347 347 348 345 336 334 338 344 348 349 351 346 346 346 344 343 344 343 345 346 343 339 341 350 347 340 335 334
348 348 347 347 346 346 346 338 327 328 338 343 343 346 347 350 349 347 346 344 339 334 334 339 342 344 346 347 348 346 345 345 344 345 344 343 341 338 339 337 340 345 334
350 350 349 349 348 348 347 347 346 333 327 329 342 340 344 348 350 347 344 340 339 338 336 333 333 334 337 340 345 346 346 347 347 347 343 342 340 341 339 346 347 347 344
350 351 351 351 351 350 350 349 348 347 342 331 328 329 333 340 346 346 343 341 339 338 337 337 337 335 334 335 336 339 343 344 346 346 348 347 347 342 348 348 349 349 343
351 351 351 352 352 352 352 352 352 350 347 344 336 332 329 330 332 334 336 340 340 338 338 338 337 336 337 337 337 338 338 337 343 350 351 345 348 339 347 351 346 343 346
353 352 352 352 353 353 353 353 353 353 351 348 344 341 336 332 331 334 337 337 338 337 337 339 340 340 340 341 344 341 337 335 333 335 339 338 338 342 347 344 342 349 351
347 352 353 353 353 354 353 353 353 353 353 350 348 347 346 341 337 338 339 337 336 336 337 337 339 342 342 343 346 346 343 337 336 336 338 339 341 342 344 346 350 352 353
339 342 345 350 354 355 354 354 353 353 353 353 352 350 348 346 344 344 344 344 344 340 339 337 336 338 341 343 344 346 342 339 340 340 341 344 344 345 346 351 354 356 357
346 348 348 350 356 357 356 355 354 353 354 354 353 353 352 351 349 347 346 348 346 346 341 335 335 337 340 343 345 345 344 343 344 344 345 346 346 346 349 354 357 357 359
336 341 343 351 355 357 358 357 355 355 355 354 354 353 353 353 352 350 347 345 345 347 340 337 336 339 342 345 347 347 346 346 347 348 347 347 345 346 350 357 357 359 358
331 335 336 344 352 357 358 358 357 356 355 355 355 354 354 354 353 352 350 346 344 346 347 345 345 347 349 349 349 348 347 350 350 348 347 346 347 350 355 357 358 358 359
334 335 339 346 349 353 357 359 359 358 357 356 356 355 355 355 354 353 351 348 342 341 343 350 355 354 354 354 353 352 351 350 351 350 348 345 348 352 357 357 358 358 357
339 343 350 351 352 359 357 359 360 360 359 359 358 357 357 357 356 355 354 352 351 352 353 352 354 354 355 356 355 355 353 351 349 348 346 347 350 357 357 358 356 356 356
338 339 346 353 359 359 360 360 359 361 361 360 360 359 359 359 359 358 358 357 357 358 356 356 357 358 356 354 354 352 347 344 345 346 346 346 357 357 356 357 356 356 353
335 340 342 347 354 360 362 362 361 360 361 361 361 361 358 359 361 361 362 361 360 359 360 361 360 357 356 355 354 358 359 357 355 350 348 352 359 353 355 354 354 353 349
333 338 340 344 349 353 359 362 363 363 362 361 360 361 360 358 362 360 363 362 360 359 359 360 356 354 354 355 355 355 354 354 355 357 359 360 360 356 356 355 353 349 349
330 334 336 340 344 347 352 354 356 358 359 360 360 358 361 361 361 364 361 358 360 359 358 357 355 355 356 355 353 351 351 350 351 354 357 360 355 354 355 349 349 349 348
326 332 336 340 344 347 345 349 354 355 355 357 357 355 358 358 357 360 360 358 357 356 355 353 352 353 353 352 349 349 345 340 335 333 354 353 353 351 351 349 347 345 344
322 328 333 338 342 345 344 344 348 350 353 353 355 356 355 356 358 356 353 348 346 345 345 346 347 347 347 341 339 341 345 341 336 343 348 351 351 350 348 346 344 340 335
321 326 329 334 342 343 345 347 347 348 353 354 353 350 349 346 345 346 346 344 342 343 343 342 343 344 346 344 336 336 338 336 340 346 348 348 346 345 344 340 338 335 334
320 324 326 328 331 336 340 343 344 343 343 341 340 340 342 343 342 341 341 344 345 345 346 346 347 346 346 345 344 341 343 341 343 343 342 342 343 341 340 338 336 333 333
323 323 325 327 327 326 327 337 341 343 343 343 342 341 341 340 341 342 342 342 342 342 342 343 343 341 339 339 338 339 338 338 336 336 333 337 336 336 335 333 332 331 331
319 320 322 323 326 326 326 329 333 331 333 338 335 335 336 336 337 338 336 335 336 333 329 328 332 332 330 330 331 330 330 331 331 331 331 331 330 330 330 329 328 328 329

GFSGL_850_thetae_069.txt.gz
Theta_e
343 343 342 340 333 335 344 346 348 348 346 348 349 347 347 345 345 345 343 342 342 340 337 336 339 341 342 342 341 344 346 345 344 341 340 340 338 340 338 342 338 349 349
343 343 343 342 341 332 334 343 347 347 347 348 350 348 349 349 349 347 347 342 342 341 342 343 339 339 334 340 339 342 345 347 348 346 343 343 342 340 338 336 340 347 348
344 343 343 343 343 342 332 332 344 345 346 348 348 350 348 348 349 349 348 346 338 340 343 345 345 344 338 336 335 337 339 344 347 349 347 346 343 341 335 337 344 333 332
344 344 344 344 344 343 343 333 332 337 343 346 349 349 348 347 346 348 348 346 340 336 337 339 346 348 347 344 345 347 347 344 342 344 343 339 338 337 339 336 331 332 333
346 345 345 345 345 344 344 344 338 329 334 341 345 347 348 347 347 345 345 345 345 342 339 335 334 339 345 347 347 343 346 347 346 344 342 341 337 334 336 339 342 343 332
347 347 347 346 346 345 345 345 345 344 332 328 337 343 344 346 346 347 347 347 346 344 341 338 338 333 333 336 339 341 342 345 345 346 345 344 340 338 339 344 345 346 343
346 348 348 348 348 348 348 347 346 346 346 344 332 327 332 340 343 342 344 347 348 345 342 339 338 338 337 334 333 336 338 340 342 343 344 341 340 340 344 343 345 349 348
348 348 348 349 349 349 349 349 349 348 348 347 346 345 334 326 326 337 341 340 344 345 344 341 339 338 338 340 340 338 337 337 337 339 340 336 344 341 346 346 348 348 345
347 351 352 351 351 351 351 351 351 351 351 350 349 348 346 343 333 327 327 328 334 336 336 334 337 337 336 339 342 342 342 340 337 337 336 335 337 336 339 342 343 347 348
341 345 352 354 355 355 354 353 353 353 353 352 352 351 348 344 344 338 334 331 329 330 331 332 332 333 334 336 342 345 346 342 342 340 340 340 341 342 343 344 347 349 350
341 345 343 349 348 350 350 350 353 354 354 353 353 353 352 350 344 343 341 342 337 332 333 336 330 329 332 334 336 341 342 343 345 345 344 344 342 341 342 344 345 348 350
340 341 344 347 346 346 347 349 353 354 355 355 354 353 353 352 352 349 347 345 344 343 339 339 337 335 334 334 334 336 340 343 346 346 346 344 342 339 343 345 347 348 352
327 337 338 337 342 344 348 349 352 355 355 355 355 355 354 353 353 352 351 350 348 347 346 346 345 342 341 338 334 336 340 344 347 347 344 341 341 342 345 346 347 349 355
330 328 327 335 337 338 342 348 352 355 355 355 355 355 355 354 353 353 353 352 352 351 351 349 347 345 344 341 339 341 345 347 348 346 344 342 344 346 346 346 348 352 357
328 329 328 326 330 343 339 342 348 352 355 356 356 355 355 356 355 355 354 354 353 352 351 350 348 346 346 343 342 343 346 350 351 348 346 346 348 348 348 346 350 356 356
325 328 330 328 326 337 347 343 350 354 352 354 357 357 357 358 357 357 356 355 355 355 355 353 350 348 346 345 346 347 348 350 351 352 350 348 348 348 347 349 352 356 355
324 326 330 330 329 334 343 351 352 355 358 358 358 357 358 358 358 358 357 357 357 357 358 357 355 353 351 349 348 351 353 352 353 353 353 353 353 351 349 349 355 357 355
321 323 326 330 329 331 339 345 353 358 359 357 359 359 358 359 359 359 358 358 358 359 359 357 355 352 351 353 354 356 355 356 356 356 356 357 357 352 350 349 356 355 354
319 321 324 330 332 331 337 343 347 354 360 356 355 357 359 359 360 360 359 358 358 357 358 359 358 355 356 357 357 357 357 357 356 354 355 355 354 354 350 351 352 351 351
319 320 323 328 332 333 337 338 343 344 352 359 357 356 359 361 361 361 360 359 355 357 357 356 358 356 358 359 358 355 354 354 353 352 349 351 350 343 345 344 342 347 350
317 319 320 325 331 334 336 340 342 345 346 349 354 355 356 357 357 356 356 356 356 355 354 355 356 356 357 356 354 353 352 351 351 350 349 349 344 340 339 337 336 331 349
315 317 319 324 329 335 336 338 338 340 344 345 348 352 354 354 354 354 355 355 357 358 357 355 356 353 353 352 350 350 349 348 346 346 345 343 339 338 337 339 338 342 347
316 318 322 326 330 333 335 338 340 341 342 343 345 348 352 355 354 351 353 354 354 354 350 347 346 347 349 350 349 346 344 341 339 339 341 339 339 335 339 344 344 345 343
317 320 324 327 328 332 331 334 338 342 341 344 345 346 349 350 351 351 350 349 346 342 341 342 345 346 345 345 344 344 337 337 339 335 335 335 339 343 340 340 341 339 337
317 319 322 325 327 322 323 328 331 336 339 340 342 340 340 343 344 344 341 341 343 343 343 342 343 338 339 340 341 344 343 338 338 340 342 340 338 338 336 338 336 335 334
311 314 317 321 323 325 321 323 323 319 331 332 338 338 337 334 339 334 336 337 338 336 335 330 329 325 340 340 337 331 332 336 333 333 334 334 334 333 333 331 331 331 329

GFSGL_850_thetae_072.txt.gz
Theta_e
341 341 341 342 339 337 335 341 342 345 343 346 345 348 347 344 343 344 344 342 341 342 341 336 338 341 341 342 341 341 341 343 345 343 343 342 340 341 340 338 335 335 346
342 341 342 342 342 338 335 335 342 345 345 347 345 347 347 348 348 348 346 346 345 340 341 340 336 336 337 339 337 338 340 340 342 344 344 345 344 342 340 335 333 340 336
342 342 342 342 342 342 339 333 332 338 343 345 345 345 348 346 348 349 349 348 347 344 339 341 344 345 344 342 337 337 338 339 342 341 342 340 341 338 332 333 333 331 334
343 343 342 342 342 343 342 341 335 332 335 340 344 344 345 348 349 347 347 349 348 346 340 337 339 342 344 345 345 343 343 345 347 346 343 340 338 336 336 335 332 336 333
344 344 344 343 343 343 343 343 342 341 332 333 339 342 343 344 344 345 346 346 347 346 346 343 338 335 336 341 346 346 347 345 344 343 342 340 336 335 337 339 344 343 334
346 345 345 345 344 344 344 343 343 343 343 336 330 335 337 343 343 343 344 344 344 345 345 345 344 343 340 338 335 335 339 341 341 342 340 339 335 337 337 344 345 346 341
345 346 346 346 346 346 346 345 345 345 344 344 343 333 329 332 336 340 341 342 343 343 341 341 342 341 340 340 340 340 337 336 336 337 337 335 335 336 338 343 345 345 342
343 344 346 346 347 347 348 348 347 347 346 345 345 345 344 339 330 329 332 337 339 336 333 332 335 338 339 339 339 339 340 341 339 338 338 337 336 336 338 343 342 341 340
344 345 347 347 347 347 347 348 349 349 349 349 348 348 347 347 346 345 338 329 328 328 330 332 328 329 331 332 336 337 337 339 340 339 339 338 336 337 339 343 344 345 343
342 342 349 349 350 350 350 350 350 350 350 351 351 351 351 350 350 348 347 346 342 331 326 326 327 327 327 328 330 331 335 335 339 341 341 342 343 343 344 345 346 346 345
339 341 344 348 349 350 353 353 351 351 351 352 352 353 353 352 352 352 351 349 347 345 337 332 330 329 328 328 330 332 331 332 335 340 341 342 343 343 342 343 343 344 345
328 332 338 341 345 346 348 349 349 349 350 350 350 352 353 354 353 352 353 352 349 347 343 339 338 336 332 332 334 333 331 333 336 337 339 341 341 340 337 339 340 344 346
327 329 329 327 329 338 341 345 346 348 352 350 351 352 353 355 354 354 353 353 352 351 348 344 342 341 342 340 339 339 341 341 339 339 339 340 341 341 341 339 342 345 346
323 326 326 328 329 329 327 340 339 345 351 352 353 354 353 355 354 353 354 353 353 353 352 351 349 346 345 345 345 345 344 341 338 338 340 342 344 344 343 342 345 347 347
320 321 323 324 326 329 329 328 338 341 350 352 352 354 353 354 354 354 354 354 354 353 353 352 352 351 349 346 345 342 339 339 340 340 341 344 346 346 344 343 347 349 347
320 320 320 321 323 324 329 327 327 340 345 348 351 354 349 350 354 356 355 354 354 353 354 354 354 352 352 351 349 344 339 337 337 340 343 346 348 349 348 347 349 349 347
319 319 319 320 320 323 326 327 326 327 343 346 354 354 352 350 356 356 356 355 356 355 355 356 356 356 354 353 351 347 341 339 342 346 349 351 352 353 354 353 352 352 350
317 317 318 318 319 320 323 328 328 329 335 342 346 348 349 354 357 357 356 355 356 356 356 356 356 356 357 356 354 352 350 350 350 351 353 354 355 355 355 355 354 351 349
316 316 317 318 320 320 322 327 329 328 329 341 345 342 346 354 356 358 358 356 357 357 357 357 354 355 355 355 355 355 353 352 353 356 356 356 356 354 356 355 355 349 347
314 315 316 317 319 320 321 326 330 330 331 337 340 343 349 354 354 356 358 358 358 358 359 359 356 356 356 356 357 356 355 356 356 356 354 353 353 353 352 352 352 350 348
312 314 315 316 317 318 319 325 332 333 335 339 340 340 345 348 353 355 356 358 359 359 359 358 358 356 355 355 355 356 354 355 356 355 353 353 353 353 352 349 338 335 336
311 313 315 315 316 319 321 326 330 332 335 336 337 338 340 346 349 350 353 353 354 355 356 357 357 356 356 356 356 356 354 355 353 351 351 351 352 349 347 340 338 337 338
311 312 314 315 318 321 325 327 329 331 334 336 337 339 341 342 342 341 349 354 354 353 350 351 353 355 357 356 353 352 353 354 352 350 349 347 345 343 341 340 336 336 337
310 311 313 315 318 322 323 324 326 330 333 333 336 343 344 344 344 343 345 348 351 351 350 352 353 354 354 350 348 351 351 349 348 346 343 341 339 339 337 337 338 344 343
307 311 313 315 316 317 320 321 323 327 328 333 334 338 338 342 343 344 343 344 344 345 347 348 347 346 347 345 344 343 342 341 339 338 338 336 337 336 338 340 341 342 338
302 306 308 309 308 312 315 316 320 319 319 324 326 331 333 334 333 333 332 329 334 333 326 337 338 337 338 339 336 335 337 337 336 335 337 338 336 336 337 337 338 337 334

GFSGL_850_thetae_075.txt.gz
Theta_e
343 341 341 341 341 340 338 336 337 341 343 342 344 345 347 347 342 343 344 344 341 341 342 341 339 339 341 342 342 342 341 341 346 345 341 341 341 342 341 338 333 334 334
344 342 341 341 341 341 341 338 335 339 342 344 342 345 346 348 346 345 345 345 345 345 341 341 339 337 338 339 339 339 339 337 339 345 345 341 338 337 337 333 333 332 331
343 343 342 341 341 341 341 341 337 336 341 343 345 346 345 346 347 348 349 347 349 347 347 341 341 342 340 341 341 341 342 337 338 338 342 346 337 339 335 334 332 330 334
345 343 343 342 341 341 341 342 342 338 335 339 343 344 345 345 346 346 347 348 347 348 347 345 338 338 342 344 345 345 346 345 349 345 350 351 350 346 339 345 345 344 335
343 343 343 344 343 343 342 342 342 342 341 335 335 338 343 344 344 347 347 346 346 346 348 346 345 338 335 336 339 343 346 348 352 352 351 350 350 349 346 346 347 349 345
345 345 345 344 344 344 344 343 343 342 342 342 341 336 334 339 343 340 342 343 343 343 345 345 345 345 344 343 340 339 337 336 337 346 346 347 343 343 347 348 348 349 347
344 345 345 345 345 345 344 344 344 344 344 343 343 343 342 335 333 340 340 342 340 341 341 340 340 341 341 342 340 339 340 340 340 340 337 334 333 334 336 335 346 347 348
345 342 344 345 346 346 346 346 346 346 346 346 345 344 344 343 342 334 331 336 340 338 337 338 339 337 333 335 338 340 339 337 337 339 340 338 334 334 337 339 339 339 342
342 344 344 344 346 345 346 346 347 347 347 348 347 347 346 345 345 345 344 337 332 331 330 330 331 333 332 329 331 332 333 332 334 334 336 338 337 338 342 346 347 350 348
339 341 342 345 345 346 347 347 347 347 347 348 349 349 349 349 348 347 347 346 346 344 342 335 329 326 326 326 330 330 328 327 328 330 332 335 340 342 344 346 346 349 349
328 333 340 342 346 348 347 348 349 350 350 350 350 350 350 351 351 351 350 350 349 349 347 346 343 338 332 328 327 327 327 327 328 330 330 332 337 339 340 341 342 343 349
324 328 331 335 338 343 346 349 352 351 353 353 352 351 351 352 352 352 352 352 352 352 351 348 344 342 340 337 334 333 332 330 331 337 341 341 342 345 343 339 341 342 341
320 322 325 329 330 329 332 339 343 345 347 350 351 350 350 349 350 351 353 353 353 353 352 352 349 344 341 340 339 341 341 338 338 339 338 337 336 341 338 337 341 343 341
317 320 320 322 326 328 329 329 329 335 340 343 344 351 351 351 351 352 353 354 354 353 353 352 352 351 350 348 347 345 345 344 343 342 340 340 340 336 334 336 342 345 344
315 317 320 320 320 322 324 327 329 329 332 341 343 349 353 353 352 353 354 354 353 353 354 353 353 352 352 351 350 349 347 344 344 343 343 343 342 337 335 338 343 345 346
316 316 318 319 319 319 319 321 323 324 326 328 331 342 343 350 352 351 353 353 351 352 354 353 353 352 352 352 352 352 351 350 347 343 342 341 340 340 343 346 346 347 348
315 316 316 317 317 317 318 319 320 320 320 324 326 333 343 345 349 347 349 349 351 350 355 353 353 353 353 354 353 353 352 351 348 348 347 342 340 341 346 349 351 352 352
314 313 315 316 315 316 316 317 318 320 321 320 322 326 335 347 347 349 347 349 353 353 354 354 355 355 355 355 356 356 354 354 352 352 349 344 343 346 348 351 352 353 353
311 312 314 314 315 315 315 316 317 319 321 321 321 324 325 337 343 346 348 345 349 354 355 356 356 356 356 355 354 355 355 355 354 353 355 352 351 352 353 354 354 355 355
310 311 312 312 313 314 315 316 317 318 320 321 323 329 325 326 332 344 347 345 348 353 355 356 357 356 357 357 357 357 356 356 356 356 355 355 354 355 356 356 356 354 354
306 309 310 310 312 313 314 315 317 318 319 321 326 330 331 333 335 342 346 349 350 353 357 356 356 357 357 358 358 358 357 357 355 355 356 355 356 358 355 355 355 354 352
305 307 309 310 310 312 314 315 316 318 320 322 326 329 333 336 337 339 344 347 349 351 356 358 358 358 357 357 358 357 356 356 356 355 354 354 355 357 358 354 354 353 353
303 304 307 309 309 311 313 315 316 319 322 324 327 330 332 335 337 338 339 343 343 344 350 353 353 355 354 354 355 354 355 356 356 355 353 353 354 354 352 351 352 349 344
300 302 305 308 309 310 312 314 318 320 323 324 325 328 330 333 334 340 339 340 345 344 344 350 353 353 352 350 350 352 354 354 354 351 352 351 351 350 347 345 345 343 342
297 298 301 305 308 309 310 314 318 320 322 323 323 325 329 332 336 338 341 341 343 343 343 345 348 349 349 348 349 351 350 350 351 350 348 346 344 344 341 339 339 340 340
296 296 297 300 303 304 305 309 314 315 315 316 316 319 324 329 330 330 332 334 335 333 334 334 335 338 338 336 332 337 342 344 344 343 341 339 338 337 337 338 339 339 339

GFSGL_850_thetae_078.txt.gz
Theta_e
346 345 347 346 341 341 341 338 338 348 350 351 348 348 349 352 349 345 344 351 349 350 350 351 349 349 348 346 347 347 348 348 348 345 347 348 350 350 341 335 343 343 346
351 348 345 344 346 348 341 343 341 340 348 352 352 343 349 352 352 343 348 351 350 352 351 352 351 348 343 344 348 349 348 349 349 349 346 348 352 351 352 336 349 348 349
349 349 346 347 349 344 345 342 343 341 338 347 352 350 344 351 353 345 346 353 353 353 352 353 351 351 351 347 351 349 349 350 350 349 349 348 349 352 353 352 350 350 348
349 350 348 347 347 343 342 342 342 342 341 337 343 352 352 347 352 349 350 347 353 353 353 354 353 351 351 352 352 353 351 351 349 349 349 349 349 351 352 349 346 345 347
349 349 350 351 349 348 343 341 341 342 342 342 339 337 344 352 352 353 355 355 350 349 352 353 352 351 343 345 349 350 352 352 350 349 349 349 349 348 349 346 346 346 345
345 348 351 351 351 351 345 343 346 345 343 342 342 342 341 343 345 349 350 354 355 356 354 354 347 348 344 344 342 339 340 348 349 346 344 344 346 347 346 346 346 345 345
347 349 346 347 352 353 354 351 346 344 348 347 343 344 343 343 342 336 338 345 349 352 354 354 352 349 348 344 343 342 340 339 340 340 345 343 341 343 346 350 349 350 347
344 347 347 347 347 348 350 353 352 351 350 348 346 345 344 344 343 343 342 336 334 341 349 351 353 351 349 351 348 350 346 341 337 338 338 336 336 340 338 347 352 348 348
333 339 342 343 345 347 352 349 353 352 353 352 351 349 347 345 345 344 344 344 343 337 332 334 341 346 342 340 340 345 346 347 346 346 339 334 334 334 338 344 347 346 344
328 329 332 339 342 345 345 348 350 350 350 352 354 353 351 348 347 346 346 345 348 348 347 342 334 331 330 329 330 332 336 335 345 343 344 342 333 331 333 338 340 348 345
325 324 326 330 337 342 344 347 347 351 351 351 352 352 354 353 351 348 348 348 347 349 350 350 350 349 345 342 338 332 328 327 339 341 343 344 344 345 349 347 339 339 345
322 317 319 324 327 330 334 342 345 348 348 349 350 351 354 353 354 351 350 350 350 351 351 351 351 351 351 348 343 343 342 339 340 339 339 340 341 342 341 344 350 346 341
321 321 319 315 321 324 327 329 333 342 346 346 346 350 353 355 358 357 353 352 352 352 352 353 353 354 354 352 348 345 345 345 343 345 344 342 342 342 342 344 347 350 345
319 320 320 319 319 320 324 327 331 332 333 338 346 347 348 352 354 356 357 354 351 351 352 352 352 353 353 353 352 350 346 344 346 348 347 345 345 345 345 347 348 348 350
317 319 319 318 320 320 321 324 324 324 328 329 331 331 341 348 351 354 353 356 356 354 352 353 353 352 353 354 354 353 353 350 347 349 349 349 349 349 350 349 348 348 348
317 317 317 317 317 318 319 320 320 319 320 322 326 328 329 328 331 341 348 353 351 353 352 352 354 355 355 356 356 356 355 354 354 352 351 350 350 349 350 350 348 348 349
313 313 314 315 316 316 317 319 319 320 318 320 320 321 324 325 326 328 341 346 345 348 350 352 354 355 357 357 356 356 356 356 356 356 356 354 352 351 350 349 349 349 351
310 311 312 313 314 315 316 317 318 319 320 319 318 319 320 322 325 327 332 342 342 344 349 350 352 355 356 357 354 355 357 357 357 355 355 354 356 353 351 351 351 351 352
305 308 311 312 313 313 313 314 315 316 316 318 319 319 323 322 324 324 327 330 342 346 345 349 348 353 355 355 355 356 356 356 357 358 359 358 357 355 353 352 352 352 353
303 305 306 307 310 312 312 313 314 314 314 316 319 320 323 327 330 336 331 328 341 346 347 345 345 349 352 355 355 356 356 358 358 357 355 356 357 356 356 356 355 355 356
301 303 303 307 309 310 311 310 311 312 313 315 315 317 318 320 321 327 333 332 333 342 347 350 349 352 345 347 355 356 357 357 357 357 359 358 357 356 356 359 360 360 358
300 300 301 303 305 307 307 308 310 311 313 315 316 317 318 319 320 324 328 332 334 341 349 348 346 348 350 352 355 356 356 357 359 358 358 359 358 355 355 357 357 355 357
298 299 300 301 302 303 306 307 308 310 311 313 315 317 318 320 321 324 328 331 336 338 346 351 346 348 347 345 348 351 358 356 356 357 358 356 356 354 355 355 355 354 352
296 297 298 298 299 301 303 305 306 307 309 311 313 315 319 321 324 326 328 332 334 336 338 341 342 341 343 347 352 354 353 353 353 353 352 352 353 354 353 351 351 350 349
295 296 296 296 297 298 299 301 304 306 308 311 314 317 320 322 323 325 327 330 332 334 338 340 342 344 344 343 345 350 352 351 349 349 350 351 349 348 347 345 343 342 342
295 295 295 295 296 296 297 298 300 302 305 308 312 313 316 320 322 324 327 329 331 333 334 336 337 339 341 341 344 347 345 347 347 347 349 347 345 344 341 341 341 340 340

GFSGL_850_thetae_081.txt.gz
Theta_e
355 355 355 355 355 355 353 352 351 350 352 351 354 352 354 354 353 351 347 352 354 351 348 353 352 347 350 347 345 345 346 347 347 347 349 347 352 348 351 336 342 348 349
355 356 355 355 355 354 355 354 353 352 351 351 352 355 354 353 355 353 352 350 351 353 352 351 351 350 346 344 349 348 349 350 351 349 350 348 348 350 352 351 352 352 351
353 354 355 355 355 354 354 355 352 350 351 351 352 353 355 353 355 354 353 353 355 354 354 353 351 351 351 350 350 348 348 350 351 353 351 349 348 349 351 353 352 350 348
352 353 354 354 354 354 354 353 354 352 351 350 348 352 354 353 352 354 355 350 354 355 354 353 353 351 351 352 351 351 348 347 350 349 348 349 350 350 351 352 350 346 347
351 352 354 354 353 354 355 354 354 354 352 347 348 349 350 352 351 350 352 352 351 354 355 355 352 350 350 350 351 351 351 352 350 349 349 349 349 350 352 352 347 346 346
345 350 351 350 352 355 355 355 353 353 353 353 352 349 348 350 345 346 352 354 352 354 354 353 351 355 355 348 341 337 345 352 347 350 349 347 345 346 346 347 348 345 347
347 348 348 349 351 352 354 353 355 352 354 353 354 355 351 344 347 344 341 347 350 352 352 352 353 349 350 349 345 343 343 342 340 337 339 340 340 337 340 342 349 349 349
338 344 346 347 348 347 351 351 352 352 353 352 353 353 353 353 349 347 345 342 342 340 344 350 352 349 347 353 354 354 352 344 341 339 336 335 335 335 336 344 350 349 353
331 332 337 341 344 345 348 351 352 351 352 352 353 353 354 353 353 351 348 348 346 343 342 339 336 347 350 341 344 352 353 350 346 347 346 344 342 342 341 340 340 346 345
327 329 330 331 335 341 343 344 346 350 350 351 351 352 353 353 353 353 351 351 351 350 350 346 344 342 334 338 345 341 343 338 349 344 346 346 346 345 345 344 340 342 345
324 326 326 328 327 328 335 340 343 345 347 351 350 350 351 352 354 354 353 353 353 351 351 351 351 350 348 347 342 341 337 339 349 348 343 342 344 345 346 347 348 346 343
319 322 326 325 324 327 327 328 332 337 343 347 348 350 351 352 353 354 353 352 351 351 352 352 351 351 350 350 350 350 350 349 349 350 348 344 341 340 341 342 344 344 344
319 319 322 324 324 324 320 327 331 334 335 339 345 348 348 350 352 351 353 354 352 350 350 351 353 353 353 352 352 352 352 351 351 350 350 349 346 341 338 339 340 343 346
320 320 320 322 323 322 323 324 326 330 333 334 337 339 340 346 350 353 353 353 353 353 353 353 352 352 353 354 354 355 354 354 353 350 349 348 347 345 344 343 344 344 345
315 317 320 321 321 321 322 322 323 324 326 325 325 327 329 331 335 343 341 345 351 351 349 353 353 354 353 353 353 354 356 356 355 352 350 349 349 349 348 346 346 347 348
312 313 316 318 318 319 320 320 320 320 320 319 318 319 321 324 328 328 328 328 331 341 344 347 353 354 355 356 356 355 356 356 356 356 354 351 350 350 350 350 349 350 350
308 310 312 313 315 316 317 319 319 319 319 320 320 321 320 319 321 321 325 326 326 330 336 342 345 350 353 354 356 357 357 357 358 356 355 356 355 353 352 350 350 351 351
307 307 308 311 312 313 315 316 317 318 319 319 320 320 321 319 318 319 320 322 325 326 328 339 341 347 349 350 356 357 355 357 358 358 359 358 357 357 357 356 354 352 351
305 305 306 307 308 310 312 315 315 316 316 316 317 318 319 320 321 319 319 321 324 325 327 336 337 346 351 350 352 355 355 356 356 356 357 357 357 358 357 356 356 354 352
303 303 303 303 305 306 308 311 313 314 315 316 317 317 318 319 321 324 328 330 334 333 332 337 340 338 339 341 350 352 354 356 355 354 354 355 356 356 357 357 354 355 355
302 302 302 302 303 303 304 306 309 311 314 315 315 316 316 317 319 319 321 322 323 328 329 338 341 345 343 340 348 350 352 351 355 357 356 356 357 356 354 355 356 356 355
301 301 300 301 301 301 302 303 305 307 309 310 312 313 314 315 317 318 319 321 323 327 333 336 337 346 349 348 351 351 352 353 354 354 356 356 355 356 356 357 357 357 355
299 298 297 297 298 298 299 300 302 303 304 306 307 310 313 315 317 318 320 322 324 322 320 322 328 334 340 348 349 348 352 356 353 355 356 358 356 355 354 356 355 357 354
297 297 296 296 296 296 297 298 299 300 302 304 305 307 308 311 313 314 315 317 319 320 321 321 325 329 335 338 346 347 345 345 348 352 351 351 354 355 356 352 353 354 354
296 296 295 295 295 295 295 296 297 298 299 300 302 304 305 307 308 310 313 315 319 322 324 324 326 331 333 335 337 338 339 341 341 344 348 349 350 350 350 350 350 350 350
297 295 295 295 294 294 294 294 295 296 297 298 299 301 303 306 309 311 313 316 318 320 323 325 327 329 332 334 336 338 338 340 341 342 345 347 349 347 347 346 346 345 343

GFSGL_850_thetae_084.txt.gz
Theta_e
355 355 355 352 349 346 346 344 346 348 352 351 339 350 348 350 349 349 345 352 351 347 346 348 349 340 341 350 349 343 344 346 347 346 349 350 348 346 346 349 349 341 350
357 356 356 356 355 354 349 346 344 340 338 349 352 352 353 350 350 351 347 348 350 348 347 345 348 349 342 343 349 350 350 348 349 348 347 346 338 350 349 351 351 350 348
355 355 355 356 355 355 355 353 351 346 343 337 338 348 350 347 346 349 349 347 348 352 350 349 348 348 347 345 341 346 347 346 346 348 352 354 351 346 348 351 350 352 347
352 349 357 356 356 355 355 355 354 351 347 344 342 348 350 350 349 349 352 349 347 347 351 351 351 350 351 349 346 345 347 348 350 351 351 348 349 349 351 351 353 351 344
350 349 352 355 355 355 355 354 354 355 353 350 347 344 350 352 353 350 350 353 349 350 349 352 353 350 346 350 350 345 350 349 352 349 351 350 351 353 352 349 348 346 346
345 348 349 349 353 353 352 353 354 354 354 354 353 350 348 347 351 351 351 350 350 347 349 348 346 352 355 355 354 346 339 350 350 350 350 351 351 349 346 345 346 343 334
343 345 346 348 350 351 353 353 352 352 352 354 355 354 353 351 347 349 348 348 350 353 352 351 349 352 349 349 349 349 347 343 339 337 337 335 332 330 334 334 335 336 338
338 341 343 346 347 348 349 352 353 352 353 353 351 352 354 353 353 352 349 349 347 345 345 350 353 351 346 350 353 353 353 353 350 345 344 340 338 338 339 340 342 341 341
330 330 332 337 341 344 345 346 348 350 351 352 353 353 352 352 353 353 355 351 351 348 345 343 343 345 348 348 343 346 350 354 355 351 347 346 344 344 344 346 346 345 342
326 328 327 326 327 332 339 342 343 346 348 350 351 352 352 352 352 352 352 353 353 353 352 350 347 345 344 343 343 349 348 332 336 342 350 349 347 347 346 346 345 342 341
319 319 325 326 320 327 328 329 334 339 342 344 346 349 351 351 351 350 352 353 354 353 352 352 352 350 348 349 349 349 347 345 342 343 345 342 344 345 343 345 342 342 342
321 319 318 321 324 322 318 316 319 328 332 336 339 342 345 347 349 350 350 350 354 353 352 353 352 353 354 353 353 351 350 350 350 349 351 352 351 351 349 348 345 343 342
315 318 322 320 318 323 323 317 324 328 330 334 338 340 340 344 344 348 349 350 350 350 351 353 352 352 350 351 351 353 352 351 351 351 351 351 351 350 348 347 343 340 339
315 316 316 320 321 321 322 323 324 324 326 330 331 331 333 335 337 342 348 350 351 351 350 349 351 351 350 350 351 351 352 353 354 353 353 353 353 353 350 347 348 346 343
310 312 314 315 318 320 321 322 322 322 322 321 322 321 319 318 320 323 326 332 334 334 343 347 349 350 350 349 351 352 353 352 352 354 354 354 354 353 351 351 348 347 347
309 309 310 312 314 314 316 317 318 318 319 320 320 319 320 320 319 318 320 322 323 323 326 329 334 344 347 347 346 352 353 355 354 354 355 354 354 354 353 351 352 352 350
306 307 308 309 310 312 313 314 315 315 316 316 317 319 320 320 320 320 319 318 320 320 321 326 326 329 339 343 341 338 343 351 353 353 354 354 357 357 354 353 352 348 350
306 306 307 307 307 308 309 310 313 314 316 317 318 318 319 319 319 318 318 319 316 318 320 320 324 325 329 339 342 344 342 346 350 353 355 355 354 356 354 355 355 354 353
305 305 304 305 305 306 305 306 308 310 312 313 315 316 317 317 318 318 318 320 320 325 325 326 326 332 328 337 343 345 345 347 348 344 352 352 354 353 353 353 353 352 352
303 303 303 303 304 304 304 305 305 306 307 309 312 314 317 317 317 318 320 322 326 330 329 330 329 335 338 339 339 340 339 340 340 345 349 348 349 352 353 352 353 353 353
302 302 301 302 302 302 301 302 302 303 304 305 306 309 313 314 314 314 315 317 319 321 319 321 324 326 332 337 342 346 350 345 337 342 347 347 344 348 351 353 352 352 353
301 300 298 298 298 298 298 298 299 299 300 301 302 304 306 308 310 312 313 315 317 318 317 321 326 327 331 332 334 340 344 347 350 350 346 345 344 348 350 350 351 353 354
300 299 298 298 297 297 297 297 297 297 298 298 300 301 303 304 305 308 309 313 315 318 322 326 326 327 327 325 321 323 328 336 344 347 349 349 348 348 346 340 345 351 352
300 299 298 297 297 297 296 296 296 295 295 296 297 298 300 301 302 304 306 308 311 313 316 319 320 320 318 317 317 318 320 323 330 334 343 346 347 349 350 350 350 347 352
301 300 299 298 297 297 296 295 295 295 294 294 295 296 297 298 300 302 302 303 305 307 309 311 313 315 316 318 319 320 320 322 327 331 336 337 338 340 343 347 348 348 348
301 301 300 298 298 297 295 294 294 294 294 294 294 294 295 296 297 298 300 302 304 306 308 309 311 313 316 319 321 323 324 325 327 329 331 337 339 340 340 342 342 343 345

GFSGL_850_thetae_087.txt.gz
Theta_e
340 340 341 341 341 343 342 345 350 348 350 350 346 348 346 348 346 345 344 348 350 350 346 345 344 337 338 343 348 343 342 346 348 345 345 346 345 346 345 337 346 349 347
347 344 344 346 346 343 343 343 345 349 349 348 345 344 349 346 349 350 346 344 348 348 345 342 343 347 341 337 342 349 347 348 348 348 347 345 343 338 340 346 349 350 351
348 349 345 353 352 350 346 343 342 343 344 345 345 347 342 342 350 347 347 349 345 348 349 348 347 345 341 342 340 343 346 345 348 347 346 345 345 343 348 349 351 352 351
349 348 349 352 350 351 352 354 353 347 345 345 340 339 345 346 347 347 346 348 347 347 347 352 351 349 347 345 345 342 338 336 340 343 346 349 349 346 350 350 349 351 351
347 351 347 346 349 352 351 354 354 354 353 350 348 346 345 346 347 347 346 349 350 350 347 346 348 349 349 350 349 347 346 338 339 340 342 349 349 353 352 350 346 345 345
342 340 339 337 338 347 352 354 352 352 351 354 352 352 349 347 346 347 348 350 348 349 347 348 347 347 349 352 353 354 351 346 342 335 340 346 342 339 337 332 331 331 332
340 341 343 345 347 347 346 348 351 351 353 353 352 354 353 353 349 348 350 353 352 351 351 350 350 349 349 347 348 346 348 349 349 348 346 345 342 338 338 337 336 337 338
335 337 341 342 345 346 345 346 350 349 349 350 352 352 353 353 353 351 348 347 349 350 350 349 350 352 350 348 348 349 352 350 349 349 351 349 348 343 341 344 346 346 343
328 328 329 333 337 340 342 344 346 347 349 350 350 351 351 351 350 352 351 349 349 346 347 348 347 345 344 344 347 346 344 343 342 343 341 341 341 346 347 348 346 346 345
322 325 323 321 322 327 330 333 338 341 343 345 347 347 349 351 351 350 350 350 350 351 352 351 350 349 348 347 347 345 344 343 344 344 344 345 344 342 345 346 346 343 344
316 314 316 319 318 319 319 316 319 325 332 335 338 341 343 344 347 349 350 351 350 350 351 351 352 354 353 351 349 351 351 352 351 350 350 349 349 349 348 348 349 350 347
315 314 315 314 314 315 316 316 317 322 329 331 334 338 343 346 346 345 345 347 349 349 349 350 351 352 352 353 354 353 353 353 353 353 352 351 350 350 350 350 350 350 349
313 312 311 312 317 318 319 319 322 324 324 325 332 332 334 336 336 335 339 342 346 347 348 350 350 350 350 350 351 350 351 353 353 352 352 352 351 351 351 351 352 352 352
310 310 313 313 316 319 321 323 324 324 323 323 323 325 327 328 324 317 318 322 329 334 339 344 345 348 349 348 348 349 348 348 349 349 350 350 352 353 353 353 353 352 352
308 308 310 311 313 315 319 319 319 320 319 319 320 319 319 319 318 319 319 318 318 320 323 327 331 335 339 338 343 348 349 349 350 351 352 352 352 352 352 351 352 353 352
305 306 306 307 308 309 310 311 316 315 317 318 319 318 318 318 319 320 320 320 320 319 317 319 322 322 323 328 328 331 346 347 348 350 352 352 352 355 354 353 353 353 352
304 305 306 306 306 305 305 305 306 307 308 311 313 317 319 319 319 319 319 318 318 318 317 316 316 317 320 320 324 325 329 337 340 342 342 341 349 351 352 352 351 352 352
303 303 302 301 302 302 303 303 304 304 305 306 307 309 314 316 317 317 316 316 317 317 317 317 316 318 320 322 325 327 328 332 344 345 345 345 347 348 350 349 344 350 351
302 302 301 300 301 301 301 302 302 302 302 303 304 305 306 309 315 317 316 316 318 321 323 325 328 329 332 335 334 335 337 338 339 341 344 344 342 341 342 344 340 343 349
301 301 299 299 299 299 299 299 299 299 300 300 301 302 303 304 305 309 315 316 316 318 319 322 324 325 325 324 324 326 332 340 342 345 345 341 340 342 340 339 344 347 348
300 299 299 299 299 298 298 298 298 298 298 298 299 299 300 300 302 303 304 308 312 313 314 316 317 317 317 316 320 328 330 327 335 338 340 344 344 340 342 345 347 343 345
302 300 299 300 299 299 299 298 297 297 297 297 297 297 298 298 299 300 302 304 305 306 310 313 316 318 319 321 320 323 327 328 328 329 329 329 334 339 345 345 343 342 346
301 300 300 301 300 300 299 298 297 297 296 296 296 296 296 295 296 297 299 300 302 303 304 307 310 314 317 319 321 324 325 324 323 320 315 316 319 326 335 343 346 345 342
301 301 301 300 300 299 298 297 296 296 296 295 295 295 295 294 294 295 296 298 299 301 302 304 306 307 311 314 317 319 320 320 318 316 314 315 318 321 328 331 338 344 347
301 302 302 301 300 300 298 296 295 295 295 295 295 295 295 294 293 294 294 296 296 299 300 301 302 304 307 310 312 314 314 313 313 313 315 317 318 319 325 329 334 336 338
302 302 302 302 302 300 297 296 295 295 294 294 294 294 294 294 294 293 293 294 295 296 297 299 301 302 303 305 308 310 311 312 314 315 318 320 321 320 325 331 335 338 340

GFSGL_850_thetae_090.txt.gz
Theta_e
336 332 334 341 339 338 338 348 348 349 346 348 350 346 345 337 342 344 344 344 344 342 344 338 337 337 338 339 344 346 347 346 345 344 345 345 343 343 341 340 346 349 350
340 339 336 337 339 340 340 345 345 346 349 348 350 346 343 345 347 346 348 342 345 348 346 340 340 345 342 339 339 340 343 347 346 346 346 345 345 343 341 346 348 349 351
341 341 341 341 341 341 342 343 345 344 344 349 349 348 346 346 346 348 348 349 347 343 346 348 343 341 341 338 336 337 338 343 343 341 343 346 345 343 343 345 350 349 348
344 343 344 344 343 343 343 344 343 344 345 344 344 344 344 347 346 348 349 345 346 348 344 346 349 351 347 346 347 347 343 339 337 335 334 337 340 338 342 352 352 351 347
339 342 343 343 344 344 345 345 348 348 347 346 346 347 343 342 344 345 347 348 347 347 350 348 346 345 348 348 348 349 351 348 345 346 337 336 338 338 341 340 338 333 329
338 342 341 342 344 344 345 346 350 351 349 349 350 350 349 349 347 345 346 348 347 348 347 349 348 349 347 348 347 350 349 348 348 349 349 348 347 344 342 342 339 337 338
342 341 340 342 341 340 340 345 346 347 348 347 348 347 351 348 349 348 347 346 346 352 353 352 351 350 350 348 348 348 347 348 349 352 352 351 350 346 347 343 339 342 342
336 338 341 341 341 339 341 341 341 343 344 348 349 348 348 348 352 351 351 349 347 348 350 351 350 348 347 346 347 346 342 342 344 348 349 346 345 344 345 345 346 342 339
330 331 332 332 340 338 339 341 343 342 342 343 347 347 348 349 349 350 350 349 349 350 347 346 348 349 349 349 349 347 345 343 343 343 343 343 343 345 349 349 350 349 346
327 326 325 326 329 329 328 325 325 329 337 338 341 343 345 346 346 347 350 350 350 350 350 348 350 350 349 348 349 349 349 347 347 347 346 347 349 349 349 348 348 348 347
316 316 319 321 322 322 319 317 318 326 329 332 337 340 341 343 344 344 345 346 348 349 349 350 350 350 350 350 350 350 350 351 350 350 351 351 350 350 350 349 349 349 349
314 313 313 314 314 314 315 316 318 323 325 328 335 339 339 337 338 333 335 338 341 343 345 347 348 349 349 349 350 349 349 350 353 353 352 351 351 350 350 350 350 350 350
311 310 310 310 311 314 315 316 320 323 323 324 326 328 328 326 325 323 320 318 319 327 335 339 340 341 344 345 346 348 349 349 349 350 350 350 351 352 351 349 350 351 352
308 309 310 311 312 315 318 320 321 321 322 321 321 321 322 322 320 319 318 318 318 318 318 319 322 330 334 337 336 335 337 339 344 348 349 349 349 348 350 350 350 351 351
307 307 307 308 310 312 314 317 318 317 317 318 318 318 318 318 318 318 318 318 319 319 318 318 317 317 320 323 324 323 323 327 327 334 346 351 351 351 351 351 352 352 352
305 305 305 305 305 305 306 308 309 311 313 313 314 316 317 317 318 318 318 318 319 319 318 317 316 316 315 315 316 318 320 322 325 326 329 336 340 342 345 344 341 350 351
302 302 301 301 301 302 302 302 303 303 303 304 306 307 310 313 315 316 316 317 318 318 318 317 317 315 314 316 318 322 325 328 332 335 336 342 344 343 342 343 344 346 349
301 301 300 300 300 300 301 301 301 302 302 302 303 303 304 304 305 308 310 312 313 314 315 315 316 317 317 320 327 331 333 333 334 331 337 338 339 342 345 345 342 342 342
300 299 299 299 299 299 299 300 300 300 300 301 302 302 303 303 304 304 304 304 306 313 315 316 317 319 321 323 326 323 325 329 328 330 338 341 341 343 341 340 341 341 341
300 299 299 299 300 300 300 300 300 300 300 300 300 300 301 302 302 303 303 303 303 304 304 306 310 313 315 317 319 320 322 322 326 329 329 332 336 337 338 339 342 340 341
301 299 299 300 300 300 300 299 299 299 298 298 299 299 299 299 299 300 300 301 301 301 302 303 304 305 307 312 314 315 317 318 319 318 319 323 326 327 328 330 330 336 344
300 300 299 300 300 299 299 298 298 297 297 297 297 298 298 298 298 298 298 298 299 299 299 300 301 303 304 307 310 311 313 314 314 314 319 322 323 323 321 318 317 317 331
302 301 301 301 301 300 299 298 297 296 296 296 296 296 296 296 296 296 297 297 297 297 295 296 298 300 301 303 305 306 307 309 312 314 316 318 320 321 321 318 314 315 320
303 301 302 302 301 302 301 299 297 296 295 295 295 295 295 295 295 295 295 295 295 295 294 294 295 296 298 299 300 301 302 303 304 308 311 314 316 318 319 319 315 313 317
304 302 302 302 302 303 302 299 298 296 295 295 295 295 294 294 294 294 294 294 294 294 294 293 295 296 296 298 299 299 300 300 301 303 306 309 312 315 316 315 313 312 316
305 303 303 302 303 303 302 300 298 296 295 295 295 295 294 294 293 293 293 293 293 292 293 293 293 294 295 296 297 299 299 300 301 303 305 307 309 312 312 311 312 314 316

GFSGL_850_thetae_093.txt.gz
Theta_e
344 341 337 342 343 345 343 347 349 347 347 345 347 348 347 345 341 344 343 343 343 343 344 341 341 340 341 340 340 341 342 344 345 344 344 345 344 344 343 340 345 347 348
342 344 338 338 343 344 342 339 340 347 347 345 347 347 346 346 344 345 344 344 343 343 348 346 342 342 345 344 344 340 339 340 342 345 344 344 345 345 344 344 341 348 349
343 341 342 339 337 338 339 340 341 343 344 345 349 349 347 346 342 345 346 344 347 346 343 343 345 346 345 344 342 342 342 344 343 341 341 341 342 337 336 335 338 349 350
343 342 341 341 340 341 341 342 342 343 343 344 347 347 347 348 347 347 348 348 347 345 346 347 343 346 347 346 346 345 349 349 347 344 340 337 337 337 337 337 337 335 334
339 341 343 344 342 342 342 343 342 343 344 343 344 346 348 347 343 344 346 347 348 348 345 347 348 347 345 344 345 345 348 348 350 350 347 347 346 346 345 344 342 336 330
340 340 339 339 341 342 342 342 343 344 344 345 345 347 345 345 348 346 347 346 349 351 347 346 345 348 349 349 348 348 345 347 347 349 346 348 348 348 348 348 347 345 342
339 340 341 339 338 340 340 340 341 343 343 345 345 345 346 346 345 345 346 345 344 343 344 348 350 350 349 349 348 347 349 349 348 348 348 348 350 347 346 343 344 344 340
340 340 341 341 339 338 339 340 340 340 341 342 344 344 344 344 345 345 345 347 347 348 347 346 346 347 349 349 349 347 345 344 345 344 343 341 341 342 342 343 343 344 344
336 336 337 339 340 340 338 337 339 338 339 340 341 341 342 343 346 347 347 347 348 349 348 347 349 348 346 346 347 348 348 347 347 348 347 347 347 346 345 346 347 348 347
329 329 329 332 335 335 336 337 336 336 336 336 338 339 341 343 344 345 346 345 347 347 348 348 349 349 348 348 348 349 349 349 349 348 348 348 347 347 349 350 350 350 350
321 323 324 324 325 325 323 324 328 328 331 334 337 340 337 337 336 334 341 343 342 343 345 346 347 348 348 349 349 349 350 349 350 350 350 349 348 348 348 349 350 351 351
315 314 314 315 316 317 318 318 321 325 327 332 336 336 333 332 333 334 335 331 324 324 331 336 338 340 341 341 341 342 343 345 347 348 348 348 348 348 347 348 350 351 351
310 310 310 310 312 315 316 318 320 322 322 324 327 328 328 326 326 328 327 325 321 319 319 319 323 324 326 330 330 331 332 332 332 337 339 343 346 348 348 348 347 347 349
308 308 309 311 311 312 315 316 318 319 320 320 320 321 321 321 322 321 320 319 318 317 317 318 318 318 317 317 318 319 320 321 322 322 326 328 331 341 348 349 350 349 351
306 307 308 308 309 310 312 314 316 316 317 317 317 317 317 317 317 317 316 315 315 314 314 314 314 314 313 314 315 315 316 317 320 323 325 326 326 329 338 342 342 344 347
305 305 305 305 305 305 305 305 306 308 308 310 311 312 311 311 312 313 314 315 315 315 315 315 315 315 314 314 314 312 313 318 325 328 330 332 332 333 338 340 341 342 342
303 302 301 301 301 301 302 302 302 301 302 302 302 303 303 304 304 305 305 306 307 308 310 311 312 312 312 313 314 316 317 320 323 329 331 332 332 338 338 339 341 344 344
301 299 299 299 299 299 300 300 300 301 301 301 301 301 301 302 302 302 303 303 303 304 304 304 305 308 312 314 314 316 319 321 324 327 332 332 335 337 337 338 339 339 338
300 299 299 299 299 299 300 300 300 300 300 300 301 301 301 301 302 302 302 302 302 302 302 302 302 303 303 305 309 313 315 317 319 321 322 324 328 326 331 333 334 335 335
299 298 299 299 300 300 300 299 299 299 299 299 299 299 299 300 301 301 301 301 301 301 301 301 300 301 301 301 302 303 304 308 311 314 315 317 319 319 320 321 322 324 327
300 299 299 300 300 299 299 299 299 298 298 298 297 298 298 299 299 299 299 299 299 299 299 299 299 299 300 300 301 301 303 304 307 309 309 311 312 314 315 316 316 318 321
300 300 300 300 300 300 299 298 298 298 297 297 296 297 297 298 298 298 298 298 298 298 298 298 298 298 297 296 296 298 300 301 303 306 306 307 307 308 311 312 313 313 317
300 301 301 301 301 301 300 299 299 298 297 296 296 296 296 297 296 296 296 296 296 296 296 297 297 297 297 297 295 295 296 297 299 300 300 301 303 304 305 307 310 312 314
301 301 302 302 301 302 302 302 300 299 297 296 295 295 296 296 296 295 295 295 295 295 295 294 295 295 295 295 294 293 294 295 297 298 298 298 299 300 300 301 304 308 310
303 303 303 302 302 302 302 302 302 300 298 296 295 295 295 295 295 295 295 294 294 293 293 293 293 294 294 294 294 293 294 293 296 297 297 297 298 298 298 299 300 304 306
304 304 304 304 303 302 303 303 303 301 298 296 295 295 295 295 294 295 294 294 293 293 293 293 293 293 293 293 293 294 294 294 295 296 297 298 299 299 299 299 301 303 305

GFSGL_850_thetae_096.txt.gz
Theta_e
344 345 344 343 343 345 344 345 345 347 345 345 344 345 347 347 345 340 341 342 340 342 341 343 341 342 340 341 341 341 341 341 342 343 344 344 343 343 343 343 342 341 345
345 346 345 342 341 343 344 343 344 344 346 345 344 345 347 346 346 341 342 342 340 343 344 346 345 344 342 344 344 345 342 341 341 340 340 341 340 339 337 334 336 337 345
345 343 342 344 342 340 341 343 343 342 341 339 344 342 343 345 346 344 344 344 344 345 343 343 343 342 345 345 346 346 346 347 349 349 346 341 339 337 336 337 337 338 336
341 344 342 343 342 341 338 337 338 340 340 343 343 344 345 346 346 347 346 346 347 346 345 343 345 345 344 345 346 346 344 348 348 348 350 350 347 344 347 347 345 343 336
340 342 342 343 343 342 340 340 340 341 342 342 344 344 344 346 348 347 344 346 346 344 346 347 345 346 347 345 345 344 345 346 347 347 347 348 345 345 348 349 346 340 333
342 343 341 341 341 341 342 342 342 342 342 343 344 344 343 342 344 346 348 344 345 344 344 346 346 344 345 347 349 349 348 349 349 348 347 346 345 345 344 344 341 342 341
339 339 340 339 339 339 338 339 340 340 342 342 343 344 345 345 345 343 344 345 345 344 344 343 343 347 348 348 348 348 347 347 346 348 349 347 347 344 345 344 344 344 344
340 340 341 340 338 339 339 338 338 339 338 340 341 341 341 342 343 343 343 344 344 346 346 346 346 345 345 345 346 347 347 347 347 347 347 346 346 345 346 346 346 346 345
340 339 339 339 340 340 339 339 338 337 337 337 339 337 338 341 342 342 342 344 344 346 346 347 347 347 345 345 346 346 346 347 347 347 346 345 345 346 347 348 347 348 348
332 332 333 335 337 334 335 336 337 336 336 337 336 336 339 340 341 342 343 343 343 345 345 345 345 346 346 347 348 348 347 347 347 348 348 349 348 347 348 349 348 350 350
326 326 325 327 328 329 329 329 329 329 332 334 336 338 338 339 339 341 340 341 340 336 336 340 340 340 340 340 341 340 338 341 344 344 345 346 347 347 347 347 349 349 350
316 315 315 316 318 319 319 319 323 329 332 334 331 332 334 329 329 336 337 339 336 328 322 320 320 323 324 323 326 329 326 327 329 332 334 336 341 343 344 344 346 347 348
311 311 311 311 312 313 315 317 319 322 323 326 325 325 326 326 328 328 329 326 326 323 319 318 318 318 318 318 317 317 317 317 319 321 323 324 326 329 331 331 337 346 348
308 308 309 309 310 310 311 313 315 317 319 320 320 320 320 320 321 321 320 319 317 316 315 313 313 312 313 313 313 313 314 314 316 320 323 325 326 325 326 329 331 337 343
307 307 308 308 309 310 311 312 313 314 314 315 316 316 315 315 314 314 313 312 312 312 311 311 311 311 311 311 311 311 311 312 312 316 321 326 328 330 330 336 337 338 342
305 305 306 306 306 306 306 307 307 307 308 309 309 308 306 306 305 305 305 305 305 305 305 306 306 306 306 307 307 308 309 310 312 314 317 324 330 332 335 338 339 341 343
304 304 303 303 302 302 301 301 301 301 301 301 301 301 302 302 302 302 302 302 303 303 303 303 303 303 304 304 304 305 306 308 310 313 317 318 321 327 329 331 332 334 337
301 300 300 300 300 300 300 300 300 300 300 300 300 300 300 301 301 301 302 302 302 302 302 302 302 302 302 302 302 302 303 303 304 306 311 313 314 316 317 323 327 328 330
300 299 299 299 299 299 300 300 300 300 299 299 299 299 299 299 300 300 301 301 301 301 301 301 301 301 301 301 301 301 301 301 302 303 307 308 310 311 312 313 316 319 321
299 298 299 299 300 299 299 299 299 299 299 298 298 298 298 299 299 299 299 300 300 300 300 299 299 299 299 299 300 300 300 301 301 301 301 301 303 306 308 309 309 310 311
299 299 299 300 299 299 299 299 298 298 298 297 297 297 297 297 298 298 298 298 298 297 297 297 297 297 297 297 297 297 297 298 298 299 299 299 303 304 305 306 307 307 308
300 299 299 300 300 300 299 299 299 299 298 297 296 296 296 297 297 297 297 297 296 296 296 296 295 295 295 295 295 295 295 295 294 294 296 298 300 300 301 301 301 302 305
300 300 300 300 301 301 301 300 300 300 299 298 296 295 296 296 296 296 296 296 296 296 295 294 294 294 294 294 294 294 294 294 293 293 293 293 295 296 299 299 299 300 300
301 301 301 301 301 301 301 301 301 301 300 299 297 296 295 295 295 296 296 296 296 296 295 295 294 294 294 294 294 294 294 294 294 294 293 293 293 294 295 297 298 299 299
301 300 301 302 302 301 302 302 302 302 301 299 297 296 296 296 295 295 295 295 296 296 295 294 294 294 294 294 294 294 294 294 294 294 294 295 295 295 295 295 295 296 297
303 301 302 302 303 303 302 302 302 302 301 300 297 297 297 297 296 295 294 294 295 295 294 294 293 293 293 293 293 293 294 294 294 294 295 296 296 296 296 296 296 296 296

GFSGL_850_thetae_099.txt.gz
Theta_e
343 343 343 343 343 340 343 343 344 346 345 345 345 344 346 347 346 343 341 340 341 339 340 340 342 340 340 341 339 339 339 340 347 345 343 340 341 341 339 336 334 340 346
344 345 345 343 342 342 341 343 343 345 346 346 345 344 345 345 346 344 340 341 341 340 342 343 344 345 343 341 343 343 344 343 343 348 348 346 341 340 340 340 340 346 343
344 344 344 343 343 343 340 341 343 343 341 342 340 343 343 343 346 345 343 343 342 342 341 341 341 342 341 344 343 342 348 346 345 348 349 351 347 345 342 345 343 340 343
343 344 343 342 341 343 340 338 339 341 340 340 341 342 342 342 346 346 347 347 344 345 344 343 343 343 344 342 345 343 344 344 344 347 349 350 351 349 345 349 350 348 344
342 343 341 343 340 343 342 339 339 339 340 340 341 342 343 343 345 346 348 347 345 345 343 343 344 343 344 346 346 343 343 343 343 348 349 350 349 349 350 350 349 347 345
342 343 341 342 342 342 342 342 341 342 341 342 342 342 343 342 340 341 344 345 344 343 343 342 342 342 344 342 345 347 349 348 347 348 350 350 351 352 350 350 350 349 348
342 342 343 341 340 339 339 339 340 341 341 341 342 342 342 343 343 343 344 342 342 342 343 343 343 343 343 345 346 346 347 347 348 347 347 347 347 347 346 345 349 348 349
342 341 340 341 340 339 339 338 338 338 339 338 338 340 340 340 342 343 343 344 344 345 344 345 347 346 345 346 346 346 345 344 345 346 347 346 347 347 347 348 348 346 347
340 340 339 340 339 339 339 339 339 340 338 337 337 337 338 338 339 340 341 342 342 342 343 343 344 345 344 344 345 345 346 347 347 347 347 347 346 347 348 349 349 352 352
337 338 337 338 339 336 335 336 336 337 337 336 336 337 337 338 338 338 340 340 341 341 341 340 340 340 340 340 341 342 343 343 344 344 345 346 345 346 346 348 348 349 352
331 330 330 332 332 331 330 330 332 334 335 336 336 336 337 338 338 337 338 338 335 334 335 332 329 326 332 328 329 330 333 334 335 336 337 336 333 334 338 341 342 346 347
320 321 321 321 321 321 320 321 326 330 332 333 335 335 336 335 336 333 330 336 331 328 327 325 324 321 322 319 318 317 317 317 319 320 327 331 331 336 338 335 330 330 335
313 313 313 314 314 315 317 320 324 329 330 330 329 329 328 327 326 327 327 325 323 320 319 321 320 320 316 313 313 314 313 313 314 322 325 325 324 323 324 327 329 329 338
309 309 309 310 310 311 314 316 319 320 321 321 321 321 322 322 322 321 320 318 317 316 315 314 313 312 311 311 311 311 311 311 312 320 322 315 317 322 329 331 329 338 340
308 308 308 309 309 310 311 312 313 314 315 316 316 316 315 314 313 312 310 309 307 307 306 306 306 306 305 305 305 305 306 307 309 309 311 313 322 321 319 322 326 330 336
306 306 306 307 307 307 308 309 310 310 309 309 310 308 307 305 304 303 303 303 303 303 303 303 303 303 303 303 303 303 304 304 304 304 305 308 315 315 316 316 320 321 327
305 305 304 304 303 303 303 302 302 302 302 301 301 301 301 301 301 301 302 302 302 302 302 302 302 302 302 302 302 302 302 302 302 303 303 304 309 313 313 315 316 317 315
303 302 302 301 301 301 300 300 300 300 299 300 300 300 300 300 301 301 301 301 301 301 301 301 301 301 301 301 301 301 302 302 302 302 302 302 304 307 307 308 307 310 311
301 300 300 299 299 299 299 299 299 299 299 299 298 298 299 299 299 300 300 300 301 301 301 300 300 300 300 300 299 299 299 300 300 300 301 302 303 305 307 308 308 307 307
300 299 299 299 299 299 299 299 299 299 298 298 297 298 298 298 298 299 299 299 299 299 299 299 299 299 298 298 298 298 298 298 298 299 299 299 300 301 302 302 304 306 306
299 299 299 299 299 299 299 299 298 298 298 297 297 297 297 297 298 298 298 298 298 298 298 297 297 297 297 296 296 296 295 296 296 296 296 297 297 298 298 298 298 300 303
299 299 299 299 299 299 299 299 299 299 298 298 297 296 296 296 297 297 297 297 297 297 297 297 296 296 295 295 295 295 294 294 294 294 294 294 294 294 294 295 295 296 298
300 299 298 299 300 300 299 300 300 300 299 298 297 296 296 296 296 295 296 296 296 297 296 296 295 295 294 294 294 294 294 293 294 294 294 294 294 293 294 294 294 294 295
302 301 299 299 300 301 301 301 301 301 301 300 298 296 296 296 296 295 295 295 295 296 296 296 295 295 294 294 294 293 293 293 293 294 294 293 293 294 294 295 296 296 296
303 302 300 300 300 301 301 302 302 302 301 301 299 297 297 297 297 297 296 295 294 294 295 296 295 295 294 294 294 294 293 293 293 294 294 294 294 294 294 295 296 296 296
304 303 302 302 301 301 301 301 302 302 302 301 300 298 298 298 298 298 298 297 296 294 294 295 295 295 295 294 294 294 293 293 293 293 294 294 294 294 295 296 296 297 297

GFSGL_850_thetae_102.txt.gz
Theta_e
349 348 348 349 348 348 348 347 349 343 344 345 346 343 345 345 348 347 345 351 349 350 348 350 349 345 346 346 345 346 346 346 346 342 344 344 351 351 350 350 346 345 344
350 350 344 347 349 347 348 348 349 344 347 344 345 344 343 345 345 346 350 349 349 349 349 350 350 348 350 349 348 349 347 349 347 347 347 347 348 350 350 352 349 346 347
348 350 345 345 347 348 348 348 348 344 347 350 345 344 344 344 343 344 348 351 351 350 349 350 349 350 350 349 349 350 347 349 349 349 348 346 347 348 348 348 350 349 346
343 347 348 348 349 349 349 349 349 344 342 347 344 348 347 344 342 344 345 347 350 350 351 350 350 350 351 350 350 350 349 349 348 349 347 347 347 347 349 347 345 345 345
343 344 343 343 343 343 347 347 347 347 341 339 349 349 346 348 347 345 346 346 351 351 351 350 350 350 345 345 347 347 346 349 349 348 347 347 346 351 347 347 346 346 346
344 343 342 343 343 342 344 344 340 341 344 341 342 343 345 348 343 341 342 347 351 352 351 351 350 348 348 343 344 343 345 347 349 349 348 347 350 349 347 347 348 348 349
342 340 339 341 339 339 342 343 345 344 344 343 344 346 342 343 343 343 343 343 347 351 351 351 351 346 341 342 343 344 346 346 344 344 346 351 351 350 350 350 352 352 352
344 342 342 341 341 341 341 340 340 339 339 343 340 341 341 341 341 342 344 345 345 343 343 343 344 343 343 343 344 344 346 349 352 350 348 347 347 347 347 348 348 349 353
343 343 343 341 341 340 339 338 338 337 339 341 339 338 337 338 339 340 341 342 342 344 344 343 343 341 341 340 340 340 341 343 343 343 346 346 345 346 347 346 349 350 353
341 339 340 339 339 339 339 339 339 339 340 340 339 337 337 337 338 338 338 340 341 341 341 339 338 337 336 337 337 336 337 338 337 338 337 338 338 339 339 341 347 349 349
339 338 337 336 335 334 333 334 336 336 336 336 337 337 337 337 337 338 339 339 338 335 335 332 331 330 326 324 323 322 322 323 323 333 335 337 338 340 342 344 344 345 345
329 329 329 329 326 325 325 328 332 336 337 336 335 335 335 335 334 330 329 329 332 332 331 329 325 322 320 318 317 316 315 317 326 328 331 333 335 335 335 335 336 336 339
318 319 319 319 320 321 325 328 330 332 331 331 327 325 328 326 328 330 329 329 326 327 325 321 321 319 316 317 315 311 314 322 322 323 326 328 328 327 326 336 330 326 332
312 312 312 314 315 318 319 322 322 323 323 322 321 320 324 326 325 323 322 320 319 318 317 315 313 311 311 312 316 318 319 318 321 323 322 320 322 325 326 326 325 326 327
312 313 312 313 314 312 313 315 317 318 318 317 317 317 315 314 316 315 313 312 311 309 307 305 305 305 306 308 313 311 312 308 311 311 313 314 316 318 319 320 319 320 322
312 312 312 313 312 311 310 311 312 312 313 313 313 312 312 309 307 305 304 303 303 303 303 304 303 303 303 303 303 303 304 304 304 304 306 309 313 315 316 315 317 318 319
310 308 309 309 309 310 308 306 307 306 305 304 303 303 302 302 302 302 302 302 302 302 306 306 307 306 305 304 304 305 304 303 302 303 303 305 308 309 310 311 312 312 312
306 305 307 306 306 306 306 306 305 304 304 301 301 301 300 301 301 300 300 301 304 303 304 305 304 304 304 304 304 304 304 305 304 304 305 305 305 305 305 307 308 310 310
303 303 304 304 304 304 304 304 304 304 304 303 300 299 299 299 300 300 300 303 303 303 303 302 301 301 301 301 301 302 302 302 301 303 303 303 303 304 304 305 305 305 306
302 303 303 303 302 303 303 303 303 303 303 303 302 302 301 299 302 302 300 300 301 302 301 301 300 300 300 299 299 299 300 300 300 300 300 300 300 300 301 302 302 302 303
304 301 301 303 303 303 303 303 303 303 302 302 301 298 298 301 302 301 301 301 300 300 299 299 299 299 299 298 298 298 298 298 298 298 298 297 297 297 298 298 298 299 299
304 303 302 303 303 303 303 303 303 302 302 302 301 297 297 300 301 301 300 300 298 298 298 298 298 298 297 297 297 296 296 296 296 295 295 294 294 294 295 295 296 296 297
304 303 303 303 304 303 302 303 303 303 303 302 301 301 300 300 300 300 299 298 297 297 297 297 297 297 296 296 296 296 295 295 295 294 294 294 294 294 294 294 294 294 294
306 304 304 304 303 304 303 304 304 304 304 303 302 301 300 300 300 300 299 298 298 298 296 296 296 296 296 296 295 295 295 294 294 294 293 293 294 293 293 293 293 293 294
306 306 305 304 304 303 304 304 305 305 304 304 303 302 301 301 301 300 300 300 299 298 298 297 296 295 295 295 295 295 295 294 294 294 294 294 294 294 294 293 293 294 295
310 308 306 305 304 304 303 304 304 305 305 305 304 303 302 302 301 301 301 301 301 300 299 298 296 294 295 295 294 294 294 294 294 295 295 295 295 295 295 295 296 296 296

GFSGL_850_thetae_105.txt.gz
Theta_e
350 349 349 347 347 347 347 348 351 348 343 348 348 352 351 354 354 349 349 350 353 351 350 351 349 350 350 348 349 347 345 344 345 346 347 344 345 351 348 351 349 348 346
350 351 350 350 348 347 347 348 350 350 351 347 355 354 351 353 352 351 352 351 351 351 351 351 351 348 353 351 350 348 346 344 346 346 347 350 346 350 349 348 348 348 346
352 352 351 350 349 348 347 347 349 351 352 352 350 349 351 352 352 349 353 351 351 350 349 351 351 351 351 351 351 349 349 351 350 350 347 346 347 348 349 347 349 350 346
348 348 350 352 350 350 348 347 349 351 350 350 351 351 353 351 352 351 352 352 353 352 351 351 350 351 352 353 352 352 350 350 348 349 347 347 346 350 351 347 346 345 347
342 343 342 346 350 350 350 351 349 348 348 349 350 350 351 350 349 351 352 353 353 352 351 351 349 350 350 348 345 350 349 350 350 350 348 347 347 352 348 347 347 346 348
343 343 342 344 345 346 349 349 346 348 348 349 350 351 351 349 346 346 344 350 350 350 351 352 349 350 349 345 340 341 342 341 343 351 350 348 346 349 351 352 353 352 352
343 343 343 343 343 343 344 344 346 346 346 347 348 348 346 343 342 343 343 342 349 351 351 350 349 350 347 347 344 343 345 346 347 346 347 349 350 350 348 349 351 351 352
345 343 340 340 340 340 339 341 342 340 345 346 347 345 342 341 342 342 343 345 347 346 346 345 344 344 343 343 343 348 348 348 350 350 350 349 347 347 346 346 346 348 351
345 343 343 342 341 340 341 341 341 340 341 341 342 339 339 339 340 340 342 344 345 344 344 344 344 343 342 341 339 339 340 342 340 339 341 341 340 340 340 340 346 348 348
345 344 342 342 341 341 340 339 339 338 338 337 334 340 339 338 337 338 340 345 345 341 341 341 341 339 337 335 334 333 332 328 325 329 337 340 340 342 343 342 346 345 345
343 343 340 340 339 339 340 339 338 339 339 340 340 338 337 336 336 337 338 338 338 336 335 332 335 333 331 328 325 323 320 318 323 331 333 338 339 339 338 338 339 339 340
337 337 338 336 335 334 334 335 336 337 338 337 336 336 336 336 337 337 337 336 336 334 332 330 329 327 324 319 317 316 313 315 326 326 326 330 333 331 330 327 337 337 330
327 327 328 327 328 328 327 329 333 335 334 334 331 326 327 333 333 331 330 329 329 328 327 324 323 319 317 318 317 314 322 324 324 325 328 327 323 325 326 327 325 324 325
318 319 320 322 325 327 328 328 330 330 329 329 328 326 322 327 327 327 326 324 322 320 318 315 313 311 313 314 319 320 320 316 317 316 316 317 317 318 319 320 320 320 320
315 315 316 317 321 320 320 321 322 324 325 324 324 322 321 319 319 319 318 315 313 311 308 309 306 307 308 310 312 309 309 309 308 308 309 312 313 315 317 316 316 316 318
314 315 316 317 317 315 313 313 313 315 318 319 318 316 315 315 313 310 308 306 305 304 309 312 310 308 310 307 306 304 306 304 303 303 303 305 308 311 311 312 313 315 315
312 313 312 313 314 314 312 311 308 310 310 311 310 309 307 305 303 302 302 302 302 304 310 310 310 310 309 310 309 309 308 308 305 307 308 308 308 307 307 308 307 309 310
310 307 311 310 311 311 312 311 309 307 306 304 302 302 301 301 301 301 301 302 307 307 308 308 308 308 308 308 307 307 307 306 306 306 306 306 306 306 306 307 307 307 306
306 308 308 308 308 308 309 309 308 308 309 307 302 300 300 300 300 300 303 308 307 307 307 306 306 306 306 305 305 305 305 304 304 304 304 304 304 303 304 304 303 303 303
305 304 305 306 306 306 306 306 307 307 307 307 307 307 304 300 305 306 306 306 306 306 306 305 305 305 304 303 303 303 303 303 302 302 302 301 300 300 300 300 301 301 301
305 304 302 304 305 305 306 305 306 306 306 306 306 304 304 306 306 305 305 305 305 305 304 304 304 303 303 302 301 301 301 301 301 300 299 298 297 298 297 298 298 298 299
307 305 303 302 305 305 305 305 305 305 305 305 304 302 298 301 304 304 304 304 303 302 302 301 302 301 301 300 298 299 299 299 298 297 297 296 296 296 296 296 296 296 297
308 306 306 305 305 305 305 305 305 305 305 305 305 303 300 304 304 303 303 303 302 302 301 301 301 300 300 299 298 297 297 297 296 296 296 296 296 296 296 296 296 295 294
310 309 307 307 306 306 305 305 305 305 306 305 305 304 303 303 303 303 302 302 301 301 301 301 300 298 298 298 298 297 297 296 295 295 295 296 296 296 295 294 293 294 294
310 310 308 307 307 306 306 306 306 306 306 306 306 305 304 304 303 303 303 303 302 302 302 301 300 300 299 297 296 296 295 295 295 295 296 296 296 296 295 295 296 297 297
312 310 309 308 307 307 307 306 306 307 307 307 306 306 305 304 304 304 304 304 303 303 303 302 301 300 298 297 297 295 294 294 294 296 296 296 296 296 297 297 298 299 299

GFSGL_850_thetae_108.txt.gz
Theta_e
346 351 350 345 349 343 348 347 346 347 347 344 346 352 350 349 352 350 345 348 350 346 343 348 349 344 338 343 343 345 345 346 345 348 341 342 343 347 349 346 347 347 348
344 349 347 348 347 348 347 348 343 349 348 347 347 346 345 347 349 348 345 349 350 347 348 348 347 350 349 350 347 352 349 350 351 348 350 346 345 348 349 349 348 348 344
347 349 346 348 350 347 348 346 347 349 348 346 349 347 349 349 350 346 344 346 351 351 349 349 351 352 349 348 347 346 344 348 350 348 347 347 347 350 349 349 345 347 349
344 349 344 349 349 346 347 348 348 348 348 347 351 349 348 346 350 352 347 346 346 350 350 348 348 348 349 348 349 348 349 350 344 349 349 350 349 351 346 351 346 347 347
352 352 350 349 350 348 348 348 347 349 350 345 349 348 349 350 350 350 350 349 347 346 347 351 350 349 349 348 348 346 342 340 346 348 343 345 346 346 345 344 343 345 342
348 343 341 341 343 344 348 348 347 347 347 348 345 348 346 347 347 348 349 345 348 350 343 349 349 348 348 344 341 338 341 342 344 344 344 348 349 347 347 347 345 347 347
345 343 343 343 343 343 346 345 345 345 345 345 349 350 345 343 338 340 344 345 344 343 348 346 346 348 350 346 343 343 345 348 348 348 348 348 349 350 347 345 345 344 348
346 343 343 343 344 344 343 343 343 343 341 342 346 341 341 341 341 341 342 343 344 342 346 348 346 343 344 344 344 344 345 345 346 345 346 344 341 341 340 340 344 348 347
346 344 343 340 341 342 342 341 340 342 339 337 334 337 340 341 340 340 341 345 344 346 344 343 343 343 343 343 341 339 338 338 336 334 335 339 340 342 342 341 344 346 346
346 345 344 343 342 341 340 341 340 341 340 338 340 338 336 339 338 338 340 340 345 342 341 341 342 341 339 337 335 332 327 325 323 332 334 337 341 339 337 340 341 341 341
345 345 343 342 341 340 341 339 340 339 339 338 338 337 333 337 337 337 340 342 341 341 339 336 335 332 329 329 327 324 320 316 320 327 328 331 336 336 331 329 332 335 335
343 342 342 340 339 340 340 340 339 338 338 339 339 340 337 336 336 336 337 337 337 337 335 333 331 328 325 322 319 316 313 315 322 325 326 329 330 330 324 326 327 325 325
334 334 333 333 336 336 336 336 336 336 337 337 336 335 334 334 334 335 334 332 332 331 329 327 326 323 318 315 315 315 317 319 320 322 325 325 321 321 320 323 321 317 317
328 328 328 329 331 328 329 332 332 332 332 332 331 328 326 328 331 329 328 328 328 326 322 318 316 313 311 312 315 316 316 316 311 311 312 313 313 315 316 316 314 311 313
315 318 317 322 324 327 328 328 330 330 330 329 328 328 325 322 322 321 322 320 317 314 311 310 310 308 310 313 314 313 307 305 305 304 305 305 306 307 308 308 310 311 313
316 316 316 318 317 316 320 323 323 324 326 326 325 325 322 321 319 316 312 310 309 307 307 314 312 311 311 308 307 308 307 305 305 306 306 306 306 306 306 307 307 307 306
314 315 317 317 317 316 315 312 309 311 312 319 319 318 315 312 310 308 305 303 302 304 312 312 312 311 311 311 310 310 309 307 305 307 307 306 305 305 305 305 305 305 304
306 309 310 312 314 313 314 313 312 310 307 306 306 305 304 304 303 302 302 302 306 310 311 311 310 310 309 309 308 307 307 306 305 305 305 304 304 303 302 302 302 302 302
307 308 309 309 309 310 310 311 311 310 311 310 308 301 301 301 301 301 304 309 309 309 308 308 308 307 307 306 304 304 305 303 303 303 303 302 301 300 300 300 300 300 300
307 306 306 308 308 307 308 308 308 308 309 309 308 309 307 300 302 302 305 308 308 308 308 307 306 306 305 304 303 302 303 303 302 302 300 299 299 299 298 298 298 298 298
308 308 306 305 305 305 305 307 307 307 308 308 308 307 307 306 309 308 307 307 307 307 306 306 305 305 304 303 301 301 301 301 301 299 298 298 298 298 297 297 297 297 298
308 307 305 304 303 304 304 307 306 307 307 307 307 306 305 303 306 306 306 306 305 305 305 304 304 303 302 300 299 299 300 300 299 298 298 298 297 297 298 298 298 298 298
310 309 308 308 302 305 305 306 306 306 306 306 306 305 304 300 303 305 305 304 304 303 303 302 302 302 301 299 298 297 298 298 297 297 297 297 297 298 298 298 298 298 297
313 311 309 308 308 307 307 307 306 306 306 306 306 305 305 304 305 304 304 303 303 303 302 301 301 300 300 299 299 299 298 297 296 296 296 297 297 298 298 298 297 296 297
313 312 312 311 309 308 307 307 307 306 306 306 307 306 305 304 304 304 304 303 303 302 302 302 302 301 300 299 298 297 296 295 295 295 296 297 297 297 297 296 296 297 298
316 314 313 312 311 310 309 308 307 307 307 307 307 306 306 305 304 304 304 304 304 304 303 303 302 302 301 300 299 298 297 296 295 294 294 296 297 298 297 297 297 297 298

GFSGL_850_thetae_111.txt.gz
Theta_e
345 343 345 344 344 349 346 343 341 340 344 338 348 350 347 349 349 349 345 345 349 347 343 345 346 347 342 346 340 339 343 345 344 344 346 346 344 346 347 348 349 348 349
342 349 348 346 341 344 343 344 343 347 344 344 347 349 348 348 346 345 347 343 347 347 347 347 344 342 347 348 345 348 349 347 348 346 342 346 349 348 349 348 348 348 349
343 346 349 346 344 344 346 344 348 345 348 345 345 345 347 344 348 346 343 343 351 348 349 349 346 348 347 343 345 343 346 342 344 346 343 349 349 349 346 343 345 346 346
349 344 350 344 346 345 346 346 345 346 344 344 344 350 345 346 349 353 351 344 345 345 347 348 348 347 346 347 348 346 343 340 339 345 344 344 345 346 345 341 338 339 339
347 348 348 344 349 350 346 349 349 348 346 348 345 345 347 348 347 347 348 347 344 344 347 346 350 349 351 349 348 348 346 339 340 341 341 341 341 343 345 346 345 343 342
348 349 347 348 344 348 345 349 347 347 346 348 346 349 346 344 343 346 349 351 346 347 346 345 348 349 347 345 343 342 342 342 343 344 345 345 346 347 346 344 342 343 345
345 347 346 347 343 342 347 346 348 346 344 344 344 345 341 341 340 340 342 346 347 345 342 343 341 343 347 346 346 343 342 345 346 346 344 344 340 340 340 340 342 346 347
346 347 346 344 343 342 343 343 344 344 344 344 344 340 342 340 341 338 339 341 342 345 343 342 341 342 344 343 344 342 342 342 342 341 336 338 340 340 340 340 342 345 346
347 347 345 343 342 343 344 344 343 343 343 342 342 340 333 330 336 340 340 340 340 340 342 343 343 343 343 342 342 340 338 337 333 331 337 339 339 340 342 342 342 341 341
347 346 344 342 340 340 342 342 341 340 341 340 338 335 332 335 337 337 338 341 341 342 341 342 342 342 341 338 336 334 329 326 323 333 333 340 340 337 336 333 335 333 335
346 346 344 343 341 340 340 340 340 340 341 340 339 338 338 335 334 335 337 340 341 341 340 338 336 334 333 330 331 330 327 320 319 327 328 335 335 333 329 328 327 325 324
346 345 345 343 342 340 340 340 338 340 340 339 339 338 338 336 336 336 337 339 340 338 338 336 332 330 326 324 325 321 317 315 314 318 324 327 328 327 326 324 324 324 322
342 341 341 339 339 339 340 339 339 338 337 338 338 338 337 336 335 336 336 336 336 336 334 331 328 326 325 321 318 315 314 315 317 318 320 324 325 323 318 320 321 316 317
331 332 331 332 332 333 335 334 335 336 335 334 331 329 329 331 333 333 331 330 329 328 327 324 321 316 313 312 312 314 315 315 311 311 310 312 311 311 310 310 308 307 308
321 324 327 327 328 330 330 332 331 332 332 331 331 328 327 327 325 325 324 325 322 319 316 313 311 310 309 312 314 315 313 306 305 304 304 304 304 304 305 305 305 305 306
314 316 316 315 314 317 324 327 326 325 326 326 326 325 324 324 323 320 317 314 311 310 308 309 311 309 309 308 307 306 306 305 304 305 305 305 305 304 304 304 304 304 303
314 316 317 317 317 316 314 311 312 317 314 321 325 323 323 323 321 315 311 309 305 305 312 312 312 311 311 310 310 309 307 306 305 305 304 304 304 303 303 302 302 302 301
313 314 315 314 314 315 314 313 312 312 310 307 308 309 310 309 307 306 304 302 304 311 312 312 311 311 310 310 309 308 307 305 304 303 303 303 302 301 301 300 300 300 300
306 308 310 312 311 311 312 312 311 311 310 310 310 308 303 302 302 301 302 305 309 309 310 310 309 309 308 307 306 305 304 303 302 302 302 301 300 300 300 300 299 299 299
310 307 308 309 309 309 310 310 310 309 309 309 309 308 308 304 300 301 306 309 309 308 308 308 308 307 307 306 304 304 303 302 301 301 300 299 299 299 299 299 299 299 299
309 309 308 306 305 305 306 307 307 308 308 308 308 308 308 306 309 307 307 306 308 307 307 307 307 306 304 303 302 301 302 301 300 299 298 298 298 298 298 298 299 299 299
309 309 310 306 305 305 305 305 307 307 307 307 307 307 307 306 306 307 307 307 306 307 306 306 305 304 303 302 300 300 299 299 299 297 297 297 297 298 298 299 299 299 299
311 311 311 311 310 306 303 304 304 306 305 307 306 306 306 306 304 306 306 306 305 305 305 304 303 303 302 301 299 298 298 298 297 296 296 297 297 297 298 298 298 299 298
312 312 312 311 311 310 309 308 307 306 306 305 306 306 306 305 303 305 305 305 305 304 303 302 302 302 301 301 299 298 298 297 296 296 295 296 297 297 298 298 298 298 298
317 314 313 312 311 310 309 308 307 307 307 306 306 306 306 305 304 304 304 304 304 303 303 302 301 301 301 300 299 298 297 296 296 296 295 295 295 296 297 298 298 298 297
315 316 316 313 313 312 310 309 309 308 307 307 306 306 306 306 306 305 304 304 304 303 303 303 303 302 302 302 301 300 299 300 299 298 296 295 294 295 296 298 297 296 297

GFSGL_850_thetae_114.txt.gz
Theta_e
342 340 339 341 345 345 346 344 343 342 340 338 346 346 348 348 349 349 348 344 347 347 341 341 345 346 346 341 341 343 344 343 343 341 346 347 348 345 347 348 348 349 347
345 342 340 344 343 341 344 344 341 338 341 341 342 347 346 347 350 346 345 345 343 344 346 346 346 342 342 346 347 346 348 346 344 345 344 345 345 347 344 346 347 348 347
346 345 343 343 343 341 341 339 340 342 343 343 344 346 346 347 345 344 344 343 343 347 345 347 347 346 345 346 345 345 345 344 343 342 342 344 347 346 344 342 339 337 340
344 345 345 348 345 342 342 343 343 343 340 344 343 342 345 346 344 345 345 343 345 347 345 346 347 349 349 345 346 345 345 345 340 338 343 342 340 339 340 342 341 341 341
345 345 344 345 345 345 345 346 345 347 345 347 345 343 346 345 344 345 344 344 343 344 345 347 348 347 345 346 346 344 339 337 338 339 341 341 343 345 345 343 342 342 344
343 344 346 346 345 343 347 346 345 347 344 344 346 345 344 343 345 345 344 344 348 344 344 343 340 344 345 344 343 341 341 341 340 341 343 344 344 340 340 340 342 343 345
340 342 348 347 346 345 346 346 343 344 347 344 347 343 342 342 341 342 341 344 345 348 344 342 342 340 341 345 343 345 345 342 343 343 341 337 338 339 340 340 341 345 344
344 345 346 346 346 346 346 344 343 345 346 345 344 342 342 341 341 340 341 340 340 341 344 345 343 341 341 343 343 344 342 343 341 339 334 337 339 340 340 341 341 342 342
343 345 344 343 345 343 343 343 343 344 343 344 343 344 343 342 340 337 337 340 340 340 341 342 342 342 343 343 342 341 339 337 333 330 334 337 338 339 340 341 339 337 337
346 345 345 346 345 344 342 343 343 343 343 343 342 342 342 340 336 333 337 338 338 339 341 341 342 342 341 340 337 335 331 326 326 331 333 337 338 338 338 336 333 333 326
346 347 346 344 342 341 340 342 342 341 341 341 341 339 335 334 332 334 336 335 336 340 340 338 337 336 336 334 332 329 326 323 322 327 331 336 335 333 331 330 328 325 323
336 343 345 343 341 340 340 340 340 340 340 341 340 339 338 338 337 335 336 338 339 340 339 336 333 332 330 328 326 322 318 316 316 317 321 326 327 326 323 322 321 321 321
345 345 344 343 342 340 340 340 339 339 340 340 339 338 338 338 336 335 334 335 336 336 335 333 332 329 326 324 321 317 315 314 316 316 317 319 322 322 320 317 318 316 314
339 339 339 339 339 339 339 339 339 338 338 337 337 338 335 333 332 332 332 331 330 329 329 328 325 321 317 314 313 312 313 314 314 312 313 313 314 312 311 308 307 307 308
331 331 331 332 332 332 333 334 334 335 335 333 332 332 329 326 326 326 325 324 324 323 320 317 314 312 310 311 313 314 314 312 307 306 306 305 305 305 305 305 305 304 304
324 324 322 324 323 323 326 328 329 329 329 327 329 329 328 327 325 322 319 316 314 311 310 309 310 310 309 308 307 307 307 305 304 305 305 305 304 304 304 303 302 302 302
317 317 317 317 316 315 313 313 315 321 322 322 324 322 322 322 323 323 322 314 309 306 307 310 311 311 310 309 308 308 308 306 305 305 305 304 303 302 302 301 301 301 301
314 316 314 315 317 316 314 312 312 311 310 308 310 310 313 313 312 311 308 307 304 304 311 312 311 311 310 310 309 309 308 306 305 304 303 302 301 300 300 300 300 300 300
306 312 313 313 312 311 313 312 311 311 311 310 310 309 307 303 303 302 302 302 307 309 311 311 311 310 310 309 309 308 306 304 303 302 301 300 299 299 299 299 299 299 299
309 308 309 309 309 309 309 309 309 309 309 310 309 308 308 307 302 301 302 305 307 309 309 309 309 308 307 307 306 304 303 302 302 301 300 299 299 298 298 298 299 299 299
310 309 309 309 308 307 306 305 307 308 308 308 308 308 308 308 306 301 305 308 308 308 308 308 308 307 307 306 304 302 302 301 300 299 298 298 298 298 298 298 299 299 299
310 310 310 310 308 307 305 304 305 306 306 306 307 307 307 307 306 306 307 308 307 307 307 307 307 306 305 303 302 301 300 299 299 298 297 297 297 297 298 298 298 298 298
312 310 311 311 311 311 310 309 307 304 306 306 306 306 306 306 306 305 305 307 307 306 306 305 305 304 303 302 301 299 298 298 297 296 296 296 296 297 297 298 298 298 298
316 315 312 311 312 312 311 310 310 310 308 306 305 305 306 306 306 305 304 306 305 305 305 304 303 302 302 302 301 299 298 298 296 296 296 295 295 296 296 297 297 298 298
318 318 317 313 313 313 312 311 309 309 309 308 307 305 305 306 306 305 304 304 304 305 304 303 303 302 301 301 300 299 298 297 298 297 297 296 296 295 295 296 297 298 297
317 316 316 316 316 315 313 312 310 309 309 308 308 307 306 306 306 306 305 305 304 304 304 303 303 303 302 302 302 301 298 301 301 300 300 298 296 296 295 294 295 297 297

GFSGL_850_thetae_117.txt.gz
Theta_e
341 340 339 339 340 344 345 344 344 343 342 341 341 344 346 345 347 345 346 343 345 344 344 343 344 347 346 344 343 344 345 345 345 343 344 344 346 345 345 345 349 348 348
344 342 340 339 342 343 344 345 342 341 340 338 339 344 346 347 347 348 348 347 343 345 345 343 342 342 341 343 346 346 346 347 346 343 345 342 345 344 346 345 344 342 342
346 345 342 344 343 342 343 342 346 343 339 341 342 342 345 346 345 348 345 343 343 342 344 344 346 347 346 345 344 344 344 344 343 342 341 343 344 343 343 342 337 341 341
346 347 346 344 343 344 341 340 341 341 344 343 344 344 345 345 345 344 344 343 343 343 345 344 346 346 346 347 344 347 344 344 343 339 336 338 340 339 339 340 342 341 344
347 347 346 344 342 344 344 342 342 343 345 344 346 344 342 344 345 345 344 345 340 342 345 343 345 344 345 344 345 346 345 338 338 339 340 341 342 342 341 340 340 342 345
347 346 346 345 343 347 345 345 347 346 343 347 347 347 345 345 345 344 344 344 343 341 343 343 344 346 341 342 342 342 341 341 341 342 342 343 342 338 339 340 341 343 343
348 347 347 344 344 342 344 345 345 345 343 344 344 343 346 343 344 342 342 342 342 342 342 342 342 341 340 340 343 342 343 343 341 341 342 340 336 337 339 340 341 341 342
348 347 347 345 343 344 344 345 344 346 345 343 344 343 343 342 341 341 341 341 340 340 340 344 344 343 342 340 341 342 342 341 341 340 339 336 335 337 339 340 341 340 339
343 343 342 342 342 344 345 344 345 345 343 343 345 344 343 343 343 341 339 337 340 340 339 339 339 339 341 341 342 342 341 341 339 337 333 332 334 337 338 340 339 335 331
343 341 341 345 345 345 345 345 344 343 342 343 343 344 343 343 342 342 340 335 335 335 335 336 336 340 341 341 340 339 338 335 331 329 332 333 334 336 338 336 334 332 328
336 341 339 344 344 344 344 343 341 343 343 343 343 343 342 339 337 335 336 336 336 336 335 337 339 338 337 333 330 328 323 325 328 332 333 334 333 332 332 331 329 326 321
344 343 336 338 344 342 340 340 341 341 341 341 341 340 336 336 336 335 334 335 338 339 337 334 330 331 331 328 324 322 321 320 323 325 327 327 327 326 325 324 323 320 316
342 333 342 338 338 339 338 340 340 340 340 340 340 339 338 337 337 336 334 335 337 338 337 332 331 334 331 328 328 327 322 318 318 318 318 318 319 320 320 319 318 315 313
339 340 341 341 341 340 340 340 339 339 339 339 338 337 337 337 335 334 334 333 333 333 332 331 329 325 322 319 316 314 314 315 314 314 313 314 315 315 314 312 311 309 308
334 334 335 336 336 336 336 336 336 337 337 336 336 334 330 327 327 328 327 325 324 325 323 322 322 319 315 312 312 313 313 313 312 309 308 308 307 306 305 305 305 304 304
326 324 326 325 328 329 329 330 331 331 330 331 330 328 325 324 324 320 318 318 317 314 313 311 311 311 310 309 309 308 308 307 306 305 305 305 305 304 304 303 302 301 301
316 317 317 316 315 314 314 314 314 320 322 323 325 326 326 325 323 323 322 321 315 311 309 308 309 310 310 309 309 308 308 307 306 306 305 304 303 302 301 301 300 300 300
315 315 314 316 317 315 313 312 312 311 309 308 310 310 311 314 316 312 309 308 307 305 305 309 311 311 311 310 310 309 308 307 306 304 303 302 301 300 300 300 300 300 300
307 312 312 313 312 312 312 312 311 311 311 310 310 310 309 307 303 302 302 302 303 304 306 311 312 311 310 309 309 308 307 306 304 303 302 300 299 299 299 299 299 299 299
309 308 309 309 309 309 309 309 309 309 309 310 310 309 308 308 307 302 301 303 305 308 310 311 311 310 309 307 307 306 305 304 303 302 300 299 298 298 298 298 298 299 299
310 310 309 309 308 307 306 306 305 306 307 307 308 308 308 308 307 306 304 304 307 309 309 309 308 308 307 307 306 304 303 302 301 300 299 297 297 297 297 298 298 298 298
311 310 310 311 311 310 309 307 307 306 305 305 306 306 307 307 306 306 306 305 307 307 307 307 307 306 306 305 304 303 301 301 300 299 298 297 297 297 297 298 298 298 298
317 313 311 310 311 311 311 310 310 310 309 307 305 305 306 306 306 305 305 304 306 307 306 306 305 304 303 303 303 301 300 299 298 297 296 296 296 296 297 297 297 298 298
318 317 315 313 311 311 312 312 310 309 309 309 308 306 305 306 306 306 305 305 305 306 305 305 304 303 303 302 302 301 299 298 297 296 296 296 296 296 295 295 296 297 297
317 318 318 317 317 314 312 312 312 311 309 309 309 308 307 306 305 306 305 305 304 305 305 305 304 303 302 301 301 300 298 298 297 297 298 297 297 296 296 295 295 295 297
313 315 316 316 316 316 316 316 314 312 312 310 308 309 308 307 307 306 306 306 305 305 304 304 303 303 303 302 301 301 300 299 300 300 301 299 298 297 297 296 295 294 294